[[{"header":{"parameterUnit":"m.s-1","parameterCategory":1,"la1":31.0,"la2":29.5877,"lo1":-88.7671,"lo2":-86.6584,"dy":0.0162,"dx":0.0185,"nx":115,"ny":88,"refTime":"2024-09-18T06:00:00:Z","depth":0,"parameterNumber":2,"parameterNumberName":"U-component_of_WINDS"},"data":[0.0,0.0,0.0,0.0,0.0,0.0,0.0,0.0,0.0,0.0,0.0,0.0,0.0,0.0,0.0,0.0,0.0,0.0,0.0,0.0,0.0,0.0,0.0,0.0,0.0,0.0,0.0,0.0,0.0,0.0,0.0,0.0,0.0,0.0,0.0,0.0,0.0,0.0,0.0,0.0,0.0,0.0,0.0,0.0,0.0,0.0,0.0,0.0,0.0,0.0,0.0,0.0,0.0,0.0,0.0,0.0,0.0,0.0,0.0,0.0,0.0,0.0,0.0,0.0,0.0,0.0,0.0,0.0,0.0,0.0,0.0,0.0,0.0,0.0,0.0,0.0,0.0,0.0,0.0,0.0,0.0,0.0,0.0,0.0,0.0,0.0,0.0,0.0,0.0,0.0,0.0,0.0,0.0,0.0,0.0,0.0,0.0,0.0,0.0,0.0,0.0,0.0,0.0,0.0,0.0,0.0,0.0,0.0,0.0,0.0,0.0,0.0,0.0,0.0,0.0,0.0,0.0,0.0,0.0,0.0,0.0,0.0,0.0,0.0,0.0,0.0,0.0,0.0,0.0,0.0,0.0,0.0,0.0,0.0,0.0,0.0,0.0,0.0,0.0,0.0,0.0,0.0,0.0,0.0,0.0,0.0,0.0,0.0,0.0,0.0,0.0,0.0,0.0,0.0,0.0,0.0,0.0,0.0,0.0,0.0,0.0,0.0,0.0,0.0,0.0,0.0,0.0,0.0,0.0,0.0,0.0,0.0,0.0,0.0,0.0,0.0,0.0,0.0,0.0,0.0,0.0,0.0,0.0,0.0,0.0,0.0,0.0,0.0,0.0,0.0,0.0,0.0,0.0,0.0,0.0,0.0,0.0,0.0,0.0,0.0,0.0,0.0,0.0,0.0,0.0,0.0,0.0,0.0,0.0,0.0,0.0,0.0,0.0,0.0,0.0,0.0,0.0,0.0,0.0,0.0,0.0,0.0,0.0,0.0,0.0,0.0,0.0,0.0,0.0,0.0,0.0,0.0,0.0,0.0,0.0,0.0,0.0,0.0,0.0,0.0,0.0,0.0,0.0,0.0,0.0,0.0,0.0,0.0,0.0,0.0,0.0,0.0,0.0,0.0,0.0,0.0,0.0,0.0,0.0,0.0,0.0,0.0,0.0,0.0,0.0,0.0,0.0,0.0,0.0,0.0,0.0,0.0,0.0,0.0,0.0,0.0,0.0,0.0,0.0,0.0,0.0,0.0,0.0,0.0,0.0,0.0,0.0,0.0,0.0,0.0,0.0,0.0,0.0,0.0,0.0,0.0,0.0,0.0,0.0,0.0,0.0,0.0,0.0,0.0,0.0,0.0,0.0,0.0,0.0,0.0,0.0,0.0,0.0,0.0,0.0,0.0,0.0,0.0,0.0,0.0,0.0,0.0,0.0,0.0,0.0,0.0,0.0,0.0,0.0,0.0,0.0,0.0,0.0,0.0,0.0,0.0,0.0,0.0,0.0,0.0,0.0,0.0,0.0,0.0,0.0,0.0,0.0,0.0,0.0,0.0,0.0,0.0,0.0,0.0,0.0,0.0,0.0,0.0,0.0,0.0,0.0,0.0,0.0,0.0,0.0,0.0,0.0,0.0,0.0,0.0,0.0,0.0,0.0,0.0,0.0,0.0,0.0,0.0,0.0,0.0,0.0,0.0,0.0,0.0,0.0,0.0,0.0,0.0,0.0,0.0,0.0,0.0,0.0,0.0,0.0,0.0,0.0,0.0,0.0,0.0,0.0,0.0,0.0,0.0,0.0,0.0,0.0,0.0,0.0,0.0,0.0,0.0,0.0,0.0,0.0,0.0,0.0,0.0,0.0,0.0,0.0,0.0,0.0,0.0,0.0,0.0,0.0,0.0,0.0,0.0,0.0,0.0,0.0,0.0,0.0,0.0,0.0,0.0,0.0,0.0,0.0,0.0,0.0,0.0,0.0,0.0,0.0,0.0,0.0,0.0,0.0,0.0,0.0,0.0,0.0,0.0,0.0,0.0,0.0,0.0,0.0,0.0,0.0,0.0,0.0,0.0,0.0,0.0,0.0,0.0,0.0,0.0,0.0,0.0,0.0,0.0,0.0,0.0,0.0,0.0,0.0,0.0,0.0,0.0,0.0,0.0,0.0,0.0,0.0,0.0,0.0,0.0,0.0,0.0,0.0,0.0,0.0,0.0,0.0,0.0,0.0,0.0,0.0,0.0,0.0,0.0,0.0,0.0,0.0,0.0,0.0,0.0,0.0,0.0,0.0,0.0,0.0,0.0,0.0,0.0,0.0,0.0,0.0,0.0,0.0,0.0,0.0,0.0,0.0,0.0,0.0,0.0,0.0,0.0,0.0,0.0,0.0,0.0,0.0,0.0,0.0,0.0,0.0,0.0,0.0,0.0,0.0,0.0,0.0,0.0,0.0,0.0,0.0,0.0,0.0,0.0,0.0,0.0,0.0,0.0,0.0,0.0,0.0,0.0,0.0,0.0,0.0,0.0,0.0,0.0,0.0,0.0,0.0,0.0,0.0,0.0,0.0,0.0,0.0,0.0,0.0,0.0,0.0,0.0,0.0,0.0,0.0,0.0,0.0,0.0,0.0,0.0,0.0,0.0,0.0,0.0,0.0,0.0,0.0,0.0,0.0,0.0,0.0,0.0,0.0,0.0,0.0,0.0,0.0,0.0,0.0,0.0,0.0,0.0,0.0,0.0,0.0,0.0,0.0,0.0,0.0,0.0,0.0,0.0,0.0,0.0,0.0,0.0,0.0,0.0,0.0,0.0,0.0,0.0,0.0,0.0,0.0,0.0,0.0,0.0,0.0,0.0,0.0,0.0,0.0,0.0,0.0,0.0,0.0,0.0,0.0,0.0,0.0,0.0,0.0,0.0,0.0,0.0,0.0,0.0,0.0,0.0,0.0,0.0,0.0,0.0,0.0,0.0,0.0,0.0,0.0,0.0,0.0,0.0,0.0,0.0,0.0,0.0,0.0,0.0,0.0,0.0,0.0,0.0,0.0,0.0,0.0,0.0,0.0,0.0,0.0,0.0,0.0,0.0,0.0,0.0,0.0,0.0,0.0,0.0,0.0,0.0,0.0,0.0,0.0,0.0,0.0,0.0,0.0,0.0,0.0,0.0,0.0,0.0,0.0,0.0,0.0,0.0,0.0,0.0,0.0,0.0,0.0,0.0,0.0,0.0,0.0,0.0,0.0,0.0,0.0,0.0,0.0,0.0,0.0,0.0,0.0,0.0,0.0,0.0,0.0,0.0,0.0,0.0,0.0,0.0,0.0,0.0,0.0,0.0,0.0,0.0,0.0,0.0,0.0,0.0,0.0,0.0,0.0,0.0,0.0,0.0,0.0,0.0,0.0,0.0,0.0,0.0,0.0,0.0,0.0,0.0,0.0,0.0,0.0,0.0,0.0,0.0,0.0,0.0,0.0,0.0,0.0,0.0,0.0,0.0,0.0,0.0,0.0,0.0,0.0,0.0,0.0,0.0,0.0,0.0,0.0,0.0,0.0,0.0,0.0,0.0,0.0,0.0,0.0,0.0,0.0,0.0,0.0,0.0,0.0,0.0,0.0,0.0,0.0,0.0,0.0,0.0,0.0,0.0,0.0,0.0,0.0,0.0,0.0,0.0,0.0,0.0,0.0,0.0,0.0,0.0,0.0,0.0,0.0,0.0,0.0,0.0,0.0,0.0,0.0,0.0,0.0,0.0,0.0,0.0,0.0,0.0,0.0,0.0,0.0,0.0,0.0,0.0,0.0,0.0,0.0,0.0,0.0,0.0,0.0,0.0,0.0,0.0,0.0,0.0,0.0,0.0,0.0,0.0,0.0,0.0,0.0,0.0,0.0,0.0,0.0,0.0,0.0,0.0,0.0,0.0,0.0,0.0,0.0,0.0,0.0,0.0,0.0,0.0,0.0,0.0,0.0,0.0,0.0,0.0,0.0,0.0,0.0,0.0,0.0,0.0,0.0,0.0,0.0,0.0,0.0,0.0,0.0,0.0,0.0,0.0,0.0,0.0,0.0,0.0,0.0,0.0,0.0,0.0,0.0,0.0,0.0,0.0,0.0,0.0,0.0,0.0,0.0,0.0,0.0,0.0,0.0,0.0,0.0,0.0,0.0,0.0,0.0,0.0,0.0,0.0,0.0,0.0,0.0,0.0,0.0,0.0,0.0,0.0,0.0,0.0,0.0,0.0,0.0,0.0,0.0,0.0,0.0,0.0,0.0,0.0,0.0,0.0,0.0,0.0,0.5185,0.0,0.0,0.0,0.0,0.0,0.0,0.0,0.0,0.0,0.0,0.0,0.0,0.0,0.0,0.0,0.0,0.0,0.0,0.0,0.0,0.0,0.0,0.0,0.0,0.0,0.0,0.0,0.0,0.0,0.0,0.0,0.0,0.0,0.0,0.0,0.0,0.0,0.0,0.0,0.0,0.0,0.0,0.0,0.0,0.0,0.0,0.0,0.0,0.0,0.0,0.0,0.0,0.0,0.0,0.0,0.0,0.0,0.0,0.0,0.0,0.0,0.0,0.0,0.0,0.0,0.0,0.0,0.0,0.0,0.0,0.0,0.0,0.0,0.0,0.0,0.0,0.0,0.0,0.0,0.0,0.0,0.0,0.0,0.0,0.0,0.0,0.0,0.0,0.0,0.0,0.0,0.0,0.0,0.0,0.0,0.0,0.0,0.0,0.0,0.0,0.0,0.0,0.0,0.0,0.0,0.0,0.0,0.0,0.0,0.0,0.6638,0.6324,0.6247,0.6032,0.567,0.0,0.0,0.0,0.0,0.0,0.0,0.0,0.0,0.0,0.0,0.0,0.0,0.0,0.0,0.0,0.0,0.0,0.0,0.0,0.0,0.0,0.0,0.0,0.0,0.0,0.0,0.0,0.0,0.0,0.0,0.0,0.0,0.0,0.0,0.0,0.0,0.0,0.0,0.0,0.0,0.0,0.0,0.0,0.0,0.0,0.0,0.0,0.0,0.0,0.0,0.0,0.0,0.0,0.0,0.0,0.0,0.0,0.0,0.0,0.0,0.0,0.0,0.0,0.0,0.0,0.0,0.0,0.0,0.0,0.0,0.0,0.0,0.0,0.0,0.0,0.0,0.0,0.0,0.0,0.0,0.0,0.0,0.0,0.0,0.0,0.0,0.0,0.0,0.0,0.0,0.0,0.0,0.0,0.0,0.0,0.0,0.0,0.0,0.0,0.0,0.0,0.0,0.0,0.0,0.0,0.0,0.0,0.0,0.0,0.0,0.0,0.0,0.6811,0.667,0.639,0.0,0.0,0.0,0.0,0.0,0.0,0.0,0.0,0.0,0.0,0.0,0.0,0.0,0.0,0.0,0.0,0.0,0.0,0.0,0.0,0.0,0.0,0.0,0.0,0.0,0.0,0.0,0.0,0.0,0.0,0.0,0.0,0.0,0.0,0.0,0.0,0.0,0.0,0.0,0.0,0.0,0.0,0.0,0.0,0.0,0.0,0.0,0.0,0.0,0.0,0.0,0.0,0.0,0.0,0.0,0.0,0.0,0.0,0.0,0.0,0.0,0.0,0.0,0.0,0.0,0.0,0.0,0.0,0.0,0.0,0.0,0.0,0.0,0.0,0.0,0.0,0.0,0.0,0.0,0.0,0.0,0.0,0.0,0.0,0.0,0.0,0.0,0.0,0.0,0.0,0.0,0.0,0.0,0.0,0.0,0.0,0.0,0.0,0.0,0.0,0.0,0.0,0.0,0.0,0.0,0.0,0.0,0.0,0.0,0.0,0.697,0.7825,0.7723,0.0,0.7276,0.0,0.0,0.0,0.0,0.0,0.0,0.0,0.0,0.0,0.0,0.0,0.0,0.0,0.0,0.0,0.0,0.0,0.0,0.0,0.0,0.0,0.0,0.0,0.0,0.0,0.0,0.0,0.0,0.0,0.0,0.0,0.0,0.0,0.0,0.0,0.0,0.0,0.0,0.0,0.0,0.0,0.0,0.0,0.0,0.0,0.0,0.0,0.0,0.0,0.0,0.0,0.0,0.0,0.0,0.0,0.0,0.0,0.0,0.0,0.0,0.0,0.0,0.0,0.0,0.0,0.0,0.0,0.0,0.0,0.0,0.0,0.0,0.0,0.0,0.0,0.0,0.0,0.0,0.0,0.0,0.0,0.0,0.0,0.0,0.0,0.0,0.0,0.0,0.0,0.0,0.0,0.0,0.0,0.0,0.0,0.0,0.0,0.0,0.0,0.0,0.0,0.0,0.0,0.0,0.0,0.0,0.0,0.0,0.0,0.0,0.7905,0.8232,0.804,0.7701,0.0,0.0,0.0,0.0,0.0,0.0,0.0,0.0,0.0,0.0,0.0,0.0,0.0,0.0,0.0,0.0,0.0,0.0,0.0,0.0,0.0,0.0,0.0,0.0,0.0,0.0,0.0,0.0,0.0,0.0,0.0,0.0,0.0,0.0,0.0,0.0,0.0,0.0,0.0,0.0,0.0,0.0,0.0,0.0,0.0,0.0,0.0,0.0,0.0,0.0,0.0,0.0,0.0,0.0,0.0,0.0,0.0,0.0,0.0,0.0,0.0,0.0,0.0,0.0,0.0,0.0,0.0,0.0,0.0,0.0,0.0,0.0,0.0,0.0,0.0,0.0,0.0,0.0,0.0,0.0,0.0,0.0,0.0,0.0,0.0,0.0,0.0,0.0,0.0,0.0,0.0,0.0,0.0,0.0,0.0,0.0,0.0,0.0,0.0,0.0,0.0,0.0,0.0,0.0,0.0,0.0,0.0,0.0,0.0,0.0,0.8363,0.8671,0.8834,0.845,0.7917,0.7296,0.0,0.0,0.0,0.0,0.0,0.0,0.0,0.0,0.0,0.0,0.0,0.0,0.0,0.0,0.0,0.0,0.0,0.0,0.0,0.0,0.0,0.0,0.0,0.0,0.0,0.0,0.0,0.0,0.0,0.0,0.0,0.0,0.0,0.0,0.0,0.0,0.0,0.0,0.0,0.0,0.0,0.0,0.0,0.0,0.0,0.0,0.0,0.0,0.0,0.0,0.0,0.0,0.0,0.0,0.0,0.0,0.0,0.0,0.0,0.0,0.0,0.0,0.0,0.0,0.0,0.0,0.0,0.0,0.0,0.0,0.0,0.0,0.0,0.0,0.0,0.0,0.0,0.0,0.0,0.0,0.0,0.0,0.0,0.0,0.0,0.0,0.0,0.0,0.0,0.0,0.0,0.0,0.0,0.0,0.0,0.0,0.0,0.0,0.0,0.0,0.0,0.0,0.0,0.0,0.0,0.0,0.0,0.0,0.9881,0.902,0.9002,0.9951,0.9202,0.8411,0.0,0.0,0.0,0.0,0.0,0.0,0.0,0.0,0.0,0.0,0.0,0.0,0.0,0.0,0.0,0.0,0.0,0.0,0.0,0.0,0.0,0.0,0.0,0.0,0.0,0.0,0.0,0.0,0.0,0.0,0.0,0.0,0.0,0.0,0.0,0.0,0.0,0.0,0.0,0.0,0.0,0.0,0.0,0.0,0.0,0.0,0.0,0.0,0.0,0.0,0.0,0.0,0.0,0.0,0.0,0.0,0.0,0.0,0.0,0.0,0.0,0.0,0.0,0.0,0.0,0.0,0.0,0.0,0.0,0.0,0.0,0.0,0.0,0.0,0.0,0.0,0.0,0.0,0.0,0.0,0.0,0.0,0.0,0.0,0.0,0.0,0.0,0.0,0.0,0.0,0.0,0.0,0.0,0.0,0.0,0.0,0.0,0.0,0.0,0.0,0.0,0.0,0.0,0.0,0.0,0.0,0.0,0.0,0.0,0.8352,0.8408,0.9055,1.0288,0.8925,0.807,0.0,0.0,0.0,0.0,0.0,0.0,0.0,0.0,0.0,0.0,0.0,0.0,0.0,0.0,0.0,0.0,0.0,0.0,0.0,0.0,0.0,0.0,0.0,0.0,0.0,0.0,0.0,0.0,0.0,0.0,0.0,0.0,0.0,0.0,0.0,0.0,0.0,0.0,0.0,0.0,0.0,0.0,0.0,0.0,0.0,0.0,0.0,0.0,0.0,0.0,0.0,0.0,0.0,0.0,0.0,0.0,0.0,0.0,0.0,0.0,0.0,0.0,0.0,0.0,0.0,0.0,0.0,0.0,0.0,0.0,0.0,0.0,0.0,0.0,0.0,0.0,0.0,0.0,0.0,0.0,0.0,0.0,0.0,0.0,0.0,0.0,0.0,0.0,0.0,0.0,0.0,0.0,0.0,0.0,0.0,0.0,0.0,0.0,0.0,0.0,0.0,0.0,0.0,0.0,0.0,0.0,0.0,0.0,0.0,0.8276,0.0,0.9668,1.0338,0.8818,0.7803,0.0,0.0,0.0,0.0,0.0,0.0,0.0,0.0,0.0,0.0,0.0,0.0,0.0,0.0,0.0,0.0,0.0,0.0,0.0,0.0,0.0,0.0,0.0,0.0,0.0,0.0,0.0,0.0,0.0,0.0,0.0,0.0,0.0,0.0,0.0,0.0,0.0,0.0,0.0,0.0,0.0,0.0,0.0,0.0,0.0,0.0,0.0,0.0,0.0,0.0,0.0,0.0,0.0,0.0,0.0,0.0,0.0,0.0,0.0,0.0,0.0,0.0,0.0,0.0,0.0,0.0,0.0,0.0,0.0,0.0,0.0,0.0,0.0,0.0,0.0,0.0,0.0,0.0,0.0,0.0,0.0,0.0,0.0,0.0,0.0,0.0,0.0,0.0,0.0,0.0,0.0,0.0,0.0,0.0,0.0,0.0,0.0,0.0,0.0,0.0,0.0,0.0,0.0,0.0,0.0,0.0,0.0,0.0,0.8224,0.9962,1.0629,1.0614,1.0103,0.9005,0.77,0.0,0.0,0.0,0.0,0.0,0.0,0.0,0.0,0.0,0.0,0.0,0.0,0.0,0.0,0.0,0.0,0.0,0.0,0.0,0.0,0.0,0.0,0.0,0.0,0.0,0.0,0.0,0.0,0.0,0.0,0.0,0.0,0.0,0.0,0.0,0.0,0.0,0.0,0.0,0.0,0.0,0.0,0.0,0.0,0.0,0.0,0.0,0.0,0.0,0.0,0.0,0.0,0.0,0.0,0.0,0.0,0.0,0.0,0.0,0.0,0.0,0.0,0.0,0.0,0.0,0.0,0.0,0.0,0.0,0.0,0.0,0.0,0.0,0.0,0.0,0.0,0.0,0.0,0.0,0.0,0.0,0.0,0.0,0.0,0.0,0.0,0.0,0.0,0.0,0.0,0.0,0.0,0.0,0.0,0.0,0.0,0.0,0.0,0.0,0.0,0.0,0.0,0.0,0.0,0.0,0.0,0.0,0.0,0.0,0.8992,0.9029,0.9466,1.0253,0.8208,0.7193,0.0,0.0,0.0,0.0,0.0,0.0,0.0,0.0,0.0,0.0,0.0,0.0,0.0,0.0,0.0,0.0,0.0,0.0,0.0,0.0,0.0,0.0,0.0,0.0,0.0,0.0,0.0,0.0,0.0,0.0,0.0,0.0,0.0,0.0,0.0,0.0,0.0,0.0,0.0,0.0,0.0,0.0,0.0,0.0,0.0,0.0,0.0,0.0,0.0,0.0,0.0,0.0,0.0,0.0,0.0,0.0,0.0,0.0,0.0,0.0,0.0,0.0,0.0,0.0,0.0,0.0,0.0,0.0,0.0,0.0,0.0,0.0,0.0,0.0,0.0,0.0,0.0,0.0,0.0,0.0,0.0,0.0,0.0,0.0,0.0,0.0,0.0,0.0,0.0,0.0,0.0,0.0,0.0,0.0,0.0,0.0,0.0,0.0,0.0,0.0,0.0,0.0,0.0,0.0,0.0,0.0,0.0,0.0,0.0,0.9976,0.9843,1.0065,1.0665,0.8626,0.7587,0.7754,0.0,0.0,0.0,0.0,0.0,0.0,0.0,0.0,0.0,0.0,0.0,0.0,0.0,0.0,0.0,0.0,0.0,0.0,0.0,0.0,0.0,0.0,0.0,0.0,0.0,0.0,0.0,0.0,0.0,0.0,0.0,0.0,0.0,0.0,0.0,0.0,0.0,0.0,0.0,0.0,0.0,0.0,0.0,0.0,0.0,0.0,0.0,0.0,0.0,0.0,0.0,0.0,0.0,0.0,0.0,0.0,0.0,0.0,0.0,0.0,0.0,0.0,0.0,0.0,0.0,0.0,0.0,0.0,0.0,0.0,0.0,0.0,0.0,0.0,0.0,0.0,0.0,0.0,0.0,0.0,0.0,0.0,0.0,0.0,0.0,0.0,0.0,0.0,0.0,0.0,0.0,0.0,0.0,0.0,0.0,0.0,0.0,0.0,0.0,0.0,0.0,0.0,0.0,0.0,0.0,0.0,0.0,0.0,1.2435,1.2577,1.2132,1.1141,0.9966,0.8669,0.0,0.0,0.0,0.0,0.0,0.0,0.0,0.0,0.0,0.0,0.0,0.0,0.0,0.0,0.0,0.0,0.0,0.0,0.0,0.0,0.0,0.0,0.0,0.0,0.0,0.0,0.0,0.0,0.0,0.0,0.0,0.0,0.0,0.0,0.0,0.0,0.0,0.0,0.0,0.0,0.0,0.0,0.0,0.0,0.0,0.0,0.0,0.0,0.0,0.0,0.0,0.0,0.0,0.0,0.0,0.0,0.0,0.0,0.0,0.0,0.0,0.0,0.0,0.0,0.0,0.0,0.0,0.0,0.0,0.0,0.0,0.0,0.0,0.0,0.0,0.0,0.0,0.0,0.0,0.0,0.0,0.0,0.0,0.0,0.0,0.0,0.0,0.0,0.0,0.0,0.0,0.0,0.0,0.0,0.0,0.0,0.0,0.0,0.0,0.0,0.0,0.0,0.0,0.0,0.0,0.0,0.0,0.0,0.0,1.1931,1.2768,1.2927,1.2382,1.0223,0.8683,0.0,0.0,0.0,0.0,0.0,0.0,0.0,0.0,0.0,0.0,0.0,0.0,0.0,0.0,0.0,0.0,0.0,0.0,0.0,0.0,0.0,0.0,0.0,0.0,0.0,0.0,0.0,0.0,0.0,0.0,0.0,0.0,0.0,0.0,0.0,0.0,0.0,0.0,0.0,0.0,0.0,0.0,0.0,0.0,0.0,0.0,0.0,0.0,0.0,0.0,0.0,0.0,0.0,0.0,0.0,0.0,0.0,0.0,0.0,0.0,0.0,0.0,0.0,0.0,0.0,0.0,0.0,0.0,0.0,0.0,0.0,0.0,0.0,0.0,0.0,0.0,0.0,0.0,0.0,0.0,0.0,0.0,0.0,0.0,0.0,0.0,0.0,0.0,0.0,0.0,0.0,0.0,0.0,0.0,0.0,0.0,0.0,0.0,0.0,0.0,0.0,0.0,0.0,0.0,0.0,0.0,0.0,0.0,1.1489,1.2785,1.344,1.3609,1.3233,1.1329,0.9712,0.0,0.0,0.0,0.0,0.0,0.0,0.0,0.0,0.0,0.0,0.0,0.0,0.0,0.0,0.0,0.0,0.0,0.0,0.0,0.0,0.0,0.0,0.0,0.0,0.0,0.0,0.0,0.0,0.0,0.0,0.0,0.0,0.0,0.0,0.0,0.0,0.0,0.0,0.0,0.0,0.0,0.0,0.0,0.0,0.0,0.0,0.0,0.0,0.0,0.0,0.0,0.0,0.0,0.0,0.0,0.0,0.0,0.0,0.0,0.0,0.0,0.0,0.0,0.0,0.0,0.0,0.0,0.0,0.0,0.0,0.0,0.0,0.0,0.0,0.0,0.0,0.0,0.0,0.0,0.0,0.0,0.0,0.0,0.0,0.0,0.0,0.0,0.0,0.0,0.0,0.0,0.0,0.0,0.0,0.0,0.0,0.0,0.0,0.0,0.0,0.0,0.0,0.0,0.0,0.0,0.0,0.0,0.0,1.2464,1.3998,1.4163,1.4026,1.3608,1.2661,1.1134,0.0,0.0,0.0,0.0,0.0,0.0,0.0,0.0,0.0,0.0,0.0,0.0,0.0,0.0,0.0,0.0,0.0,0.0,0.0,0.0,0.0,0.0,0.0,0.0,0.0,0.0,0.0,0.0,0.0,0.0,0.0,0.0,0.0,0.0,0.0,0.0,0.0,0.0,0.0,0.0,0.0,0.0,0.0,0.0,0.0,0.0,0.0,0.0,0.0,0.0,0.0,0.0,0.0,0.0,0.0,0.0,0.0,0.0,0.0,0.0,0.0,0.0,0.0,0.0,0.0,0.0,0.0,0.0,0.0,0.0,0.0,0.0,0.0,0.0,0.0,0.0,0.0,0.0,0.0,0.0,0.0,0.0,0.0,0.0,0.0,0.0,0.0,0.0,0.0,0.0,0.0,0.0,0.0,0.0,0.0,0.0,0.0,0.0,0.0,0.0,0.0,0.0,0.0,0.0,0.0,0.0,0.0,0.0,1.2144,1.2924,1.3477,1.3531,1.3073,1.2194,1.0993,0.0,0.0,0.0,0.0,0.0,0.0,0.0,0.0,0.0,0.0,0.0,0.0,0.0,0.0,0.0,0.0,0.0,0.0,0.0,0.0,0.0,0.0,0.0,0.0,0.0,0.0,0.0,0.0,0.0,0.0,0.0,0.0,0.0,0.0,0.0,0.0,0.0,0.0,0.0,0.0,0.0,0.0,0.0,0.0,0.0,0.0,0.0,0.0,0.9156,0.0,0.0,0.0,0.0,0.0,0.0,0.0,0.0,0.0,0.0,0.0,0.0,0.0,0.0,0.0,0.0,0.0,0.0,0.0,0.0,0.0,0.0,0.0,0.0,0.0,0.0,0.0,0.0,0.0,0.0,0.0,0.0,0.0,0.0,0.0,0.0,0.0,0.0,0.0,0.0,0.0,0.0,0.0,0.0,0.0,0.0,0.0,0.0,0.0,0.0,0.0,0.0,0.0,0.0,0.0,0.0,0.0,0.0,0.0,1.2971,1.3031,1.3849,1.3964,1.3249,1.2379,1.1261,0.0,0.0,0.0,0.0,0.0,0.0,0.0,0.0,0.0,0.0,0.0,0.0,0.0,0.0,0.0,0.0,0.0,0.0,0.0,0.0,0.0,0.0,0.0,0.0,0.0,0.0,0.0,0.0,0.0,0.0,0.0,0.0,0.0,0.0,0.0,0.0,0.0,0.0,0.0,0.0,0.0,0.0,0.0,0.0,0.0,0.0,0.0,0.0,0.0,0.0,0.0,0.0,0.0,0.0,0.0,0.0,0.0,0.0,0.0,0.0,0.0,0.0,0.0,0.0,0.0,0.0,0.0,0.0,0.0,0.0,0.0,0.0,0.0,0.0,0.0,0.0,0.0,0.0,0.0,0.0,0.0,0.0,0.0,0.0,0.0,0.0,0.0,0.0,0.0,0.0,0.0,0.0,0.0,0.0,0.0,0.0,0.0,0.0,0.0,0.0,0.0,0.0,0.0,0.0,0.0,0.0,0.0,1.2916,1.3912,1.3685,1.4508,1.4547,1.3612,1.2763,1.1664,1.0345,0.0,0.0,0.0,0.0,0.0,0.0,0.0,0.0,0.0,0.0,0.0,0.0,0.0,0.0,0.0,0.0,0.0,0.0,0.0,0.0,0.0,0.0,0.0,0.0,0.0,0.0,0.0,0.0,0.0,0.0,0.0,0.0,0.0,0.0,0.0,0.0,0.0,0.0,0.9861,1.1077,0.0,0.0,0.0,0.0,0.0,0.0,0.0,0.0,1.0044,0.0,0.0,0.0,0.0,0.0,0.0,0.0,0.0,0.0,0.0,0.0,0.0,0.0,0.0,0.0,0.0,0.0,0.0,0.0,0.0,0.0,0.0,0.0,0.0,0.0,0.0,0.0,0.0,0.0,0.0,0.0,0.0,0.0,0.0,0.0,0.0,0.0,0.0,0.0,0.0,0.0,0.0,0.0,0.0,0.0,0.0,0.0,0.0,0.0,0.0,0.0,0.0,0.0,0.0,0.0,0.0,1.2672,1.3201,1.3674,1.4165,1.4383,1.4222,1.3612,1.2753,1.183,1.0787,0.0,0.0,0.0,0.0,0.0,0.0,0.0,0.0,0.0,0.0,0.0,0.0,0.0,0.0,0.0,0.0,0.0,0.0,0.0,0.0,0.0,0.0,0.0,0.0,0.0,0.0,0.0,0.0,0.0,0.0,0.0,0.0,0.0,0.0,0.0,0.0,0.0,0.0,0.0,1.1877,1.2417,0.0,0.0,0.0,0.0,0.0,0.0,0.0,0.0,1.0467,0.0,0.0,0.0,0.0,0.0,0.0,0.0,0.0,0.0,0.0,0.0,0.0,0.0,0.0,0.0,0.0,0.0,0.0,0.0,0.0,0.0,0.0,0.0,0.0,0.0,0.0,0.0,0.0,0.0,0.0,0.0,0.0,0.0,0.0,0.0,0.0,0.0,0.0,0.0,0.0,0.0,0.0,0.0,0.0,0.0,0.0,0.0,0.0,0.0,0.0,0.0,0.0,0.0,0.0,0.0,1.199,1.2981,1.3615,1.3935,1.4241,1.414,1.3612,1.2514,1.1623,0.0,0.0,0.0,0.0,0.0,0.0,0.0,0.0,0.0,0.0,0.0,0.0,0.0,0.0,0.0,0.0,0.0,0.0,0.0,0.0,0.0,0.0,0.0,0.0,0.0,0.0,0.0,0.0,0.0,0.0,0.0,0.0,0.0,0.0,0.0,0.0,0.0,0.0,0.0,0.0,1.2838,1.3174,1.3033,0.0,0.0,0.0,0.0,0.0,0.0,1.1158,1.0797,0.0,0.0,0.0,0.0,0.0,0.0,0.0,0.0,0.0,0.0,0.0,0.0,0.0,0.0,0.0,0.0,0.0,0.0,0.0,0.0,0.0,0.0,0.0,0.0,0.0,0.0,0.0,0.0,0.0,0.0,0.0,0.0,0.0,0.0,0.0,0.0,0.0,0.0,0.0,0.0,0.0,0.0,0.0,0.0,0.0,0.0,0.0,0.0,0.0,0.0,0.0,0.0,0.0,0.0,0.0,1.1288,1.2708,1.3527,1.3749,1.4175,1.414,1.3601,1.2389,1.1478,0.0,0.0,0.0,0.0,0.0,0.0,0.0,0.0,0.0,0.0,0.0,0.0,0.0,0.0,0.0,0.0,0.0,0.0,0.0,0.0,0.0,0.0,0.0,0.0,0.0,0.0,0.0,0.0,0.0,0.0,0.0,0.0,0.0,0.0,0.0,0.0,0.0,0.0,0.0,0.0,0.0,1.4014,1.3696,1.2701,0.0,0.0,0.0,0.0,1.2317,1.1944,0.0,0.0,0.0,0.0,0.0,0.0,0.0,0.0,0.0,0.0,0.0,0.0,0.0,0.0,0.0,0.0,0.0,0.0,0.0,0.0,0.0,0.0,0.0,0.0,0.0,0.0,0.0,0.0,0.0,0.0,0.0,0.0,0.0,0.0,0.0,0.0,0.0,0.0,0.0,0.0,0.0,0.0,0.0,0.0,0.0,0.0,0.0,0.0,0.0,0.0,0.0,0.0,0.0,0.0,0.0,0.0,1.2221,1.2648,1.3286,1.425,1.4384,1.4151,1.3612,1.2711,1.1809,0.0,0.0,0.0,0.0,0.0,0.0,0.0,0.0,0.0,0.0,0.0,0.0,0.0,0.0,0.0,0.0,0.0,0.0,0.0,0.0,0.0,0.0,0.0,0.0,0.0,0.0,0.0,0.0,0.0,0.0,0.0,0.0,0.0,0.0,0.0,0.0,0.0,0.0,0.0,0.0,0.0,1.5085,1.3717,1.3428,1.3226,0.0,0.0,1.3173,1.2874,1.3433,0.0,0.0,0.0,0.0,0.0,0.0,0.0,0.0,0.0,0.0,0.0,0.0,0.0,0.0,0.0,0.0,0.0,0.0,0.0,0.0,0.0,0.0,0.0,0.0,0.0,0.0,0.0,0.0,0.0,0.0,0.0,0.0,0.0,0.0,0.0,0.0,0.0,0.0,0.0,0.0,0.0,0.0,0.0,0.0,0.0,0.0,0.0,0.0,0.0,0.0,0.0,0.0,0.0,0.0,0.0,0.9742,1.1741,1.2251,1.2947,1.3911,1.3952,1.3846,1.361,1.2503,1.1467,0.0,0.0,0.0,0.0,0.0,0.0,0.0,0.0,0.0,0.0,0.0,0.0,0.0,0.0,0.0,0.0,0.0,0.0,0.0,0.0,0.0,0.0,0.0,0.0,0.0,0.0,0.0,0.0,0.0,0.0,0.0,0.0,0.0,0.0,0.0,0.0,0.0,0.0,0.0,0.0,0.0,0.0,1.4798,1.4113,0.0,0.0,0.0,1.4,1.4074,0.0,0.0,0.0,0.0,0.0,0.0,0.0,0.0,0.0,0.0,0.0,0.0,0.0,0.0,0.0,0.0,0.0,0.0,0.0,0.0,0.0,0.0,0.0,0.0,0.0,0.0,0.0,0.0,0.0,0.0,0.0,0.0,0.0,0.0,0.0,0.0,0.0,0.0,0.0,0.0,0.0,0.0,0.0,0.0,0.0,0.0,0.0,0.0,0.0,0.0,0.0,0.0,0.0,0.0,0.0,0.0,0.0,1.1257,1.1963,1.2722,1.3567,1.361,1.361,1.3578,1.241,0.0,0.0,0.0,0.0,0.0,0.0,0.0,0.0,0.0,0.0,0.0,0.0,0.0,0.0,0.0,0.0,0.0,0.0,0.0,0.0,0.0,0.0,0.0,0.0,0.0,0.0,0.0,0.6944,0.0,0.0,0.0,0.0,0.0,0.0,0.0,0.0,0.0,0.0,0.0,0.0,0.0,0.0,1.513,1.568,1.4876,1.4478,0.0,0.0,1.4653,1.5002,1.4845,1.417,0.0,0.0,0.0,0.0,0.0,0.0,0.0,0.0,0.0,0.0,0.0,0.0,0.0,0.0,0.0,0.0,0.0,0.0,0.0,0.0,0.0,0.0,0.0,0.0,0.0,0.0,0.0,0.0,0.0,0.0,0.0,0.0,0.0,0.0,0.0,0.0,0.0,0.0,0.0,0.0,0.0,0.0,0.0,0.0,0.0,0.0,0.0,0.0,0.0,0.0,0.0,0.0,0.0,0.0,0.9435,1.1237,1.1963,1.2722,1.3579,1.361,1.361,1.3588,1.2721,1.182,0.0,0.0,0.0,0.0,0.0,0.0,0.0,0.0,0.0,0.0,0.0,0.0,0.0,0.0,0.0,0.0,0.0,0.0,0.0,0.0,0.0,0.0,0.0,0.0,0.0,0.0,0.0,0.0,0.0,0.0,0.0,0.0,0.0,0.0,0.0,0.0,0.0,0.0,0.0,0.0,0.0,1.6606,1.5736,1.5789,1.595,0.0,1.5515,1.5156,1.5176,1.5522,1.5086,1.3005,0.0,0.0,0.0,0.0,0.0,0.0,0.0,0.0,0.0,0.0,0.0,0.0,0.0,0.0,0.0,0.0,0.0,0.0,0.0,0.0,0.0,0.0,0.0,0.0,0.0,0.0,0.0,0.0,0.0,0.0,0.0,0.0,0.0,0.0,0.0,0.0,0.0,0.0,0.0,0.0,0.0,0.0,0.0,0.0,0.0,0.0,0.0,0.0,0.0,0.0,0.0,0.0,0.0,0.9348,1.1028,1.1871,1.2722,1.3557,1.361,1.361,1.361,1.2742,1.1861,0.0,0.0,0.0,0.0,0.0,0.0,0.0,0.0,0.0,0.0,0.0,0.0,0.0,0.0,0.0,0.0,0.0,0.0,0.0,0.0,0.0,0.0,0.0,0.0,0.0,0.0,0.0,0.0,0.7864,0.8222,0.9172,0.0,0.0,0.0,0.0,0.0,0.0,0.0,0.0,0.0,0.0,1.6163,1.6695,1.6525,0.0,0.0,1.6397,1.6088,1.5162,1.551,1.5005,1.2392,1.1801,0.0,0.0,0.0,0.0,0.0,0.0,0.0,0.0,0.0,0.0,0.0,0.0,0.0,0.0,0.0,0.0,0.0,0.0,0.0,0.0,0.0,0.0,0.0,0.0,0.0,0.0,0.0,0.0,0.0,0.0,0.0,0.0,0.0,0.0,0.0,0.0,0.0,0.0,0.0,0.0,0.0,0.0,0.0,0.0,0.0,0.0,0.0,0.0,0.0,0.0,0.0,0.0,0.9361,1.089,1.1944,1.2856,1.3576,1.361,1.361,1.3589,1.2876,1.1984,0.0,0.0,0.0,0.0,0.0,0.0,0.0,0.0,0.0,0.0,0.0,0.0,0.0,0.0,0.0,0.0,0.0,0.0,0.0,0.0,0.0,0.0,0.0,0.0,0.0,0.0,0.0,0.0,0.8603,0.885,0.9365,0.0,0.0,0.0,0.0,0.0,0.0,0.0,0.0,0.0,0.0,1.6444,1.7474,1.7073,1.6742,1.7002,1.6667,1.6076,1.5149,1.5206,1.4479,1.2021,0.0,0.0,0.0,0.0,0.0,0.0,0.0,0.0,0.0,0.0,0.0,0.0,0.0,0.0,0.0,0.0,0.0,0.0,0.0,0.0,0.0,0.0,0.0,0.0,0.0,0.0,0.0,0.6294,0.0,0.0,0.6285,0.0,0.0,0.0,0.0,0.0,0.0,0.0,0.0,0.0,0.0,0.0,0.0,0.0,0.0,0.0,0.0,0.0,0.0,0.0,0.0,0.0,0.0,0.9559,1.091,1.2202,1.3111,1.3588,1.361,1.3586,1.3586,1.3132,1.2274,1.0991,0.0,0.0,0.0,0.0,0.0,0.0,0.0,0.0,0.0,0.0,0.0,0.0,0.0,0.0,0.0,0.0,0.0,0.0,0.0,0.0,0.0,0.0,0.0,0.0,0.0,0.0,0.8596,0.915,0.9325,0.0,0.0,0.0,0.0,0.0,0.0,0.0,0.0,0.0,1.5647,1.6959,1.7828,1.7823,1.735,1.7226,1.8044,1.6166,1.4758,1.517,1.4582,1.3538,0.0,0.0,0.0,0.0,0.0,0.0,0.0,0.0,0.0,0.0,0.0,0.0,0.0,0.0,0.0,0.0,0.0,0.0,0.0,0.0,0.0,0.0,0.0,0.0,0.0,0.0,0.0,0.7494,0.6953,0.0,0.0,0.0,0.0,0.0,0.0,0.0,0.0,0.0,0.0,0.0,1.157,1.1148,0.0,0.0,0.0,0.0,0.0,0.0,0.0,0.0,0.0,0.0,0.0,0.0,0.9979,1.1343,1.2389,1.3121,1.36,1.361,1.3432,1.3064,1.2648,1.1514,0.9598,0.0,0.0,0.0,0.0,0.0,0.0,0.0,0.0,0.0,0.0,0.0,0.0,0.0,0.0,0.0,0.0,0.0,0.0,0.0,0.0,0.0,0.0,0.0,0.0,0.0,0.808,0.0,0.0,0.0,0.0,0.0,0.0,0.0,0.0,0.0,0.0,0.0,1.5182,1.5604,1.6154,1.6459,1.6326,1.6199,1.6146,0.0,0.0,0.0,0.0,0.0,0.0,0.0,0.0,0.0,0.0,0.0,0.0,0.0,0.0,1.1587,1.0617,1.0184,0.9755,0.9099,0.0,0.0,0.0,0.0,0.0,0.0,0.0,0.0,0.0,0.0,0.0,0.0,0.0,0.0,0.8162,0.0,0.7448,0.0,0.0,0.0,0.0,0.0,0.0,0.0,0.0,1.1184,1.1888,1.2504,1.2105,1.1937,0.0,1.1124,1.0205,0.0,0.0,0.0,0.0,0.0,0.0,0.0,0.0,1.0286,1.1437,1.221,1.2805,1.3211,1.3117,1.2868,1.2521,1.1976,1.0931,0.9351,0.9114,0.8481,0.0,0.0,0.0,0.0,0.0,0.0,0.0,0.0,0.0,0.0,0.0,0.0,0.0,0.0,0.0,0.0,0.0,0.0,0.0,0.0,0.0,0.0,0.0,0.8649,0.0,0.0,0.0,0.0,0.0,0.0,0.0,0.0,0.0,1.5146,1.5415,1.5599,1.5946,1.5844,1.577,1.5757,0.0,0.0,0.0,0.0,0.0,0.0,0.0,1.3715,1.2824,1.2944,1.3046,1.2774,1.3021,1.3117,1.2735,0.0,0.0,1.1373,1.0798,1.0206,0.9584,0.9359,0.9153,0.8722,0.8591,0.8707,0.0,0.0,0.0,0.0,0.0,0.0,0.0,0.0,0.8744,0.8838,0.0,0.8342,0.0,0.0,0.0,0.0,0.0,0.9982,0.0,0.0,1.2096,1.286,1.2491,1.2856,1.2829,1.2469,1.2784,1.2274,1.0927,0.8861,0.0,0.0,0.0,0.0,0.0,0.0,1.049,1.1233,1.1789,1.224,1.2609,1.2258,1.2045,1.1989,1.1169,1.0563,1.018,0.9677,0.8868,0.7737,0.7904,0.0,0.0,0.0,0.0,0.0,0.0,0.0,0.0,0.0,0.0,0.0,0.0,0.0,0.0,0.0,0.0,0.0,0.0,0.0,0.0,0.9284,0.0,0.0,0.0,0.0,0.0,0.0,0.0,0.0,0.0,0.0,1.5527,1.5743,1.6008,1.6538,0.0,0.0,0.0,0.0,1.5702,1.6057,1.5217,1.4531,1.4569,1.4221,1.3718,1.3099,0.0,0.0,1.33,1.291,1.2514,1.1843,1.1685,1.1722,1.2208,1.1143,1.0212,1.0088,0.9258,0.8647,0.9075,0.8855,0.876,1.041,0.0,0.0,0.0,0.0,1.055,1.0737,1.1083,1.0883,1.0538,1.0085,0.9795,0.0,0.0,0.0,0.0,0.0,0.0,1.1389,1.1843,1.2472,1.2963,1.3359,1.2787,1.2638,1.2814,1.224,1.1749,1.1325,1.047,0.9535,0.8559,0.0,0.0,0.0,0.0,1.1154,1.1698,1.2411,1.2846,1.2955,1.2846,1.2493,1.1883,1.1243,1.0619,1.0002,0.983,0.9481,0.8912,0.8249,0.0,0.0,0.0,0.0,0.0,0.0,0.0,0.0,0.0,0.0,0.0,0.0,0.0,0.0,0.0,0.0,0.0,0.0,0.0,0.9471,0.9802,0.9877,0.0,0.0,0.0,0.0,0.0,0.0,0.0,0.0,0.0,1.5527,1.5734,1.5722,0.0,0.0,1.5383,1.4733,1.4728,1.4858,1.4969,1.471,0.0,1.4516,1.366,1.3042,1.3118,1.3018,1.2875,1.2734,1.2616,1.2463,1.2095,1.1488,1.1094,1.1204,1.125,1.0969,1.0543,1.0055,0.954,0.9063,0.8913,0.8992,1.1257,1.1275,1.0814,1.0894,1.1321,1.1129,1.1291,1.1702,1.1662,1.1514,1.1288,1.1244,1.1039,1.0735,1.0837,0.0,0.0,0.0,1.2005,1.2441,1.2344,1.2537,1.2951,1.2393,1.2256,1.2491,1.2157,1.1919,1.1795,1.1672,1.1,0.9795,0.0,0.0,0.9948,1.0862,1.1557,1.1932,1.2278,1.2546,1.2656,1.2546,1.2214,1.1707,1.1363,1.0931,1.0362,1.0338,1.0111,0.9626,0.8968,0.8337,0.0,0.0,0.0,0.0,0.0,0.0,0.0,0.0,0.0,0.0,0.0,0.7044,0.6072,0.0,0.0,0.0,0.8316,0.9459,1.0352,1.0419,0.0,0.0,0.0,0.0,0.0,0.0,0.0,1.3586,1.4403,1.5072,1.5474,1.5483,1.5458,1.5485,1.5319,1.4964,1.4428,0.0,1.4536,1.4205,1.4337,1.4288,1.3824,1.3415,1.3011,1.2453,1.2354,1.2294,1.2371,1.2081,1.1752,1.1541,1.0904,1.0325,1.0323,1.0583,1.0671,1.0187,0.9958,0.963,0.9021,0.8996,0.9096,1.1734,1.1686,1.1088,1.0853,1.0876,1.0876,1.0891,1.0923,1.1477,1.1891,1.2189,1.2429,1.2531,1.2522,1.2417,0.0,1.1998,1.2373,1.24,1.2161,1.1896,1.1819,1.1819,1.1812,1.1819,1.1812,1.2376,1.2465,1.2188,1.2405,1.2185,1.154,1.1274,1.1288,1.1555,1.1592,1.174,1.1989,1.174,1.1756,1.2028,1.1749,1.1573,1.1549,1.1517,1.1342,1.101,1.0971,1.0653,1.0002,0.9919,0.9292,0.8,0.0,0.0,0.0,0.0,0.0,0.0,0.0,0.0,0.0,0.0,0.0,0.0,0.0,0.0,0.8579,0.9739,0.0,1.11,1.1052,0.0,0.0,0.0,1.195,1.2703,1.38,1.4575,1.4741,0.0,0.0,1.5472,1.5166,1.5244,1.5909,1.5167,1.4643,1.4835,1.4831,1.4567,1.372,1.3969,1.3883,1.2979,1.3177,1.2903,1.1414,1.1594,1.1863,1.1836,1.1234,1.0663,1.0624,1.0062,0.9636,0.962,0.9678,0.953,0.9415,0.9281,0.9168,0.9153,0.9165,0.9173,1.1266,1.1253,1.1093,1.1233,1.1578,1.1571,1.1561,1.1571,1.1721,1.183,1.191,1.1973,1.1988,1.1988,1.1959,1.1906,1.1848,1.194,1.1961,1.1884,1.1835,1.1819,1.1819,1.1819,1.1819,1.1819,1.1938,1.1971,1.1893,1.1964,1.1893,1.1726,1.1657,1.1465,1.1172,1.1644,1.1946,1.1997,1.2225,1.2375,1.244,1.2383,1.2185,1.1892,1.163,1.1336,1.101,1.0754,1.0544,1.0368,1.0055,0.9623,0.904,0.7863,0.0,0.0,0.0,0.0,0.0,0.0,0.0,0.0,0.0,0.8897,0.6718,0.0,0.9925,0.0,0.9794,1.1103,1.1516,1.1213,0.0,0.0,1.2863,1.3131,1.364,1.4175,1.4429,1.4283,1.4746,1.5297,1.5874,1.5783,1.5525,1.5187,1.5148,1.5044,1.4618,1.4516,1.4246,1.3514,1.3278,1.3144,1.2795,1.2087,1.1238,1.0231,1.0082,1.0116,1.0217,1.0064,0.9873,0.9853,0.9739,0.9624,0.9599,0.9599,0.9608,0.953,0.9498,0.9478,0.9478,0.9494,0.9494,1.0971,1.1442,1.1328,1.1502,1.1837,1.1595,1.1485,1.152,1.1768,1.1892,1.1916,1.2174,1.2287,1.2287,1.2287,1.2305,1.2262,1.2016,1.1899,1.1874,1.1602,1.1485,1.1502,1.1478,1.1485,1.1502,1.1751,1.1807,1.1697,1.194,1.1992,1.1819,1.1819,1.165,1.1382,1.1741,1.192,1.192,1.2233,1.2562,1.2814,1.2678,1.2408,1.2013,1.1648,1.1312,1.0997,1.0666,1.0381,1.0252,1.0021,0.9727,0.9313,0.8281,0.7508,0.0,0.0,0.0,0.0,0.0,0.0,0.0,0.0,0.0,0.0,0.0,1.0534,0.9626,1.0898,1.1967,1.2447,1.2421,1.2685,1.3519,1.3766,1.4016,1.4374,1.4572,1.4514,1.4116,1.4414,1.4647,1.4581,1.4659,1.4537,1.4033,1.4146,1.4213,1.3983,1.3932,1.3582,1.2711,1.2493,1.2262,1.19,1.0929,1.0133,0.976,0.9571,0.9535,0.9583,0.9599,0.9599,0.9599,0.9599,0.9599,0.9599,0.9599,0.9599,0.9599,0.9599,0.9599,0.9599,0.9599,0.9599,1.0606,1.151,1.1294,1.1335,1.1518,1.1043,1.097,1.1184,1.1708,1.1951,1.202,1.2548,1.2778,1.2771,1.2771,1.2771,1.2734,1.2213,1.2002,1.1964,1.1403,1.1147,1.1147,1.1105,1.1117,1.113,1.1626,1.1732,1.147,1.1989,1.2059,1.172,1.1713,1.1713,1.1713,1.1713,1.1724,1.1802,1.2044,1.2437,1.2956,1.2625,1.228,1.1925,1.1486,1.1109,1.0831,1.042,1.0059,0.9787,0.972,0.9504,0.908,0.8466,0.8043,0.0,0.7299,0.0,0.0,0.0,0.0,0.0,0.0,0.0,0.0,0.9656,1.0558,1.1743,1.2453,1.305,1.3517,1.3833,1.3992,1.3947,1.42,1.445,1.4584,1.4642,1.449,1.4031,1.4145,1.3834,1.2886,1.3026,1.3201,1.29,1.2831,1.2837,1.2883,1.2951,1.2648,1.1605,1.1569,1.1326,1.0567,0.9957,0.9632,0.962,0.9612,0.9599,0.9599,0.9599,0.9599,0.9599,0.9599,0.9599,0.9599,0.9599,0.9599,0.9599,0.9599,0.9599,0.9599,0.9599,0.9599,0.9417,0.9613,0.9574,0.9579,0.9629,0.9526,1.0231,1.143,1.1551,1.1725,1.1921,1.2045,1.2085,1.2085,1.2085,1.2085,1.2085,1.1967,1.1927,1.1901,1.1591,1.143,1.1405,1.122,1.1117,1.1111,1.1223,1.1236,1.1181,1.1298,1.1304,1.1218,1.1236,1.1236,1.1236,0.0,0.0,0.0,1.1831,1.2035,1.2335,1.1882,1.16,1.1488,1.0763,0.0,0.9955,0.9394,0.9061,0.8997,0.8755,0.0,0.0,0.0,0.0,0.0,0.0,0.0,0.0,0.0,0.0,0.0,1.0147,1.0213,0.9832,1.0209,1.107,1.2468,1.3549,1.4056,1.3922,1.397,1.3911,1.3707,1.3723,1.3606,1.3189,1.3273,1.3498,1.396,1.37,1.3295,1.2766,1.3102,1.3029,1.2194,1.2083,1.1776,1.1076,1.152,1.1508,1.0791,1.0633,1.0364,0.9821,0.9677,0.9603,0.9599,0.9599,0.9579,0.9501,0.9501,0.9579,0.9525,0.9599,0.955,0.9575,0.9599,0.955,0.9599,0.9599,0.9599,0.9599,0.9599,0.9599,0.8962,0.0,0.9361,0.9375,0.0,0.9361,0.9752,1.0519,1.0871,1.1331,1.1906,1.1906,1.1906,1.1906,1.1906,1.1906,1.1906,1.1906,1.1906,1.1894,1.1748,1.1707,1.1707,1.1557,1.1207,1.0715,1.0696,1.0633,1.05,1.0494,1.0719,1.1099,1.1117,1.1117,1.1117,1.1117,1.1383,1.1886,1.1739,1.1764,1.1972,1.1611,1.1219,1.0859,1.0297,0.0,0.0,0.0,0.0,0.0,0.0,0.0,0.0,0.0,0.0,0.8062,0.8036,0.8101,0.8384,0.8804,0.9309,0.9911,1.05,1.0964,1.1204,1.1152,1.1729,1.3259,1.4332,1.4621,1.3911,1.3923,1.3817,1.3249,1.3256,1.3168,1.2923,1.3021,1.3137,1.3104,1.2854,1.2404,1.1842,1.1845,1.1684,1.1087,1.0959,1.0743,1.0207,1.0569,1.0741,1.0272,1.0019,0.985,0.9653,0.9599,0.9278,0.8817,0.8694,0.857,0.8095,0.8021,0.8024,0.8021,0.8021,0.8149,0.8701,0.88,0.8973,0.9451,0.9599,0.9599,0.9599,0.9599,0.9599,0.847,0.9387,0.9162,0.921,0.9387,0.9188,0.9164,0.9362,0.0,0.0,0.0,1.154,1.1566,1.1546,1.154,1.154,1.154,1.1546,1.1627,1.1769,1.1586,1.1563,1.1725,1.1511,1.0964,1.0115,1.009,0.9976,0.9773,0.9731,1.0046,1.0645,1.068,1.0681,1.0676,1.0812,1.113,1.1607,1.1496,1.1529,1.1726,1.1451,1.0952,1.0326,0.9991,0.9588,0.9039,0.8599,0.8169,0.7735,0.7639,0.7642,0.7705,0.7743,0.7984,0.8454,0.8747,0.8947,0.9041,0.9234,0.9532,0.9883,1.0568,1.1346,1.2172,1.2157,1.2548,1.3615,1.4434,1.4497,1.3543,1.3665,1.3491,1.2612,1.2641,1.2695,1.2582,1.2682,1.252,1.2062,1.1776,1.1418,1.0799,1.0531,1.024,1.0019,1.0019,0.9747,0.9501,0.9838,1.0096,0.9641,0.955,0.9505,0.9072,0.8924,0.8574,0.7564,0.7568,0.7372,0.6672,0.642,0.642,0.6595,0.642,0.6822,0.7546,0.7922,0.8273,0.9076,0.9402,0.9529,0.948,0.9451,0.9476,0.7188,0.7485,0.7442,0.7449,0.7489,0.7442,0.7891,0.8683,0.9345,0.9862,1.0181,1.0181,1.0181,1.0177,1.0181,1.0181,1.0198,1.0198,1.0594,1.1305,1.0311,1.0267,1.0975,0.9973,0.9421,0.9271,0.9271,0.9236,0.9189,0.9098,0.9111,0.9204,0.9091,0.9041,0.9098,0.9709,1.0105,1.0199,1.0833,1.1272,1.1525,1.1051,1.0656,1.0299,0.9815,0.9172,0.8372,0.8067,0.7729,0.7377,0.709,0.6939,0.6958,0.7194,0.7522,0.8051,0.8538,0.9053,0.955,0.9819,1.0201,1.0681,1.1112,1.1285,1.1187,1.2967,1.3635,1.2657,1.2897,1.3029,1.2859,1.2869,1.2605,1.1882,1.1761,1.1596,1.11,1.1016,1.0996,1.0853,1.0684,1.0531,1.0228,1.0068,0.9871,0.9702,0.9398,0.9249,0.8598,0.9097,0.9245,0.8648,0.9048,0.8751,0.7524,0.685,0.6722,0.6623,0.6573,0.6523,0.6199,0.6146,0.6121,0.6321,0.6146,0.6298,0.6598,0.7425,0.7726,0.7904,0.8457,0.8952,0.8751,0.8751,0.8949,0.6631,0.6719,0.6719,0.6811,0.6944,0.7054,0.7272,0.7599,0.7915,0.8758,0.9853,0.9901,0.9901,0.9901,0.9901,0.9901,0.9901,0.9901,1.0144,1.0486,0.9957,0.9931,1.0272,0.9776,0.923,0.8697,0.8672,0.8579,0.8455,0.8385,0.8584,0.8957,0.8767,0.8651,0.8665,0.8827,0.8922,0.8965,1.015,1.0717,1.0636,1.0252,0.9887,0.9553,0.9344,0.8959,0.8286,0.8153,0.7874,0.7428,0.7261,0.7212,0.7352,0.7447,0.769,0.8034,0.8371,0.8692,0.8974,0.9322,0.9657,1.0007,1.0269,1.0363,1.0213,1.1915,1.2845,1.2463,1.177,1.1418,1.1896,1.2031,1.1767,1.0982,1.1086,1.1026,1.0651,1.0618,1.0596,1.046,1.0282,1.0142,1.0019,0.9369,0.8895,0.8726,0.8297,0.767,0.7198,0.7496,0.7695,0.7273,0.7546,0.7447,0.6473,0.5327,0.5006,0.5404,0.5529,0.5279,0.4855,0.468,0.4628,0.4477,0.4477,0.4626,0.4972,0.545,0.5924,0.6548,0.6825,0.7151,0.7098,0.7049,0.7347,0.5849,0.6093,0.6093,0.6321,0.6722,0.6877,0.6833,0.6722,0.6722,0.7617,0.8987,0.9161,0.9205,0.9205,0.9248,0.9253,0.927,0.927,0.9379,0.9558,0.9379,0.9357,0.9536,0.9405,0.8806,0.8045,0.7969,0.7814,0.759,0.7532,0.7797,0.8319,0.8144,0.8017,0.8012,0.7911,0.7853,0.793,0.9146,0.9717,0.9515,0.9423,0.9217,0.8871,0.9074,0.8924,0.8401,0.8379,0.8146,0.7662,0.7645,0.7704,0.7856,0.7913,0.8007,0.8173,0.8401,0.8562,0.8623,0.8887,0.9161,0.9359,0.9512,0.962,0.9781,1.0684,1.1513,1.1844,1.082,1.0357,1.0967,1.1206,1.1027,1.0432,1.0618,1.0729,1.0534,1.0569,1.0433,1.0039,0.9715,0.9472,0.9069,0.8294,0.7695,0.7521,0.6725,0.6102,0.6024,0.5874,0.5677,0.5752,0.5924,0.5974,0.5727,0.4406,0.3732,0.4307,0.4356,0.3981,0.3379,0.3078,0.3002,0.2925,0.2825,0.3075,0.3549,0.3949,0.44,0.5074,0.5477,0.56,0.5597,0.5572,0.5872,0.4154,0.5043,0.511,0.5644,0.634,0.6406,0.6384,0.6406,0.6428,0.6495,0.6849,0.6985,0.7121,0.7098,0.7338,0.7423,0.7423,0.7356,0.7841,0.8452,0.7727,0.7819,0.8496,0.7771,0.7221,0.6987,0.6983,0.6876,0.6627,0.6461,0.6365,0.6293,0.6268,0.6303,0.6345,0.6817,0.7089,0.7106,0.756,0.7942,0.8271,0.877,0.8923,0.8635,0.9145,0.9175,0.8521,0.8571,0.8403,0.8093,0.8045,0.805,0.8088,0.8236,0.8372,0.8387,0.8746,0.9004,0.9189,0.9235,0.9368,0.9545,0.9597,0.9708,0.9916,1.0089,1.0175,1.026,1.0135,1.0121,1.0345,1.0452,1.0488,1.0439,1.0435,1.051,1.0314,1.0207,0.969,0.8662,0.8368,0.7844,0.7145,0.6722,0.6548,0.6373,0.5554,0.4958,0.4883,0.4307,0.3831,0.388,0.4556,0.4805,0.3981,0.3456,0.318,0.3128,0.3027,0.29,0.2674,0.2548,0.2447,0.2473,0.2448,0.2522,0.2723,0.3224,0.3825,0.3802,0.4352,0.5029,0.4899,0.4724,0.5175,0.331,0.3757,0.3757,0.4044,0.4512,0.4685,0.4999,0.5383,0.5383,0.5611,0.5991,0.6282,0.646,0.6564,0.6653,0.6694,0.6672,0.6697,0.6893,0.7221,0.6849,0.6893,0.7177,0.6893,0.6631,0.6564,0.6564,0.6498,0.6397,0.6352,0.6303,0.622,0.6044,0.5939,0.5948,0.6013,0.6065,0.6045,0.6192,0.6304,0.6488,0.7293,0.7706,0.7624,0.7838,0.7864,0.766,0.7944,0.806,0.7963,0.8259,0.8467,0.8467,0.8652,0.875,0.8765,0.9019,0.9269,0.9481,0.9495,0.9585,0.9814,0.9828,0.9823,0.9784,0.9912,0.9937,0.9758,0.9822,0.994,1.0035,1.0127,1.0204,1.019,0.9829,0.9429,0.9226,0.8563,0.7841,0.7294,0.712,0.6921,0.6423,0.5827,0.5229,0.468,0.4081,0.3934,0.3833,0.3457,0.3256,0.3256,0.3756,0.3731,0.3128,0.2927,0.2801,0.2649,0.2548,0.2497,0.2447,0.2396,0.2371,0.2196,0.2171,0.2096,0.1943,0.217,0.2548,0.2598,0.2623,0.3175,0.3725,0.3324,0.35,0.2264,0.2509,0.2778,0.3133,0.3511,0.3708,0.4245,0.4941,0.4988,0.5258,0.5688,0.5911,0.6083,0.621,0.6343,0.6406,0.6406,0.6406,0.6406,0.6406,0.6406,0.6406,0.6406,0.6406,0.6365,0.6343,0.6321,0.6276,0.6213,0.6213,0.6213,0.6154,0.5966,0.5836,0.5821,0.5541,0.5441,0.5436,0.5411,0.5346,0.5398,0.6066,0.6544,0.6644,0.6822,0.6903,0.6922,0.7322,0.7553,0.7553,0.8175,0.8538,0.8548,0.8869,0.9029,0.8913,0.9037,0.9086,0.9135,0.9106,0.9138,0.9179,0.9196,0.9065,0.8912,0.9379,0.9402,0.8709,0.8804,0.8918,0.9494,0.9339,0.9236,0.9175,0.8571,0.8135,0.7844,0.7117,0.6545,0.6049,0.5977,0.5802,0.5479,0.4832,0.4108,0.3481,0.3281,0.3205,0.3205,0.3205,0.3205,0.3205,0.3155,0.3029,0.2851,0.2801,0.2624,0.2372,0.2271,0.2246,0.222,0.2196,0.217,0.1919,0.1895,0.1869,0.1742,0.1693,0.1667,0.1617,0.1692,0.1944,0.2597,0.2044,0.207,0.0651,0.1569,0.2486,0.3269,0.4208,0.4141,0.4746,0.5485,0.5577,0.5644,0.5688,0.5735,0.5733,0.5774,0.6191,0.6384,0.6384,0.6362,0.6362,0.6362,0.6365,0.6406,0.6406,0.6406,0.6276,0.6105,0.6105,0.5997,0.5777,0.5755,0.5733,0.5752,0.5741,0.5697,0.57,0.5575,0.5499,0.5491,0.5447,0.5413,0.5384,0.5456,0.5685,0.5993,0.6528,0.6813,0.686,0.693,0.6934,0.6945,0.769,0.8117,0.8169,0.8817,0.9002,0.867,0.8624,0.8405,0.8025,0.7939,0.7797,0.7405,0.743,0.71,0.6968,0.8211,0.8408,0.6865,0.6672,0.7042,0.81,0.7763,0.7277,0.7177,0.6981,0.6766,0.6523,0.6298,0.5927,0.5131,0.4883,0.4583,0.363,0.3306,0.3356,0.323,0.3205,0.3205,0.3205,0.3205,0.3205,0.3155,0.3004,0.2826,0.2801,0.2675,0.2474,0.2197,0.1995,0.1946,0.1768,0.1642,0.1642,0.1667,0.1667,0.1667,0.1617,0.1592,0.1592,0.1592,0.1592,0.1818,0.2019,0.1768,0.1768,0.018,0.0539,0.0875,0.1592,0.2419,0.2442,0.3337,0.4746,0.479,0.5149,0.5644,0.571,0.571,0.571,0.5863,0.5949,0.5949,0.5949,0.5949,0.5949,0.5949,0.5952,0.5952,0.5952,0.593,0.5844,0.5822,0.5799,0.5713,0.571,0.571,0.571,0.571,0.571,0.5683,0.5667,0.5623,0.5618,0.5599,0.5567,0.5472,0.5464,0.5509,0.5577,0.5807,0.5945,0.5948,0.629,0.6509,0.6529,0.7169,0.7524,0.756,0.7915,0.8132,0.8094,0.8078,0.8014,0.78,0.75,0.7276,0.7122,0.681,0.6483,0.6394,0.6934,0.709,0.6235,0.4966,0.4976,0.5884,0.6361,0.6569,0.6484,0.5924,0.5504,0.5256,0.478,0.418,0.3857,0.3781,0.3581,0.3381,0.3205,0.3205,0.3205,0.3205,0.3205,0.3205,0.3205,0.3205,0.3155,0.2978,0.2725,0.2548,0.2373,0.2172,0.192,0.1718,0.1718,0.1617,0.1592,0.1617,0.1617,0.1592,0.1592,0.1592,0.1592,0.1592,0.1592,0.1592,0.1592,0.1592,0.1592,0.1592,-0.0067,0.0,0.0,0.0539,0.1368,0.1413,0.233,0.3829,0.4186,0.4656,0.5218,0.5555,0.571,0.571,0.571,0.571,0.571,0.571,0.571,0.571,0.571,0.571,0.571,0.571,0.571,0.571,0.571,0.571,0.571,0.571,0.571,0.571,0.571,0.571,0.571,0.571,0.571,0.571,0.571,0.5667,0.5575,0.5567,0.5529,0.5523,0.5488,0.5447,0.5418,0.5803,0.6007,0.6073,0.6649,0.7115,0.7379,0.7521,0.7548,0.7486,0.7324,0.7126,0.6883,0.6441,0.611,0.5977,0.5689,0.5381,0.5119,0.5223,0.5222,0.4845,0.4113,0.3556,0.4182,0.4929,0.5352,0.5304,0.4705,0.4307,0.4232,0.3655,0.3331,0.3281,0.3281,0.323,0.3205,0.3205,0.3205,0.3205,0.3205,0.3205,0.3205,0.3205,0.3155,0.3054,0.2826,0.2549,0.2297,0.207,0.1945,0.1718,0.1642,0.1617,0.1592,0.1592,0.1592,0.1592,0.1592,0.1592,0.1592,0.1592,0.1592,0.1592,0.1592,0.1592,0.1592,0.1592,0.1592,-0.0224,0.0,0.0,0.0539,0.1346,0.1413,0.1995,0.3045,0.3874,0.421,0.4387,0.5149,0.5374,0.5532,0.5466,0.5621,0.5577,0.5532,0.5621,0.5688,0.571,0.571,0.571,0.571,0.571,0.571,0.571,0.571,0.571,0.571,0.571,0.571,0.571,0.571,0.571,0.571,0.571,0.571,0.571,0.5708,0.571,0.5697,0.5667,0.5686,0.5683,0.5586,0.5401,0.5456,0.5509,0.5574,0.6172,0.694,0.7399,0.7479,0.7364,0.6684,0.6312,0.5761,0.5142,0.4719,0.4342,0.4054,0.3741,0.3654,0.3419,0.3327,0.3349,0.341,0.3328,0.3281,0.3306,0.3456,0.3531,0.3281,0.3405,0.3407,0.3331,0.3256,0.3205,0.3205,0.3205,0.3205,0.3205,0.3205,0.3205,0.3205,0.3205,0.3205,0.318,0.3155,0.3054,0.2851,0.2599,0.2323,0.2045,0.1794,0.1693,0.1592,0.1592,0.1592,0.1592,0.1592,0.1592,0.1592,0.1592,0.1592,0.1592,0.1592,0.1592,0.1592,0.1592,0.1592,0.1592,0.1592,0.1592,-0.0471,-0.0269,-0.0292,0.0381,0.1346,0.1413,0.1973,0.2868,0.3224,0.3336,0.3381,0.365,0.3762,0.3963,0.4411,0.4746,0.4725,0.4746,0.5062,0.5577,0.5666,0.5688,0.571,0.571,0.571,0.571,0.571,0.571,0.571,0.571,0.571,0.571,0.571,0.571,0.571,0.571,0.571,0.571,0.571,0.571,0.571,0.5688,0.5688,0.571,0.571,0.5532,0.5182,0.5441,0.5597,0.5591,0.5851,0.5954,0.5866,0.5561,0.5295,0.5097,0.4964,0.4808,0.4543,0.4078,0.3765,0.3566,0.332,0.3075,0.2949,0.2971,0.3033,0.3078,0.3158,0.3205,0.3205,0.3205,0.3205,0.3205,0.3205,0.3205,0.3205,0.3205,0.3205,0.3205,0.3205,0.3205,0.3205,0.3205,0.3205,0.3205,0.3205,0.3205,0.318,0.3054,0.2927,0.2801,0.2449,0.2121,0.192,0.1743,0.1642,0.1592,0.1592,0.1592,0.1592,0.1592,0.1592,0.1592,0.1592,0.1592,0.1592,0.1592,0.1592,0.1592,0.1592,0.1592,0.1592,0.1592,0.1592,-0.0718,-0.0516,-0.0516,-0.009,0.0583,0.0628,0.0963,0.159,0.2059,0.2238,0.2283,0.2731,0.2889,0.3023,0.3516,0.3762,0.376,0.3784,0.4052,0.4565,0.506,0.5329,0.5644,0.571,0.571,0.571,0.571,0.571,0.571,0.571,0.571,0.571,0.571,0.571,0.571,0.5688,0.5644,0.5485,0.5416,0.5352,0.5218,0.5171,0.5193,0.5171,0.5171,0.5037,0.479,0.5015,0.5174,0.5193,0.5171,0.5035,0.4721,0.4476,0.4297,0.4277,0.4143,0.4032,0.3987,0.3611,0.3342,0.3275,0.3053,0.2908,0.2934,0.2997,0.3054,0.3089,0.3172,0.3205,0.3205,0.3205,0.3205,0.3205,0.3205,0.3205,0.3205,0.3205,0.3205,0.3205,0.3205,0.3205,0.3205,0.3205,0.3205,0.3205,0.3205,0.3205,0.3155,0.2978,0.2826,0.2624,0.2297,0.2046,0.1844,0.1718,0.1617,0.1592,0.1592,0.1592,0.1592,0.1592,0.1592,0.1592,0.1592,0.1592,0.1592,0.1592,0.1592,0.1592,0.1592,0.1592,0.1592,0.1592,0.1592,-0.0964,-0.0718,-0.0718,-0.0673,-0.0583,-0.0583,-0.0493,-0.0403,0.0515,0.1007,0.123,0.1925,0.2463,0.2598,0.2575,0.2686,0.2753,0.2731,0.2728,0.295,0.3532,0.4295,0.5057,0.5305,0.528,0.5193,0.5329,0.5371,0.5102,0.5374,0.5599,0.5374,0.5396,0.5577,0.5485,0.5599,0.5327,0.5013,0.4966,0.4766,0.4411,0.4366,0.4366,0.4389,0.4411,0.4366,0.43,0.4255,0.4255,0.43,0.4366,0.43,0.4255,0.4231,0.4121,0.4076,0.3765,0.3587,0.3475,0.323,0.2963,0.2964,0.2952,0.2922,0.2996,0.3037,0.31,0.3101,0.3167,0.3205,0.3205,0.3205,0.3205,0.3205,0.3205,0.3205,0.3205,0.3205,0.3205,0.3205,0.3205,0.3205,0.3205,0.3205,0.3205,0.318,0.318,0.313,0.3054,0.2851,0.2624,0.2372,0.2096,0.192,0.1718,0.1693,0.1592,0.1592,0.1592,0.1592,0.1592,0.1592,0.1592,0.1592,0.1592,0.1592,0.1592,0.1592,0.1592,0.1592,0.1592,0.1592,0.1592,0.1592,0.1592,-0.1189,-0.1009,-0.0987,-0.0874,-0.0718,-0.0695,-0.0718,-0.0673,-0.0381,-0.0157,-0.0112,0.0067,0.0381,0.0336,0.1007,0.1274,0.132,0.132,0.1699,0.2055,0.172,0.2324,0.3328,0.4065,0.3931,0.3328,0.371,0.3575,0.3172,0.416,0.4362,0.3892,0.4454,0.4656,0.4679,0.4701,0.4612,0.45,0.4476,0.4431,0.43,0.4255,0.4297,0.4297,0.4277,0.4099,0.3788,0.3454,0.3631,0.421,0.3942,0.3788,0.3764,0.3497,0.3342,0.332,0.3209,0.3097,0.3075,0.2988,0.2899,0.2901,0.294,0.2989,0.2982,0.3056,0.3115,0.3125,0.3169,0.3205,0.3205,0.3205,0.3205,0.3205,0.3205,0.3205,0.3205,0.3205,0.3205,0.3205,0.3205,0.3205,0.3205,0.318,0.318,0.313,0.3029,0.2901,0.2826,0.2575,0.2272,0.2121,0.1895,0.1743,0.1617,0.1617,0.1592,0.1592,0.1592,0.1592,0.1592,0.1592,0.1592,0.1592,0.1592,0.1592,0.1592,0.1592,0.1592,0.1592,0.1592,0.1592,0.1592,0.1592,0.1592,-0.1323,-0.1234,-0.1211,-0.1144,-0.1009,-0.1009,-0.1009,-0.0987,-0.0897,-0.0874,-0.0852,-0.074,-0.0695,-0.0628,-0.0112,0.0112,0.0112,0.0112,0.0358,0.0626,0.0671,0.1296,0.2255,0.2948,0.2768,0.2233,0.2524,0.2524,0.2322,0.3016,0.3084,0.2994,0.3465,0.3825,0.3892,0.4186,0.4186,0.4054,0.3987,0.392,0.3743,0.3721,0.3698,0.3698,0.3698,0.3566,0.3275,0.303,0.3187,0.3544,0.3454,0.332,0.3297,0.3075,0.2897,0.2897,0.2897,0.2897,0.2901,0.2916,0.2931,0.2942,0.2986,0.3029,0.3062,0.3081,0.3119,0.3158,0.3162,0.3201,0.3205,0.3205,0.3205,0.3205,0.3205,0.3205,0.3205,0.3205,0.3205,0.3205,0.3205,0.3205,0.3205,0.313,0.3054,0.2978,0.2775,0.2675,0.2599,0.2222,0.1996,0.1895,0.1794,0.1667,0.1617,0.1592,0.1592,0.1592,0.1592,0.1592,0.1592,0.1592,0.1592,0.1592,0.1592,0.1592,0.1592,0.1592,0.1592,0.1592,0.1592,0.1592,0.1592,0.1592,0.1592,-0.1413,-0.1413,-0.1413,-0.1413,-0.1391,-0.1391,-0.1346,-0.1368,-0.1211,-0.1122,-0.1099,-0.0874,-0.0852,-0.0785,-0.074,-0.0762,-0.0762,-0.0695,-0.0852,-0.0605,-0.0246,0.0581,0.1318,0.1765,0.1697,0.1474,0.172,0.1653,0.1519,0.172,0.1898,0.1921,0.248,0.2952,0.3065,0.3604,0.3786,0.3587,0.3521,0.3365,0.3142,0.3075,0.3075,0.3075,0.3075,0.3053,0.2963,0.2897,0.2964,0.292,0.2897,0.2963,0.292,0.2897,0.2897,0.2897,0.2899,0.29,0.2914,0.2952,0.3008,0.3021,0.307,0.3102,0.3117,0.3121,0.3151,0.3192,0.3205,0.3205,0.3205,0.3205,0.3205,0.3205,0.3205,0.3205,0.3205,0.3205,0.3205,0.3205,0.3205,0.3205,0.313,0.3004,0.2851,0.2876,0.2649,0.2498,0.2347,0.2046,0.1895,0.1869,0.1743,0.1617,0.1592,0.1592,0.1592,0.1592,0.1592,0.1592,0.1592,0.1592,0.1592,0.1592,0.1592,0.1592,0.1592,0.1592,0.1592,0.1592,0.1592,0.1592,0.1592,0.1592,0.1592,-0.1413,-0.1413,-0.1413,-0.1413,-0.1413,-0.1413,-0.1413,-0.1391,-0.1346,-0.1323,-0.1323,-0.1256,-0.1234,-0.1234,-0.1212,-0.1256,-0.1212,-0.1212,-0.1279,-0.1279,-0.1166,-0.0919,-0.038,0.0313,0.0246,-0.0157,-0.0045,-0.0112,-0.0246,0.047,0.0694,0.0358,0.1007,0.1523,0.2062,0.2285,0.2647,0.2939,0.3008,0.2918,0.2806,0.2761,0.2785,0.2807,0.2807,0.2852,0.2897,0.2897,0.2897,0.2897,0.2897,0.2897,0.2897,0.2897,0.2901,0.2905,0.2903,0.2918,0.2979,0.3005,0.3027,0.3054,0.3083,0.3125,0.3113,0.3134,0.3186,0.3205,0.3205,0.3205,0.3205,0.3205,0.3205,0.3205,0.3205,0.3205,0.3205,0.3205,0.3205,0.3205,0.3205,0.3205,0.3205,0.3104,0.2953,0.2801,0.2549,0.2322,0.2096,0.1869,0.1794,0.1768,0.1693,0.1592,0.1592,0.1592,0.1592,0.1592,0.1592,0.1592,0.1592,0.1592,0.1592,0.1592,0.1592,0.1592,0.1592,0.1592,0.1592,0.1592,0.1592,0.1592,0.1592,0.1592,0.1592,-0.1413,-0.1413,-0.1413,-0.1413,-0.1413,-0.1413,-0.1413,-0.1413,-0.1413,-0.1413,-0.1413,-0.1413,-0.142,-0.1432,-0.142,-0.1419,-0.1428,-0.1418,-0.1391,-0.1391,-0.1368,-0.1391,-0.1346,-0.0874,-0.0851,-0.1301,-0.1031,-0.1122,-0.1076,-0.074,-0.0471,-0.0762,-0.0157,0.0359,0.0807,0.1122,0.1503,0.1749,0.1862,0.1885,0.1862,0.1862,0.2109,0.22,0.2132,0.2109,0.2807,0.2537,0.2401,0.2447,0.2695,0.2897,0.2897,0.2899,0.2914,0.2947,0.2941,0.2989,0.3032,0.3051,0.3059,0.3089,0.3123,0.3124,0.3161,0.319,0.3201,0.3205,0.3205,0.3205,0.3205,0.3205,0.3205,0.3205,0.3205,0.3205,0.3205,0.3205,0.3205,0.3205,0.3205,0.3205,0.318,0.3029,0.2826,0.2548,0.2171,0.1944,0.1894,0.1693,0.1667,0.1642,0.1617,0.1592,0.1592,0.1592,0.1592,0.1592,0.1592,0.1592,0.1592,0.1592,0.1592,0.1592,0.1592,0.1592,0.1592,0.1592,0.1592,0.1592,0.1592,0.1592,0.1592,0.1592,0.1592,-0.1413,-0.1413,-0.1413,-0.1413,-0.1413,-0.1413,-0.1394,-0.142,-0.142,-0.1427,-0.1405,-0.1404,-0.1447,-0.1478,-0.1441,-0.1444,-0.1475,-0.1445,-0.1414,-0.1413,-0.1427,-0.1431,-0.1386,-0.1338,-0.1292,-0.1402,-0.1327,-0.1391,-0.1391,-0.1391,-0.1166,-0.1279,-0.0874,-0.0381,-0.0224,0.0179,0.0695,0.0897,0.0942,0.0919,0.0897,0.0874,0.1166,0.1413,0.1234,0.1368,0.2019,0.1908,0.164,0.1667,0.2323,0.2747,0.2899,0.2912,0.2965,0.3015,0.3004,0.3051,0.3078,0.3102,0.3109,0.3125,0.2971,0.2972,0.2976,0.2822,0.2699,0.2675,0.2623,0.2623,0.2826,0.2851,0.2901,0.3004,0.3079,0.318,0.313,0.3155,0.313,0.3104,0.3054,0.3029,0.2901,0.2725,0.2522,0.227,0.1894,0.1642,0.1617,0.1592,0.1592,0.1592,0.1592,0.1592,0.1592,0.1592,0.1592,0.1592,0.1592,0.1592,0.1592,0.1592,0.1592,0.1592,0.1592,0.1592,0.1592,0.1592,0.1592,0.1592,0.1592,0.1592,0.1592,0.1592,0.1592,-0.1413,-0.1413,-0.1413,-0.1413,-0.1413,-0.1413,-0.1429,-0.1494,-0.1473,-0.1488,-0.1484,-0.1487,-0.1486,-0.1492,-0.1491,-0.1491,-0.1488,-0.148,-0.148,-0.1475,-0.1463,-0.1459,-0.1471,-0.1482,-0.1462,-0.1467,-0.1445,-0.142,-0.1416,-0.1413,-0.1394,-0.137,-0.1256,-0.0987,-0.0561,-0.0247,0.0067,0.0359,0.0448,0.0471,0.0471,0.0494,0.0609,0.0812,0.0587,0.079,0.099,0.1012,0.0882,0.0941,0.1657,0.2283,0.2592,0.2746,0.2843,0.2863,0.2825,0.2797,0.297,0.3036,0.3095,0.3027,0.2619,0.2269,0.2194,0.1992,0.1765,0.1462,0.1361,0.1286,0.121,0.1841,0.2143,0.2346,0.2725,0.3029,0.2876,0.2876,0.2852,0.2827,0.2827,0.2801,0.2649,0.2523,0.2347,0.217,0.1919,0.1693,0.1592,0.1592,0.1592,0.1592,0.1592,0.1592,0.1592,0.1592,0.1592,0.1592,0.1592,0.1592,0.1592,0.1592,0.1592,0.1592,0.1592,0.1592,0.1592,0.1592,0.1592,0.1592,0.1592,0.1592,0.1592,0.1592,0.1592,-0.1436,-0.1434,-0.142,-0.1422,-0.1457,-0.1459,-0.1476,-0.1502,-0.1504,-0.1488,-0.1499,-0.1503,-0.1512,-0.1542,-0.1507,-0.1502,-0.1504,-0.1502,-0.1502,-0.1497,-0.1489,-0.1486,-0.1503,-0.1486,-0.149,-0.1492,-0.1471,-0.1449,-0.1461,-0.1459,-0.1429,-0.1393,-0.1413,-0.1234,-0.1009,-0.0919,-0.0696,-0.0382,-0.0359,-0.0359,-0.036,-0.0362,-0.0274,-0.0023,-0.0139,-0.0046,0.0533,0.0231,0.014,0.0258,0.0846,0.1219,0.148,0.1703,0.1825,0.1875,0.192,0.2121,0.2428,0.2538,0.2677,0.3021,0.2194,0.1816,0.1739,0.1462,0.0806,0.0554,0.0706,0.0781,0.0882,0.116,0.1336,0.1513,0.2068,0.2346,0.2346,0.2573,0.2549,0.2449,0.2498,0.2498,0.2472,0.2322,0.2171,0.2021,0.1895,0.1743,0.1592,0.1592,0.1592,0.1592,0.1592,0.1592,0.1592,0.1592,0.1592,0.1592,0.1592,0.1592,0.1592,0.1592,0.1592,0.1592,0.1592,0.1592,0.1592,0.1592,0.1592,0.1592,0.1592,0.1592,0.1592,0.1592,0.1592,-0.149,-0.1488,-0.1441,-0.1445,-0.1487,-0.149,-0.1507,-0.1532,-0.1511,-0.1516,-0.152,-0.1522,-0.156,-0.157,-0.156,-0.1522,-0.152,-0.1522,-0.1525,-0.1524,-0.1516,-0.1513,-0.152,-0.1514,-0.1517,-0.1529,-0.1523,-0.1501,-0.1495,-0.1489,-0.1475,-0.1445,-0.1434,-0.1431,-0.1367,-0.1326,-0.1408,-0.1431,-0.1408,-0.1408,-0.1437,-0.1431,-0.1242,-0.0714,-0.1192,-0.0904,-0.0142,-0.0356,-0.0619,-0.0455,-0.0072,0.0217,-0.0098,0.0123,0.0248,0.0175,0.0447,0.1071,0.1353,0.1561,0.166,0.1865,0.1108,0.0907,0.0731,0.0101,-0.0352,-0.0378,-0.0101,0.0151,0.0076,0.0454,0.0555,0.0681,0.1135,0.1639,0.1765,0.1917,0.2043,0.207,0.217,0.2196,0.2145,0.207,0.1894,0.1869,0.1743,0.1718,0.1592,0.1592,0.1592,0.1592,0.1592,0.1592,0.1592,0.1592,0.1592,0.1592,0.1592,0.1592,0.1592,0.1592,0.1592,0.1592,0.1592,0.1592,0.1592,0.1592,0.1592,0.1592,0.1592,0.1592,0.1592,0.1592,0.1592,-0.1497,-0.1496,-0.1493,-0.1494,-0.1497,-0.1497,-0.1538,-0.1564,-0.1591,-0.1582,-0.1573,-0.1578,-0.1578,-0.158,-0.1579,-0.1577,-0.1577,-0.1573,-0.157,-0.1566,-0.1577,-0.1578,-0.1595,-0.1577,-0.1556,-0.1565,-0.1573,-0.1547,-0.1512,-0.15,-0.1494,-0.1486,-0.1482,-0.1489,-0.1479,-0.1478,-0.1492,-0.149,-0.1489,-0.1489,-0.149,-0.1494,-0.1428,-0.1386,-0.1413,-0.1438,-0.1105,-0.1274,-0.1375,-0.1393,-0.0758,-0.0716,-0.1177,-0.113,-0.1533,-0.1385,-0.0654,0.0628,0.0302,0.0227,0.0201,0.0075,-0.0855,-0.1434,-0.146,-0.1587,-0.1967,-0.2324,-0.1641,-0.1111,-0.0884,-0.0581,-0.0353,-0.0025,0.0353,0.0983,0.1336,0.1866,0.1943,0.1868,0.2045,0.1919,0.1818,0.1718,0.1642,0.1617,0.1617,0.1592,0.1592,0.1592,0.1592,0.1592,0.1592,0.1592,0.1592,0.1592,0.1592,0.1592,0.1592,0.1592,0.1592,0.1592,0.1592,0.1592,0.1592,0.1592,0.1592,0.1592,0.1592,0.1592,0.1592,0.1592,0.1592,0.1592,0.1598,-0.1568,-0.1551,-0.1533,-0.1536,-0.1551,-0.1576,-0.1569,-0.1593,-0.1598,-0.1579,-0.159,-0.1592,-0.1592,-0.1592,-0.1592,-0.1591,-0.1592,-0.1592,-0.1592,-0.1617,-0.1604,-0.1604,-0.1584,-0.1579,-0.1583,-0.1662,-0.159,-0.1581,-0.1552,-0.1581,-0.1546,-0.1505,-0.1504,-0.15,-0.1508,-0.1504,-0.1502,-0.15,-0.1502,-0.1534,-0.1547,-0.1553,-0.156,-0.1576,-0.1576,-0.1722,-0.1943,-0.1995,-0.2199,-0.2343,-0.2094,-0.2126,-0.2392,-0.2396,-0.2573,-0.2724,-0.2143,-0.1461,-0.1209,-0.1158,-0.1107,-0.1132,-0.1836,-0.2517,-0.2846,-0.2798,-0.2498,-0.2046,-0.1794,-0.1617,-0.1592,-0.1288,-0.0859,-0.048,-0.0076,0.0605,0.1286,0.1841,0.2119,0.1995,0.1869,0.1794,0.1693,0.1642,0.1617,0.1592,0.1592,0.1592,0.1592,0.1592,0.1592,0.1592,0.1592,0.1592,0.1592,0.1592,0.1592,0.1592,0.1592,0.1592,0.1592,0.1592,0.1592,0.1592,0.1593,0.1592,0.1592,0.1592,0.1592,0.1592,0.1592,0.1598,0.1604,0.1641,0.1677,-0.1578,-0.1581,-0.1558,-0.1562,-0.1583,-0.1583,-0.1595,-0.159,-0.159,-0.1591,-0.1592,-0.1592,-0.1592,-0.1592,-0.1592,-0.1592,-0.1592,-0.1592,-0.1692,-0.1742,-0.1818,-0.1918,-0.207,-0.2068,-0.2068,-0.1996,-0.2146,-0.2141,-0.2084,-0.2017,-0.194,-0.1549,-0.1533,-0.153,-0.1527,-0.1531,-0.1533,-0.1533,-0.1531,-0.1638,-0.1776,-0.1656,-0.1819,-0.1883,-0.1943,-0.2045,-0.2523,-0.2595,-0.2847,-0.2998,-0.3049,-0.2973,-0.3054,-0.3204,-0.3279,-0.3456,-0.3226,-0.32,-0.2845,-0.2592,-0.2238,-0.2289,-0.2515,-0.3575,-0.3805,-0.3328,-0.27,-0.2247,-0.1743,-0.1642,-0.1541,-0.1415,-0.0909,-0.0454,-0.0126,0.0555,0.1136,0.1438,0.1867,0.1995,0.1895,0.1819,0.1743,0.1667,0.1617,0.1592,0.1592,0.1592,0.1592,0.1592,0.1592,0.1592,0.1592,0.1592,0.1592,0.1592,0.1592,0.1592,0.1592,0.1592,0.1592,0.1592,0.1592,0.1592,0.1622,0.1631,0.1639,0.1628,0.162,0.163,0.1639,0.164,0.1647,0.1687,0.1733,-0.159,-0.1588,-0.1585,-0.1584,-0.1587,-0.1588,-0.1589,-0.1592,-0.1592,-0.1592,-0.1592,-0.1592,-0.1592,-0.1592,-0.1592,-0.1617,-0.1642,-0.1592,-0.1918,-0.222,-0.2371,-0.2574,-0.2751,-0.2877,-0.2953,-0.2953,-0.2852,-0.2903,-0.3002,-0.2794,-0.236,-0.176,-0.1868,-0.1704,-0.1703,-0.1868,-0.182,-0.1821,-0.1821,-0.1998,-0.2107,-0.2085,-0.2141,-0.2722,-0.2649,-0.2599,-0.3104,-0.3155,-0.3254,-0.3407,-0.3432,-0.3432,-0.3556,-0.3783,-0.3932,-0.4008,-0.4259,-0.4257,-0.4103,-0.3904,-0.4054,-0.4331,-0.4456,-0.4381,-0.4358,-0.3707,-0.3204,-0.2775,-0.1843,-0.1465,-0.1263,-0.0985,-0.0404,0.0,0.0403,0.0807,0.1059,0.0706,0.116,0.1717,0.192,0.192,0.1768,0.1693,0.1617,0.1592,0.1592,0.1592,0.1592,0.1592,0.1592,0.1592,0.1592,0.1592,0.1592,0.1592,0.1592,0.1592,0.1592,0.1592,0.1592,0.1592,0.1592,0.163,0.1663,0.1675,0.1684,0.1651,0.1649,0.1682,0.1688,0.1693,0.1679,0.1722,0.1743,-0.1592,-0.1592,-0.1592,-0.1592,-0.1592,-0.1592,-0.1592,-0.1592,-0.1592,-0.1592,-0.1592,-0.1592,-0.1592,-0.1592,-0.1617,-0.1793,-0.2044,-0.2095,-0.2447,-0.2725,-0.2927,-0.3029,-0.3205,-0.3256,-0.318,-0.323,-0.323,-0.3205,-0.3155,-0.3306,-0.3079,-0.2675,-0.2575,-0.2599,-0.2574,-0.2474,-0.2499,-0.2524,-0.255,-0.2726,-0.2751,-0.2777,-0.2777,-0.3079,-0.3079,-0.3179,-0.3607,-0.3682,-0.3882,-0.4056,-0.4106,-0.4083,-0.4058,-0.4332,-0.4408,-0.4433,-0.4709,-0.4759,-0.4784,-0.4609,-0.4609,-0.4684,-0.4757,-0.4684,-0.4508,-0.4158,-0.3732,-0.2925,-0.1438,-0.0782,-0.116,-0.0353,0.0479,0.0807,0.1084,0.1336,0.1361,0.1058,0.1135,0.1994,0.2121,0.212,0.1919,0.1718,0.1642,0.1592,0.1592,0.1592,0.1596,0.1598,0.1601,0.1603,0.1604,0.1603,0.1603,0.1598,0.1592,0.1594,0.1595,0.1597,0.1599,0.1592,0.1596,0.1636,0.1682,0.1697,0.1704,0.1675,0.1678,0.1713,0.172,0.1726,0.174,0.1757,0.1774,-0.1592,-0.1592,-0.1592,-0.1592,-0.1592,-0.1592,-0.1592,-0.1592,-0.1592,-0.1592,-0.1592,-0.1592,-0.1717,-0.1793,-0.1869,-0.2171,-0.2523,-0.2675,-0.3002,-0.3254,-0.343,-0.3531,-0.3632,-0.3707,-0.3833,-0.3655,-0.3682,-0.3732,-0.3783,-0.3707,-0.3707,-0.3707,-0.3657,-0.3531,-0.313,-0.3205,-0.3205,-0.3205,-0.3205,-0.3331,-0.3381,-0.3256,-0.3481,-0.3583,-0.3556,-0.3732,-0.4083,-0.4259,-0.4383,-0.4583,-0.4709,-0.4734,-0.4759,-0.4784,-0.4782,-0.4782,-0.4782,-0.4782,-0.4782,-0.4782,-0.4782,-0.4782,-0.4782,-0.4583,-0.446,-0.456,-0.4158,-0.2901,-0.1135,-0.0151,-0.0908,0.0277,0.1009,0.1336,0.1564,0.1816,0.2068,0.1992,0.2043,0.2346,0.2271,0.2123,0.2006,0.178,0.1679,0.1625,0.1592,0.16,0.1639,0.1642,0.1645,0.1647,0.1648,0.1646,0.1644,0.161,0.1604,0.1639,0.1639,0.1637,0.1635,0.1606,0.1616,0.1667,0.1711,0.1723,0.1736,0.1746,0.1746,0.1745,0.1754,0.1766,0.1776,0.1763,0.177,-0.1592,-0.1592,-0.1592,-0.1592,-0.1592,-0.1592,-0.1592,-0.1617,-0.1641,-0.1718,-0.1768,-0.1768,-0.1995,-0.2296,-0.2397,-0.2699,-0.3103,-0.3204,-0.3481,-0.3882,-0.4008,-0.4282,-0.4458,-0.4558,-0.4408,-0.4684,-0.4558,-0.4458,-0.4609,-0.4483,-0.4558,-0.4583,-0.4408,-0.4158,-0.3331,-0.3257,-0.3232,-0.323,-0.3331,-0.3632,-0.3808,-0.3632,-0.3934,-0.4209,-0.4158,-0.4259,-0.4508,-0.4609,-0.4684,-0.4759,-0.4782,-0.4782,-0.4782,-0.4782,-0.4782,-0.4782,-0.4782,-0.4782,-0.4782,-0.4782,-0.4782,-0.4709,-0.4657,-0.4431,-0.4632,-0.4632,-0.4054,-0.2597,-0.1311,-0.0605,-0.005,0.0883,0.1437,0.1816,0.2068,0.227,0.2548,0.2573,0.2522,0.2503,0.2252,0.2026,0.1963,0.1869,0.1743,0.1661,0.1597,0.1606,0.1681,0.1689,0.1667,0.1669,0.1671,0.1672,0.1667,0.1622,0.1617,0.1654,0.1687,0.166,0.1665,0.1671,0.1684,0.1702,0.1741,0.178,0.1775,0.1797,0.1788,0.178,0.177,0.1782,0.179,0.1791,0.179,-0.1592,-0.1592,-0.1592,-0.1592,-0.1592,-0.1592,-0.1592,-0.1667,-0.1969,-0.2322,-0.2625,-0.2651,-0.2726,-0.2901,-0.2977,-0.3229,-0.3655,-0.3756,-0.4033,-0.4458,-0.4483,-0.4609,-0.4782,-0.4782,-0.4782,-0.4782,-0.4782,-0.4782,-0.4759,-0.4782,-0.4782,-0.4784,-0.4784,-0.4634,-0.4358,-0.4259,-0.4259,-0.4259,-0.4284,-0.4384,-0.4485,-0.4359,-0.441,-0.4782,-0.4583,-0.4609,-0.4757,-0.4782,-0.4782,-0.4782,-0.4782,-0.4782,-0.4782,-0.4782,-0.4782,-0.4782,-0.4782,-0.4782,-0.4782,-0.4782,-0.4782,-0.4607,-0.4205,-0.3877,-0.3778,-0.4483,-0.3602,-0.2016,-0.0529,0.0151,0.0504,0.1488,0.2093,0.2396,0.2623,0.275,0.2876,0.2725,0.2625,0.2612,0.2464,0.2353,0.2273,0.207,0.1914,0.1789,0.1729,0.1672,0.1689,0.169,0.1692,0.1693,0.1695,0.1697,0.1694,0.166,0.1678,0.1686,0.1717,0.169,0.1697,0.1705,0.1718,0.1731,0.177,0.181,0.1799,0.1812,0.1814,0.1789,0.1793,0.1795,0.1793,0.1793,0.1793,-0.1592,-0.1592,-0.1592,-0.1592,-0.1592,-0.1592,-0.1592,-0.1693,-0.217,-0.2623,-0.2876,-0.3079,-0.3306,-0.3407,-0.3533,-0.3783,-0.4257,-0.4282,-0.4358,-0.4782,-0.4784,-0.4782,-0.4782,-0.4782,-0.4782,-0.4782,-0.4782,-0.4782,-0.4782,-0.4782,-0.4782,-0.4782,-0.4782,-0.4759,-0.4709,-0.4709,-0.4709,-0.4659,-0.4659,-0.4684,-0.4734,-0.4734,-0.4734,-0.4782,-0.4759,-0.4782,-0.4782,-0.4782,-0.4782,-0.4782,-0.4782,-0.4782,-0.4782,-0.4782,-0.4782,-0.4782,-0.4782,-0.4782,-0.4782,-0.4255,-0.4331,-0.4732,-0.3751,-0.3274,-0.3123,-0.3399,-0.2543,-0.1058,0.0631,0.0984,0.1085,0.2018,0.2246,0.2524,0.2675,0.2775,0.2927,0.275,0.2751,0.2764,0.2723,0.2645,0.2489,0.2309,0.2071,0.1945,0.1844,0.1783,0.1721,0.172,0.1723,0.1728,0.1731,0.1739,0.1741,0.171,0.1729,0.1748,0.1747,0.172,0.1728,0.1737,0.1749,0.1786,0.1795,0.1804,0.1814,0.1793,0.1792,0.1792,0.1794,0.1795,0.1795,0.1795,0.1795,-0.1592,-0.1592,-0.1592,-0.1592,-0.1592,-0.1592,-0.1617,-0.1718,-0.2271,-0.2548,-0.2597,-0.3229,-0.3632,-0.3957,-0.4008,-0.4284,-0.4634,-0.4709,-0.4734,-0.4782,-0.4782,-0.4782,-0.4782,-0.4782,-0.4782,-0.4782,-0.4782,-0.4782,-0.4782,-0.4782,-0.4782,-0.4782,-0.4782,-0.4782,-0.4782,-0.4782,-0.4782,-0.4782,-0.4782,-0.4782,-0.4782,-0.4782,-0.4782,-0.4782,-0.4782,-0.4782,-0.4782,-0.4782,-0.4782,-0.4782,-0.4782,-0.4782,-0.4782,-0.4782,-0.4782,-0.4782,-0.4782,-0.4782,-0.4659,-0.3979,-0.3828,-0.4205,-0.3373,-0.3173,-0.2746,-0.2065,-0.0958,-0.0177,0.106,0.1338,0.1641,0.1819,0.1996,0.2197,0.2372,0.2549,0.2801,0.2851,0.2876,0.2873,0.2839,0.2741,0.247,0.2274,0.2136,0.2037,0.1903,0.1816,0.1755,0.1778,0.1784,0.1772,0.1776,0.1785,0.1782,0.177,0.1765,0.1778,0.1778,0.1779,0.1788,0.1765,0.1772,0.178,0.1789,0.1795,0.1795,0.1795,0.1794,0.1795,0.1795,0.1795,0.1795,0.1795,0.1795,-0.1592,-0.1592,-0.1592,-0.1592,-0.1592,-0.1592,-0.202,-0.2751,-0.3305,-0.3729,-0.4131,-0.4257,-0.4358,-0.4583,-0.4583,-0.4659,-0.4734,-0.4784,-0.4784,-0.4782,-0.4782,-0.4782,-0.4782,-0.4782,-0.4782,-0.4782,-0.4782,-0.4782,-0.4782,-0.4782,-0.4782,-0.4782,-0.4782,-0.4782,-0.4782,-0.4782,-0.4782,-0.4782,-0.4782,-0.4782,-0.4782,-0.4782,-0.4782,-0.4782,-0.4782,-0.4782,-0.4782,-0.4782,-0.4782,-0.4782,-0.4782,-0.4782,-0.4782,-0.4782,-0.4782,-0.4782,-0.4782,-0.4759,-0.4609,-0.3803,-0.3376,-0.3247,-0.214,-0.1662,-0.126,-0.0656,0.053,0.101,0.1338,0.1616,0.167,0.1773,0.1922,0.2097,0.225,0.2406,0.2607,0.2649,0.2703,0.2818,0.2808,0.2695,0.2445,0.2276,0.2166,0.2069,0.1961,0.187,0.181,0.1805,0.1805,0.1791,0.1795,0.1795,0.1795,0.1785,0.1785,0.181,0.1805,0.1803,0.1807,0.1784,0.1792,0.1795,0.1795,0.1795,0.1795,0.1795,0.1795,0.1795,0.1795,0.1795,0.1795,0.1795,0.1795,-0.1592,-0.1617,-0.1843,-0.1918,-0.1994,-0.2372,-0.2852,-0.323,-0.3556,-0.3984,-0.4483,-0.4684,-0.4782,-0.4759,-0.4759,-0.4784,-0.4784,-0.4782,-0.4782,-0.4782,-0.4782,-0.4782,-0.4782,-0.4782,-0.4782,-0.4782,-0.4782,-0.4782,-0.4782,-0.4782,-0.4782,-0.4782,-0.4782,-0.4782,-0.4782,-0.4782,-0.4782,-0.4782,-0.4782,-0.4782,-0.4782,-0.4782,-0.4782,-0.4782,-0.4782,-0.4782,-0.4782,-0.4782,-0.4782,-0.4782,-0.4782,-0.4782,-0.4782,-0.4782,-0.4381,-0.4381,-0.4607,-0.4406,-0.4029,-0.3071,-0.2922,-0.2518,-0.1234,-0.0655,-0.0176,0.0353,0.1035,0.154,0.1742,0.1895,0.1799,0.1727,0.1899,0.2047,0.2155,0.229,0.2333,0.2349,0.2499,0.2662,0.2639,0.2571,0.2454,0.2285,0.2132,0.1991,0.1907,0.1849,0.1791,0.1789,0.1787,0.1793,0.1795,0.1795,0.1795,0.1795,0.1792,0.179,0.1789,0.1789,0.1795,0.1795,0.1795,0.1795,0.1795,0.1795,0.1795,0.1795,0.1795,0.1795,0.1795,0.1795,0.1795,0.1795,0.1795,-0.1642,-0.1717,-0.2196,-0.2422,-0.2597,-0.3353,-0.3555,-0.3306,-0.3355,-0.3581,-0.4158,-0.4609,-0.4782,-0.4782,-0.4782,-0.4782,-0.4782,-0.4782,-0.4782,-0.4782,-0.4782,-0.4782,-0.4782,-0.4782,-0.4782,-0.4782,-0.4782,-0.4782,-0.4782,-0.4782,-0.4782,-0.4782,-0.4782,-0.4782,-0.4782,-0.4782,-0.4782,-0.4782,-0.4782,-0.4782,-0.4782,-0.4782,-0.4782,-0.4782,-0.4782,-0.4782,-0.4782,-0.4782,-0.4782,-0.4782,-0.4782,-0.4782,-0.4782,-0.4757,-0.423,-0.4004,-0.4331,-0.413,-0.3475,-0.2468,-0.2392,-0.199,-0.1159,-0.0101,0.0631,0.0227,0.0479,0.149,0.1768,0.1793,0.1721,0.1728,0.1856,0.1962,0.2048,0.2213,0.2321,0.2294,0.2235,0.2368,0.2347,0.2267,0.222,0.2047,0.2019,0.1879,0.1823,0.1795,0.1795,0.1795,0.1795,0.1795,0.1795,0.1795,0.1795,0.1795,0.1795,0.1794,0.1795,0.1795,0.1795,0.1795,0.1795,0.1795,0.1795,0.1795,0.1795,0.1795,0.1795,0.1795,0.1795,0.1795,0.1795,0.1795,0.1795,-0.1843,-0.2221,-0.2346,-0.2623,-0.2953,-0.2851,-0.3251,-0.3783,-0.3808,-0.4108,-0.4583,-0.4734,-0.4782,-0.4782,-0.4782,-0.4782,-0.4782,-0.4782,-0.4782,-0.4782,-0.4782,-0.4782,-0.4782,-0.4782,-0.4782,-0.4782,-0.4782,-0.4782,-0.4782,-0.4782,-0.4782,-0.4782,-0.4782,-0.4782,-0.4782,-0.4782,-0.4782,-0.4782,-0.4782,-0.4782,-0.4782,-0.4782,-0.4782,-0.4782,-0.4782,-0.4782,-0.4782,-0.4782,-0.4782,-0.4782,-0.4782,-0.4782,-0.4782,-0.4782,-0.423,-0.3626,-0.4004,-0.3827,-0.2971,-0.199,-0.1764,-0.1159,-0.0303,0.0681,0.0858,-0.0177,-0.0151,0.1035,0.1667,0.1667,0.1695,0.1729,0.1789,0.1877,0.1941,0.211,0.2281,0.2159,0.2039,0.2006,0.2001,0.1974,0.1923,0.1879,0.1851,0.1823,0.1823,0.1795,0.1795,0.1795,0.1795,0.1795,0.1795,0.1795,0.1795,0.1795,0.1795,0.1795,0.1795,0.1795,0.1795,0.1795,0.1795,0.1795,0.1795,0.1795,0.1795,0.1795,0.1795,0.1795,0.1795,0.1795,0.1795,0.1795,0.1795,-0.1768,-0.2095,-0.2573,-0.2927,-0.3204,-0.3377,-0.3679,-0.3982,-0.4257,-0.4508,-0.4757,-0.4782,-0.4782,-0.4782,-0.4782,-0.4782,-0.4782,-0.4782,-0.4782,-0.4782,-0.4782,-0.4782,-0.4782,-0.4782,-0.4782,-0.4782,-0.4782,-0.4782,-0.4782,-0.4782,-0.4782,-0.4782,-0.4782,-0.4782,-0.4782,-0.4782,-0.4782,-0.4782,-0.4782,-0.4782,-0.4782,-0.4782,-0.4782,-0.4782,-0.4782,-0.4782,-0.4782,-0.4782,-0.4782,-0.4782,-0.4782,-0.4782,-0.4782,-0.4782,-0.3929,-0.3224,-0.3148,-0.3399,-0.2165,0.0,0.0,0.0,0.0454,0.1389,0.1439,0.0606,0.058,0.1592,0.1617,0.1617,0.17,0.1759,0.1773,0.1837,0.183,0.1899,0.1957,0.1909,0.1842,0.1832,0.185,0.1869,0.1839,0.1851,0.1823,0.1823,0.1795,0.1795,0.1795,0.1795,0.1795,0.1795,0.1795,0.1795,0.1795,0.1795,0.1795,0.1795,0.1795,0.1795,0.1795,0.1795,0.1795,0.1795,0.1795,0.1795,0.1795,0.1795,0.1795,0.1795,0.1795,0.1795,0.1823,0.1907,0.2158,-0.1693,-0.1944,-0.2877,-0.3356,-0.3506,-0.4259,-0.446,-0.4234,-0.4609,-0.4784,-0.4782,-0.4782,-0.4782,-0.4782,-0.4782,-0.4782,-0.4782,-0.4782,-0.4782,-0.4782,-0.4782,-0.4782,-0.4782,-0.4782,-0.4782,-0.4782,-0.4782,-0.4782,-0.4782,-0.4782,-0.4782,-0.4782,-0.4782,-0.4782,-0.4782,-0.4782,-0.4782,-0.4782,-0.4782,-0.4782,-0.4782,-0.4782,-0.4782,-0.4782,-0.4782,-0.4782,-0.4782,-0.4782,-0.4782,-0.4782,-0.4782,-0.4782,-0.4607,-0.4481,-0.3299,-0.2569,-0.2493,-0.1939,0.0,0.0,0.0,0.0,0.0,0.1541,0.1566,0.1566,0.1541,0.1541,0.1566,0.1619,0.1703,0.1761,0.1775,0.178,0.1748,0.1742,0.1744,0.1745,0.1731,0.1718,0.1757,0.18,0.1808,0.1793,0.1795,0.1795,0.1795,0.1795,0.1795,0.1795,0.1795,0.1795,0.1795,0.1795,0.1795,0.1795,0.1795,0.1795,0.1795,0.1795,0.1795,0.1795,0.1795,0.1795,0.1795,0.1795,0.1795,0.1795,0.1795,0.1795,0.1795,0.1823,0.1962,0.2158,0.2688,-0.2121,-0.2953,-0.3581,-0.4081,-0.4408,-0.4284,-0.4307,-0.4636,-0.4709,-0.4782,-0.4782,-0.4782,-0.4782,-0.4782,-0.4782,-0.4782,-0.4782,-0.4782,-0.4782,-0.4782,-0.4782,-0.4782,-0.4782,-0.4782,-0.4782,-0.4782,-0.4782,-0.4782,-0.4782,-0.4782,-0.4782,-0.4782,-0.4782,-0.4782,-0.4782,-0.4782,-0.4782,-0.4782,-0.4782,-0.4782,-0.4782,-0.4782,-0.4782,-0.4782,-0.4782,-0.4782,-0.4782,-0.4782,-0.4782,-0.4782,-0.4732,-0.4707,-0.4481,-0.3977,-0.2771,-0.2016,-0.194,-0.1083,0.0,0.0,0.0,0.0,0.1086,0.1566,0.1566,0.1566,0.1566,0.1566,0.1592,0.1592,0.1648,0.1651,0.1666,0.1722,0.1731,0.1755,0.1795,0.1795,0.1773,0.1777,0.178,0.1787,0.1789,0.1795,0.1795,0.1795,0.1795,0.1795,0.1795,0.1795,0.1795,0.1795,0.1795,0.1795,0.1795,0.1795,0.1795,0.1795,0.1795,0.1795,0.1795,0.1795,0.1795,0.1795,0.1795,0.1795,0.1795,0.1795,0.1795,0.1795,0.1795,0.1851,0.2018,0.2493,0.3135]},{"header":{"parameterUnit":"m.s-1","parameterCategory":1,"la1":31.0,"la2":29.5877,"lo1":-88.7671,"lo2":-86.6584,"dy":0.0162,"dx":0.0185,"nx":115,"ny":88,"refTime":"2024-09-18T06:00:00:Z","depth":0,"parameterNumber":3,"parameterNumberName":"V-component_of_WINDS"},"data":[0.0,0.0,0.0,0.0,0.0,0.0,0.0,0.0,0.0,0.0,0.0,0.0,0.0,0.0,0.0,0.0,0.0,0.0,0.0,0.0,0.0,0.0,0.0,0.0,0.0,0.0,0.0,0.0,0.0,0.0,0.0,0.0,0.0,0.0,0.0,0.0,0.0,0.0,0.0,0.0,0.0,0.0,0.0,0.0,0.0,0.0,0.0,0.0,0.0,0.0,0.0,0.0,0.0,0.0,0.0,0.0,0.0,0.0,0.0,0.0,0.0,0.0,0.0,0.0,0.0,0.0,0.0,0.0,0.0,0.0,0.0,0.0,0.0,0.0,0.0,0.0,0.0,0.0,0.0,0.0,0.0,0.0,0.0,0.0,0.0,0.0,0.0,0.0,0.0,0.0,0.0,0.0,0.0,0.0,0.0,0.0,0.0,0.0,0.0,0.0,0.0,0.0,0.0,0.0,0.0,0.0,0.0,0.0,0.0,0.0,0.0,0.0,0.0,0.0,0.0,0.0,0.0,0.0,0.0,0.0,0.0,0.0,0.0,0.0,0.0,0.0,0.0,0.0,0.0,0.0,0.0,0.0,0.0,0.0,0.0,0.0,0.0,0.0,0.0,0.0,0.0,0.0,0.0,0.0,0.0,0.0,0.0,0.0,0.0,0.0,0.0,0.0,0.0,0.0,0.0,0.0,0.0,0.0,0.0,0.0,0.0,0.0,0.0,0.0,0.0,0.0,0.0,0.0,0.0,0.0,0.0,0.0,0.0,0.0,0.0,0.0,0.0,0.0,0.0,0.0,0.0,0.0,0.0,0.0,0.0,0.0,0.0,0.0,0.0,0.0,0.0,0.0,0.0,0.0,0.0,0.0,0.0,0.0,0.0,0.0,0.0,0.0,0.0,0.0,0.0,0.0,0.0,0.0,0.0,0.0,0.0,0.0,0.0,0.0,0.0,0.0,0.0,0.0,0.0,0.0,0.0,0.0,0.0,0.0,0.0,0.0,0.0,0.0,0.0,0.0,0.0,0.0,0.0,0.0,0.0,0.0,0.0,0.0,0.0,0.0,0.0,0.0,0.0,0.0,0.0,0.0,0.0,0.0,0.0,0.0,0.0,0.0,0.0,0.0,0.0,0.0,0.0,0.0,0.0,0.0,0.0,0.0,0.0,0.0,0.0,0.0,0.0,0.0,0.0,0.0,0.0,0.0,0.0,0.0,0.0,0.0,0.0,0.0,0.0,0.0,0.0,0.0,0.0,0.0,0.0,0.0,0.0,0.0,0.0,0.0,0.0,0.0,0.0,0.0,0.0,0.0,0.0,0.0,0.0,0.0,0.0,0.0,0.0,0.0,0.0,0.0,0.0,0.0,0.0,0.0,0.0,0.0,0.0,0.0,0.0,0.0,0.0,0.0,0.0,0.0,0.0,0.0,0.0,0.0,0.0,0.0,0.0,0.0,0.0,0.0,0.0,0.0,0.0,0.0,0.0,0.0,0.0,0.0,0.0,0.0,0.0,0.0,0.0,0.0,0.0,0.0,0.0,0.0,0.0,0.0,0.0,0.0,0.0,0.0,0.0,0.0,0.0,0.0,0.0,0.0,0.0,0.0,0.0,0.0,0.0,0.0,0.0,0.0,0.0,0.0,0.0,0.0,0.0,0.0,0.0,0.0,0.0,0.0,0.0,0.0,0.0,0.0,0.0,0.0,0.0,0.0,0.0,0.0,0.0,0.0,0.0,0.0,0.0,0.0,0.0,0.0,0.0,0.0,0.0,0.0,0.0,0.0,0.0,0.0,0.0,0.0,0.0,0.0,0.0,0.0,0.0,0.0,0.0,0.0,0.0,0.0,0.0,0.0,0.0,0.0,0.0,0.0,0.0,0.0,0.0,0.0,0.0,0.0,0.0,0.0,0.0,0.0,0.0,0.0,0.0,0.0,0.0,0.0,0.0,0.0,0.0,0.0,0.0,0.0,0.0,0.0,0.0,0.0,0.0,0.0,0.0,0.0,0.0,0.0,0.0,0.0,0.0,0.0,0.0,0.0,0.0,0.0,0.0,0.0,0.0,0.0,0.0,0.0,0.0,0.0,0.0,0.0,0.0,0.0,0.0,0.0,0.0,0.0,0.0,0.0,0.0,0.0,0.0,0.0,0.0,0.0,0.0,0.0,0.0,0.0,0.0,0.0,0.0,0.0,0.0,0.0,0.0,0.0,0.0,0.0,0.0,0.0,0.0,0.0,0.0,0.0,0.0,0.0,0.0,0.0,0.0,0.0,0.0,0.0,0.0,0.0,0.0,0.0,0.0,0.0,0.0,0.0,0.0,0.0,0.0,0.0,0.0,0.0,0.0,0.0,0.0,0.0,0.0,0.0,0.0,0.0,0.0,0.0,0.0,0.0,0.0,0.0,0.0,0.0,0.0,0.0,0.0,0.0,0.0,0.0,0.0,0.0,0.0,0.0,0.0,0.0,0.0,0.0,0.0,0.0,0.0,0.0,0.0,0.0,0.0,0.0,0.0,0.0,0.0,0.0,0.0,0.0,0.0,0.0,0.0,0.0,0.0,0.0,0.0,0.0,0.0,0.0,0.0,0.0,0.0,0.0,0.0,0.0,0.0,0.0,0.0,0.0,0.0,0.0,0.0,0.0,0.0,0.0,0.0,0.0,0.0,0.0,0.0,0.0,0.0,0.0,0.0,0.0,0.0,0.0,0.0,0.0,0.0,0.0,0.0,0.0,0.0,0.0,0.0,0.0,0.0,0.0,0.0,0.0,0.0,0.0,0.0,0.0,0.0,0.0,0.0,0.0,0.0,0.0,0.0,0.0,0.0,0.0,0.0,0.0,0.0,0.0,0.0,0.0,0.0,0.0,0.0,0.0,0.0,0.0,0.0,0.0,0.0,0.0,0.0,0.0,0.0,0.0,0.0,0.0,0.0,0.0,0.0,0.0,0.0,0.0,0.0,0.0,0.0,0.0,0.0,0.0,0.0,0.0,0.0,0.0,0.0,0.0,0.0,0.0,0.0,0.0,0.0,0.0,0.0,0.0,0.0,0.0,0.0,0.0,0.0,0.0,0.0,0.0,0.0,0.0,0.0,0.0,0.0,0.0,0.0,0.0,0.0,0.0,0.0,0.0,0.0,0.0,0.0,0.0,0.0,0.0,0.0,0.0,0.0,0.0,0.0,0.0,0.0,0.0,0.0,0.0,0.0,0.0,0.0,0.0,0.0,0.0,0.0,0.0,0.0,0.0,0.0,0.0,0.0,0.0,0.0,0.0,0.0,0.0,0.0,0.0,0.0,0.0,0.0,0.0,0.0,0.0,0.0,0.0,0.0,0.0,0.0,0.0,0.0,0.0,0.0,0.0,0.0,0.0,0.0,0.0,0.0,0.0,0.0,0.0,0.0,0.0,0.0,0.0,0.0,0.0,0.0,0.0,0.0,0.0,0.0,0.0,0.0,0.0,0.0,0.0,0.0,0.0,0.0,0.0,0.0,0.0,0.0,0.0,0.0,0.0,0.0,0.0,0.0,0.0,0.0,0.0,0.0,0.0,0.0,0.0,0.0,0.0,0.0,0.0,0.0,0.0,0.0,0.0,0.0,0.0,0.0,0.0,0.0,0.0,0.0,0.0,0.0,0.0,0.0,0.0,0.0,0.0,0.0,0.0,0.0,0.0,0.0,0.0,0.0,0.0,0.0,0.0,0.0,0.0,0.0,0.0,0.0,0.0,0.0,0.0,0.0,0.0,0.0,0.0,0.0,0.0,0.0,0.0,0.0,0.0,0.0,0.0,0.0,0.0,0.0,0.0,0.0,0.0,0.0,0.0,0.0,0.0,0.0,0.0,0.0,0.0,0.0,0.0,0.0,0.0,0.0,0.0,0.0,0.0,0.0,0.0,0.0,0.0,0.0,0.0,0.0,0.0,0.0,0.0,0.0,0.0,0.0,0.0,0.0,0.0,0.0,0.0,0.0,0.0,0.0,0.0,0.0,0.0,0.0,0.0,0.0,0.0,0.0,0.0,0.0,0.0,0.0,0.0,0.0,0.0,0.0,0.0,0.0,0.0,0.0,0.0,0.0,0.0,0.0,0.0,0.0,0.0,0.0,0.0,0.0,0.0,0.0,0.0,0.0,0.0,0.0,0.0,0.0,0.0,0.0,0.0,0.0,0.0,0.0,0.0,0.0,0.0,0.0,0.0,0.0,0.0,0.0,0.0,0.0,0.0,0.0,0.0,0.0,0.0,0.0,0.0,0.0,0.0,0.0,0.0,0.0,0.0,0.0,0.0,0.8846,0.0,0.0,0.0,0.0,0.0,0.0,0.0,0.0,0.0,0.0,0.0,0.0,0.0,0.0,0.0,0.0,0.0,0.0,0.0,0.0,0.0,0.0,0.0,0.0,0.0,0.0,0.0,0.0,0.0,0.0,0.0,0.0,0.0,0.0,0.0,0.0,0.0,0.0,0.0,0.0,0.0,0.0,0.0,0.0,0.0,0.0,0.0,0.0,0.0,0.0,0.0,0.0,0.0,0.0,0.0,0.0,0.0,0.0,0.0,0.0,0.0,0.0,0.0,0.0,0.0,0.0,0.0,0.0,0.0,0.0,0.0,0.0,0.0,0.0,0.0,0.0,0.0,0.0,0.0,0.0,0.0,0.0,0.0,0.0,0.0,0.0,0.0,0.0,0.0,0.0,0.0,0.0,0.0,0.0,0.0,0.0,0.0,0.0,0.0,0.0,0.0,0.0,0.0,0.0,0.0,0.0,0.0,0.0,0.0,0.0,0.7841,0.8022,0.8132,0.8292,0.8567,0.0,0.0,0.0,0.0,0.0,0.0,0.0,0.0,0.0,0.0,0.0,0.0,0.0,0.0,0.0,0.0,0.0,0.0,0.0,0.0,0.0,0.0,0.0,0.0,0.0,0.0,0.0,0.0,0.0,0.0,0.0,0.0,0.0,0.0,0.0,0.0,0.0,0.0,0.0,0.0,0.0,0.0,0.0,0.0,0.0,0.0,0.0,0.0,0.0,0.0,0.0,0.0,0.0,0.0,0.0,0.0,0.0,0.0,0.0,0.0,0.0,0.0,0.0,0.0,0.0,0.0,0.0,0.0,0.0,0.0,0.0,0.0,0.0,0.0,0.0,0.0,0.0,0.0,0.0,0.0,0.0,0.0,0.0,0.0,0.0,0.0,0.0,0.0,0.0,0.0,0.0,0.0,0.0,0.0,0.0,0.0,0.0,0.0,0.0,0.0,0.0,0.0,0.0,0.0,0.0,0.0,0.0,0.0,0.0,0.0,0.0,0.0,0.8458,0.8595,0.8805,0.0,0.0,0.0,0.0,0.0,0.0,0.0,0.0,0.0,0.0,0.0,0.0,0.0,0.0,0.0,0.0,0.0,0.0,0.0,0.0,0.0,0.0,0.0,0.0,0.0,0.0,0.0,0.0,0.0,0.0,0.0,0.0,0.0,0.0,0.0,0.0,0.0,0.0,0.0,0.0,0.0,0.0,0.0,0.0,0.0,0.0,0.0,0.0,0.0,0.0,0.0,0.0,0.0,0.0,0.0,0.0,0.0,0.0,0.0,0.0,0.0,0.0,0.0,0.0,0.0,0.0,0.0,0.0,0.0,0.0,0.0,0.0,0.0,0.0,0.0,0.0,0.0,0.0,0.0,0.0,0.0,0.0,0.0,0.0,0.0,0.0,0.0,0.0,0.0,0.0,0.0,0.0,0.0,0.0,0.0,0.0,0.0,0.0,0.0,0.0,0.0,0.0,0.0,0.0,0.0,0.0,0.0,0.0,0.0,0.0,0.853,0.9848,0.9952,0.0,1.0308,0.0,0.0,0.0,0.0,0.0,0.0,0.0,0.0,0.0,0.0,0.0,0.0,0.0,0.0,0.0,0.0,0.0,0.0,0.0,0.0,0.0,0.0,0.0,0.0,0.0,0.0,0.0,0.0,0.0,0.0,0.0,0.0,0.0,0.0,0.0,0.0,0.0,0.0,0.0,0.0,0.0,0.0,0.0,0.0,0.0,0.0,0.0,0.0,0.0,0.0,0.0,0.0,0.0,0.0,0.0,0.0,0.0,0.0,0.0,0.0,0.0,0.0,0.0,0.0,0.0,0.0,0.0,0.0,0.0,0.0,0.0,0.0,0.0,0.0,0.0,0.0,0.0,0.0,0.0,0.0,0.0,0.0,0.0,0.0,0.0,0.0,0.0,0.0,0.0,0.0,0.0,0.0,0.0,0.0,0.0,0.0,0.0,0.0,0.0,0.0,0.0,0.0,0.0,0.0,0.0,0.0,0.0,0.0,0.0,0.0,0.9225,0.9843,1.0051,1.0289,0.0,0.0,0.0,0.0,0.0,0.0,0.0,0.0,0.0,0.0,0.0,0.0,0.0,0.0,0.0,0.0,0.0,0.0,0.0,0.0,0.0,0.0,0.0,0.0,0.0,0.0,0.0,0.0,0.0,0.0,0.0,0.0,0.0,0.0,0.0,0.0,0.0,0.0,0.0,0.0,0.0,0.0,0.0,0.0,0.0,0.0,0.0,0.0,0.0,0.0,0.0,0.0,0.0,0.0,0.0,0.0,0.0,0.0,0.0,0.0,0.0,0.0,0.0,0.0,0.0,0.0,0.0,0.0,0.0,0.0,0.0,0.0,0.0,0.0,0.0,0.0,0.0,0.0,0.0,0.0,0.0,0.0,0.0,0.0,0.0,0.0,0.0,0.0,0.0,0.0,0.0,0.0,0.0,0.0,0.0,0.0,0.0,0.0,0.0,0.0,0.0,0.0,0.0,0.0,0.0,0.0,0.0,0.0,0.0,0.0,0.9237,0.9801,1.0229,1.0623,1.0761,1.0603,0.0,0.0,0.0,0.0,0.0,0.0,0.0,0.0,0.0,0.0,0.0,0.0,0.0,0.0,0.0,0.0,0.0,0.0,0.0,0.0,0.0,0.0,0.0,0.0,0.0,0.0,0.0,0.0,0.0,0.0,0.0,0.0,0.0,0.0,0.0,0.0,0.0,0.0,0.0,0.0,0.0,0.0,0.0,0.0,0.0,0.0,0.0,0.0,0.0,0.0,0.0,0.0,0.0,0.0,0.0,0.0,0.0,0.0,0.0,0.0,0.0,0.0,0.0,0.0,0.0,0.0,0.0,0.0,0.0,0.0,0.0,0.0,0.0,0.0,0.0,0.0,0.0,0.0,0.0,0.0,0.0,0.0,0.0,0.0,0.0,0.0,0.0,0.0,0.0,0.0,0.0,0.0,0.0,0.0,0.0,0.0,0.0,0.0,0.0,0.0,0.0,0.0,0.0,0.0,0.0,0.0,0.0,0.0,1.1181,1.0196,1.0264,1.1587,1.2239,1.1874,0.0,0.0,0.0,0.0,0.0,0.0,0.0,0.0,0.0,0.0,0.0,0.0,0.0,0.0,0.0,0.0,0.0,0.0,0.0,0.0,0.0,0.0,0.0,0.0,0.0,0.0,0.0,0.0,0.0,0.0,0.0,0.0,0.0,0.0,0.0,0.0,0.0,0.0,0.0,0.0,0.0,0.0,0.0,0.0,0.0,0.0,0.0,0.0,0.0,0.0,0.0,0.0,0.0,0.0,0.0,0.0,0.0,0.0,0.0,0.0,0.0,0.0,0.0,0.0,0.0,0.0,0.0,0.0,0.0,0.0,0.0,0.0,0.0,0.0,0.0,0.0,0.0,0.0,0.0,0.0,0.0,0.0,0.0,0.0,0.0,0.0,0.0,0.0,0.0,0.0,0.0,0.0,0.0,0.0,0.0,0.0,0.0,0.0,0.0,0.0,0.0,0.0,0.0,0.0,0.0,0.0,0.0,0.0,0.0,0.8687,0.9328,1.0887,1.3302,1.2007,1.1445,0.0,0.0,0.0,0.0,0.0,0.0,0.0,0.0,0.0,0.0,0.0,0.0,0.0,0.0,0.0,0.0,0.0,0.0,0.0,0.0,0.0,0.0,0.0,0.0,0.0,0.0,0.0,0.0,0.0,0.0,0.0,0.0,0.0,0.0,0.0,0.0,0.0,0.0,0.0,0.0,0.0,0.0,0.0,0.0,0.0,0.0,0.0,0.0,0.0,0.0,0.0,0.0,0.0,0.0,0.0,0.0,0.0,0.0,0.0,0.0,0.0,0.0,0.0,0.0,0.0,0.0,0.0,0.0,0.0,0.0,0.0,0.0,0.0,0.0,0.0,0.0,0.0,0.0,0.0,0.0,0.0,0.0,0.0,0.0,0.0,0.0,0.0,0.0,0.0,0.0,0.0,0.0,0.0,0.0,0.0,0.0,0.0,0.0,0.0,0.0,0.0,0.0,0.0,0.0,0.0,0.0,0.0,0.0,0.0,0.857,0.0,1.1925,1.3412,1.2013,1.1274,0.0,0.0,0.0,0.0,0.0,0.0,0.0,0.0,0.0,0.0,0.0,0.0,0.0,0.0,0.0,0.0,0.0,0.0,0.0,0.0,0.0,0.0,0.0,0.0,0.0,0.0,0.0,0.0,0.0,0.0,0.0,0.0,0.0,0.0,0.0,0.0,0.0,0.0,0.0,0.0,0.0,0.0,0.0,0.0,0.0,0.0,0.0,0.0,0.0,0.0,0.0,0.0,0.0,0.0,0.0,0.0,0.0,0.0,0.0,0.0,0.0,0.0,0.0,0.0,0.0,0.0,0.0,0.0,0.0,0.0,0.0,0.0,0.0,0.0,0.0,0.0,0.0,0.0,0.0,0.0,0.0,0.0,0.0,0.0,0.0,0.0,0.0,0.0,0.0,0.0,0.0,0.0,0.0,0.0,0.0,0.0,0.0,0.0,0.0,0.0,0.0,0.0,0.0,0.0,0.0,0.0,0.0,0.0,0.8647,1.1422,1.3082,1.3195,1.1842,1.2409,1.1415,0.0,0.0,0.0,0.0,0.0,0.0,0.0,0.0,0.0,0.0,0.0,0.0,0.0,0.0,0.0,0.0,0.0,0.0,0.0,0.0,0.0,0.0,0.0,0.0,0.0,0.0,0.0,0.0,0.0,0.0,0.0,0.0,0.0,0.0,0.0,0.0,0.0,0.0,0.0,0.0,0.0,0.0,0.0,0.0,0.0,0.0,0.0,0.0,0.0,0.0,0.0,0.0,0.0,0.0,0.0,0.0,0.0,0.0,0.0,0.0,0.0,0.0,0.0,0.0,0.0,0.0,0.0,0.0,0.0,0.0,0.0,0.0,0.0,0.0,0.0,0.0,0.0,0.0,0.0,0.0,0.0,0.0,0.0,0.0,0.0,0.0,0.0,0.0,0.0,0.0,0.0,0.0,0.0,0.0,0.0,0.0,0.0,0.0,0.0,0.0,0.0,0.0,0.0,0.0,0.0,0.0,0.0,0.0,0.0,1.0299,1.1609,1.2749,1.3575,1.1682,1.0932,0.0,0.0,0.0,0.0,0.0,0.0,0.0,0.0,0.0,0.0,0.0,0.0,0.0,0.0,0.0,0.0,0.0,0.0,0.0,0.0,0.0,0.0,0.0,0.0,0.0,0.0,0.0,0.0,0.0,0.0,0.0,0.0,0.0,0.0,0.0,0.0,0.0,0.0,0.0,0.0,0.0,0.0,0.0,0.0,0.0,0.0,0.0,0.0,0.0,0.0,0.0,0.0,0.0,0.0,0.0,0.0,0.0,0.0,0.0,0.0,0.0,0.0,0.0,0.0,0.0,0.0,0.0,0.0,0.0,0.0,0.0,0.0,0.0,0.0,0.0,0.0,0.0,0.0,0.0,0.0,0.0,0.0,0.0,0.0,0.0,0.0,0.0,0.0,0.0,0.0,0.0,0.0,0.0,0.0,0.0,0.0,0.0,0.0,0.0,0.0,0.0,0.0,0.0,0.0,0.0,0.0,0.0,0.0,0.0,1.1617,1.2684,1.3618,1.4413,1.2319,1.149,1.2128,0.0,0.0,0.0,0.0,0.0,0.0,0.0,0.0,0.0,0.0,0.0,0.0,0.0,0.0,0.0,0.0,0.0,0.0,0.0,0.0,0.0,0.0,0.0,0.0,0.0,0.0,0.0,0.0,0.0,0.0,0.0,0.0,0.0,0.0,0.0,0.0,0.0,0.0,0.0,0.0,0.0,0.0,0.0,0.0,0.0,0.0,0.0,0.0,0.0,0.0,0.0,0.0,0.0,0.0,0.0,0.0,0.0,0.0,0.0,0.0,0.0,0.0,0.0,0.0,0.0,0.0,0.0,0.0,0.0,0.0,0.0,0.0,0.0,0.0,0.0,0.0,0.0,0.0,0.0,0.0,0.0,0.0,0.0,0.0,0.0,0.0,0.0,0.0,0.0,0.0,0.0,0.0,0.0,0.0,0.0,0.0,0.0,0.0,0.0,0.0,0.0,0.0,0.0,0.0,0.0,0.0,0.0,0.0,1.4705,1.5776,1.5703,1.447,1.4003,1.2882,0.0,0.0,0.0,0.0,0.0,0.0,0.0,0.0,0.0,0.0,0.0,0.0,0.0,0.0,0.0,0.0,0.0,0.0,0.0,0.0,0.0,0.0,0.0,0.0,0.0,0.0,0.0,0.0,0.0,0.0,0.0,0.0,0.0,0.0,0.0,0.0,0.0,0.0,0.0,0.0,0.0,0.0,0.0,0.0,0.0,0.0,0.0,0.0,0.0,0.0,0.0,0.0,0.0,0.0,0.0,0.0,0.0,0.0,0.0,0.0,0.0,0.0,0.0,0.0,0.0,0.0,0.0,0.0,0.0,0.0,0.0,0.0,0.0,0.0,0.0,0.0,0.0,0.0,0.0,0.0,0.0,0.0,0.0,0.0,0.0,0.0,0.0,0.0,0.0,0.0,0.0,0.0,0.0,0.0,0.0,0.0,0.0,0.0,0.0,0.0,0.0,0.0,0.0,0.0,0.0,0.0,0.0,0.0,0.0,1.5067,1.706,1.7671,1.6714,1.5014,1.3597,0.0,0.0,0.0,0.0,0.0,0.0,0.0,0.0,0.0,0.0,0.0,0.0,0.0,0.0,0.0,0.0,0.0,0.0,0.0,0.0,0.0,0.0,0.0,0.0,0.0,0.0,0.0,0.0,0.0,0.0,0.0,0.0,0.0,0.0,0.0,0.0,0.0,0.0,0.0,0.0,0.0,0.0,0.0,0.0,0.0,0.0,0.0,0.0,0.0,0.0,0.0,0.0,0.0,0.0,0.0,0.0,0.0,0.0,0.0,0.0,0.0,0.0,0.0,0.0,0.0,0.0,0.0,0.0,0.0,0.0,0.0,0.0,0.0,0.0,0.0,0.0,0.0,0.0,0.0,0.0,0.0,0.0,0.0,0.0,0.0,0.0,0.0,0.0,0.0,0.0,0.0,0.0,0.0,0.0,0.0,0.0,0.0,0.0,0.0,0.0,0.0,0.0,0.0,0.0,0.0,0.0,0.0,0.0,1.4395,1.6457,1.8288,1.9057,1.8702,1.6836,1.5118,0.0,0.0,0.0,0.0,0.0,0.0,0.0,0.0,0.0,0.0,0.0,0.0,0.0,0.0,0.0,0.0,0.0,0.0,0.0,0.0,0.0,0.0,0.0,0.0,0.0,0.0,0.0,0.0,0.0,0.0,0.0,0.0,0.0,0.0,0.0,0.0,0.0,0.0,0.0,0.0,0.0,0.0,0.0,0.0,0.0,0.0,0.0,0.0,0.0,0.0,0.0,0.0,0.0,0.0,0.0,0.0,0.0,0.0,0.0,0.0,0.0,0.0,0.0,0.0,0.0,0.0,0.0,0.0,0.0,0.0,0.0,0.0,0.0,0.0,0.0,0.0,0.0,0.0,0.0,0.0,0.0,0.0,0.0,0.0,0.0,0.0,0.0,0.0,0.0,0.0,0.0,0.0,0.0,0.0,0.0,0.0,0.0,0.0,0.0,0.0,0.0,0.0,0.0,0.0,0.0,0.0,0.0,0.0,1.534,1.8161,1.9404,2.0078,2.0199,1.8882,1.6942,0.0,0.0,0.0,0.0,0.0,0.0,0.0,0.0,0.0,0.0,0.0,0.0,0.0,0.0,0.0,0.0,0.0,0.0,0.0,0.0,0.0,0.0,0.0,0.0,0.0,0.0,0.0,0.0,0.0,0.0,0.0,0.0,0.0,0.0,0.0,0.0,0.0,0.0,0.0,0.0,0.0,0.0,0.0,0.0,0.0,0.0,0.0,0.0,0.0,0.0,0.0,0.0,0.0,0.0,0.0,0.0,0.0,0.0,0.0,0.0,0.0,0.0,0.0,0.0,0.0,0.0,0.0,0.0,0.0,0.0,0.0,0.0,0.0,0.0,0.0,0.0,0.0,0.0,0.0,0.0,0.0,0.0,0.0,0.0,0.0,0.0,0.0,0.0,0.0,0.0,0.0,0.0,0.0,0.0,0.0,0.0,0.0,0.0,0.0,0.0,0.0,0.0,0.0,0.0,0.0,0.0,0.0,0.0,1.6695,1.7891,2.017,2.1138,2.0596,1.9187,1.7359,0.0,0.0,0.0,0.0,0.0,0.0,0.0,0.0,0.0,0.0,0.0,0.0,0.0,0.0,0.0,0.0,0.0,0.0,0.0,0.0,0.0,0.0,0.0,0.0,0.0,0.0,0.0,0.0,0.0,0.0,0.0,0.0,0.0,0.0,0.0,0.0,0.0,0.0,0.0,0.0,0.0,0.0,0.0,0.0,0.0,0.0,0.0,0.0,1.4707,0.0,0.0,0.0,0.0,0.0,0.0,0.0,0.0,0.0,0.0,0.0,0.0,0.0,0.0,0.0,0.0,0.0,0.0,0.0,0.0,0.0,0.0,0.0,0.0,0.0,0.0,0.0,0.0,0.0,0.0,0.0,0.0,0.0,0.0,0.0,0.0,0.0,0.0,0.0,0.0,0.0,0.0,0.0,0.0,0.0,0.0,0.0,0.0,0.0,0.0,0.0,0.0,0.0,0.0,0.0,0.0,0.0,0.0,0.0,1.7469,1.8938,2.0508,2.1299,2.1177,1.9787,1.8021,0.0,0.0,0.0,0.0,0.0,0.0,0.0,0.0,0.0,0.0,0.0,0.0,0.0,0.0,0.0,0.0,0.0,0.0,0.0,0.0,0.0,0.0,0.0,0.0,0.0,0.0,0.0,0.0,0.0,0.0,0.0,0.0,0.0,0.0,0.0,0.0,0.0,0.0,0.0,0.0,0.0,0.0,0.0,0.0,0.0,0.0,0.0,0.0,0.0,0.0,0.0,0.0,0.0,0.0,0.0,0.0,0.0,0.0,0.0,0.0,0.0,0.0,0.0,0.0,0.0,0.0,0.0,0.0,0.0,0.0,0.0,0.0,0.0,0.0,0.0,0.0,0.0,0.0,0.0,0.0,0.0,0.0,0.0,0.0,0.0,0.0,0.0,0.0,0.0,0.0,0.0,0.0,0.0,0.0,0.0,0.0,0.0,0.0,0.0,0.0,0.0,0.0,0.0,0.0,0.0,0.0,0.0,1.5703,1.7907,2.0123,2.0647,2.1166,2.1757,2.0376,1.8644,1.6636,0.0,0.0,0.0,0.0,0.0,0.0,0.0,0.0,0.0,0.0,0.0,0.0,0.0,0.0,0.0,0.0,0.0,0.0,0.0,0.0,0.0,0.0,0.0,0.0,0.0,0.0,0.0,0.0,0.0,0.0,0.0,0.0,0.0,0.0,0.0,0.0,0.0,0.0,1.2246,1.5055,0.0,0.0,0.0,0.0,0.0,0.0,0.0,0.0,1.6133,0.0,0.0,0.0,0.0,0.0,0.0,0.0,0.0,0.0,0.0,0.0,0.0,0.0,0.0,0.0,0.0,0.0,0.0,0.0,0.0,0.0,0.0,0.0,0.0,0.0,0.0,0.0,0.0,0.0,0.0,0.0,0.0,0.0,0.0,0.0,0.0,0.0,0.0,0.0,0.0,0.0,0.0,0.0,0.0,0.0,0.0,0.0,0.0,0.0,0.0,0.0,0.0,0.0,0.0,0.0,0.0,1.5321,1.6577,1.8064,1.9836,2.0758,2.141,2.1757,2.0359,1.8886,1.7326,0.0,0.0,0.0,0.0,0.0,0.0,0.0,0.0,0.0,0.0,0.0,0.0,0.0,0.0,0.0,0.0,0.0,0.0,0.0,0.0,0.0,0.0,0.0,0.0,0.0,0.0,0.0,0.0,0.0,0.0,0.0,0.0,0.0,0.0,0.0,0.0,0.0,0.0,0.0,1.6479,1.7962,0.0,0.0,0.0,0.0,0.0,0.0,0.0,0.0,1.6812,0.0,0.0,0.0,0.0,0.0,0.0,0.0,0.0,0.0,0.0,0.0,0.0,0.0,0.0,0.0,0.0,0.0,0.0,0.0,0.0,0.0,0.0,0.0,0.0,0.0,0.0,0.0,0.0,0.0,0.0,0.0,0.0,0.0,0.0,0.0,0.0,0.0,0.0,0.0,0.0,0.0,0.0,0.0,0.0,0.0,0.0,0.0,0.0,0.0,0.0,0.0,0.0,0.0,0.0,0.0,1.5714,1.7266,1.8934,2.0756,2.1138,2.1464,2.1757,2.0002,1.8555,0.0,0.0,0.0,0.0,0.0,0.0,0.0,0.0,0.0,0.0,0.0,0.0,0.0,0.0,0.0,0.0,0.0,0.0,0.0,0.0,0.0,0.0,0.0,0.0,0.0,0.0,0.0,0.0,0.0,0.0,0.0,0.0,0.0,0.0,0.0,0.0,0.0,0.0,0.0,0.0,1.7469,1.8576,1.9738,0.0,0.0,0.0,0.0,0.0,0.0,1.7901,1.7321,0.0,0.0,0.0,0.0,0.0,0.0,0.0,0.0,0.0,0.0,0.0,0.0,0.0,0.0,0.0,0.0,0.0,0.0,0.0,0.0,0.0,0.0,0.0,0.0,0.0,0.0,0.0,0.0,0.0,0.0,0.0,0.0,0.0,0.0,0.0,0.0,0.0,0.0,0.0,0.0,0.0,0.0,0.0,0.0,0.0,0.0,0.0,0.0,0.0,0.0,0.0,0.0,0.0,0.0,0.0,1.5843,1.7612,1.9545,2.1555,2.1441,2.1464,2.174,1.9803,1.8346,0.0,0.0,0.0,0.0,0.0,0.0,0.0,0.0,0.0,0.0,0.0,0.0,0.0,0.0,0.0,0.0,0.0,0.0,0.0,0.0,0.0,0.0,0.0,0.0,0.0,0.0,0.0,0.0,0.0,0.0,0.0,0.0,0.0,0.0,0.0,0.0,0.0,0.0,0.0,0.0,0.0,1.9489,2.0139,1.9605,0.0,0.0,0.0,0.0,1.9664,1.9114,0.0,0.0,0.0,0.0,0.0,0.0,0.0,0.0,0.0,0.0,0.0,0.0,0.0,0.0,0.0,0.0,0.0,0.0,0.0,0.0,0.0,0.0,0.0,0.0,0.0,0.0,0.0,0.0,0.0,0.0,0.0,0.0,0.0,0.0,0.0,0.0,0.0,0.0,0.0,0.0,0.0,0.0,0.0,0.0,0.0,0.0,0.0,0.0,0.0,0.0,0.0,0.0,0.0,0.0,0.0,0.0,1.6127,1.727,1.8975,2.1227,2.1325,2.1457,2.1757,2.0293,1.8853,0.0,0.0,0.0,0.0,0.0,0.0,0.0,0.0,0.0,0.0,0.0,0.0,0.0,0.0,0.0,0.0,0.0,0.0,0.0,0.0,0.0,0.0,0.0,0.0,0.0,0.0,0.0,0.0,0.0,0.0,0.0,0.0,0.0,0.0,0.0,0.0,0.0,0.0,0.0,0.0,0.0,2.1148,2.0408,2.0926,2.1192,0.0,0.0,2.1133,2.0652,2.1523,0.0,0.0,0.0,0.0,0.0,0.0,0.0,0.0,0.0,0.0,0.0,0.0,0.0,0.0,0.0,0.0,0.0,0.0,0.0,0.0,0.0,0.0,0.0,0.0,0.0,0.0,0.0,0.0,0.0,0.0,0.0,0.0,0.0,0.0,0.0,0.0,0.0,0.0,0.0,0.0,0.0,0.0,0.0,0.0,0.0,0.0,0.0,0.0,0.0,0.0,0.0,0.0,0.0,0.0,0.0,1.3611,1.6671,1.8099,1.9677,2.1497,2.1587,2.1655,2.1781,1.9985,1.8329,0.0,0.0,0.0,0.0,0.0,0.0,0.0,0.0,0.0,0.0,0.0,0.0,0.0,0.0,0.0,0.0,0.0,0.0,0.0,0.0,0.0,0.0,0.0,0.0,0.0,0.0,0.0,0.0,0.0,0.0,0.0,0.0,0.0,0.0,0.0,0.0,0.0,0.0,0.0,0.0,0.0,0.0,2.1159,2.1552,0.0,0.0,0.0,2.2459,2.255,0.0,0.0,0.0,0.0,0.0,0.0,0.0,0.0,0.0,0.0,0.0,0.0,0.0,0.0,0.0,0.0,0.0,0.0,0.0,0.0,0.0,0.0,0.0,0.0,0.0,0.0,0.0,0.0,0.0,0.0,0.0,0.0,0.0,0.0,0.0,0.0,0.0,0.0,0.0,0.0,0.0,0.0,0.0,0.0,0.0,0.0,0.0,0.0,0.0,0.0,0.0,0.0,0.0,0.0,0.0,0.0,0.0,1.7048,1.8756,2.0309,2.1739,2.1781,2.1781,2.1755,1.9836,0.0,0.0,0.0,0.0,0.0,0.0,0.0,0.0,0.0,0.0,0.0,0.0,0.0,0.0,0.0,0.0,0.0,0.0,0.0,0.0,0.0,0.0,0.0,0.0,0.0,0.0,0.0,0.8042,0.0,0.0,0.0,0.0,0.0,0.0,0.0,0.0,0.0,0.0,0.0,0.0,0.0,0.0,2.1211,2.2186,2.2663,2.3311,0.0,0.0,2.3708,2.4273,2.4049,2.318,0.0,0.0,0.0,0.0,0.0,0.0,0.0,0.0,0.0,0.0,0.0,0.0,0.0,0.0,0.0,0.0,0.0,0.0,0.0,0.0,0.0,0.0,0.0,0.0,0.0,0.0,0.0,0.0,0.0,0.0,0.0,0.0,0.0,0.0,0.0,0.0,0.0,0.0,0.0,0.0,0.0,0.0,0.0,0.0,0.0,0.0,0.0,0.0,0.0,0.0,0.0,0.0,0.0,0.0,1.4272,1.7038,1.8756,2.0309,2.1731,2.1781,2.1781,2.1772,2.0333,1.8869,0.0,0.0,0.0,0.0,0.0,0.0,0.0,0.0,0.0,0.0,0.0,0.0,0.0,0.0,0.0,0.0,0.0,0.0,0.0,0.0,0.0,0.0,0.0,0.0,0.0,0.0,0.0,0.0,0.0,0.0,0.0,0.0,0.0,0.0,0.0,0.0,0.0,0.0,0.0,0.0,0.0,2.366,2.3523,2.4933,2.6029,0.0,2.5631,2.5254,2.5288,2.5832,2.5046,2.1511,0.0,0.0,0.0,0.0,0.0,0.0,0.0,0.0,0.0,0.0,0.0,0.0,0.0,0.0,0.0,0.0,0.0,0.0,0.0,0.0,0.0,0.0,0.0,0.0,0.0,0.0,0.0,0.0,0.0,0.0,0.0,0.0,0.0,0.0,0.0,0.0,0.0,0.0,0.0,0.0,0.0,0.0,0.0,0.0,0.0,0.0,0.0,0.0,0.0,0.0,0.0,0.0,0.0,1.4377,1.729,1.8837,2.0309,2.1722,2.1781,2.1781,2.1781,2.0366,1.8936,0.0,0.0,0.0,0.0,0.0,0.0,0.0,0.0,0.0,0.0,0.0,0.0,0.0,0.0,0.0,0.0,0.0,0.0,0.0,0.0,0.0,0.0,0.0,0.0,0.0,0.0,0.0,0.0,1.0484,1.0825,1.1596,0.0,0.0,0.0,0.0,0.0,0.0,0.0,0.0,0.0,0.0,2.4247,2.5464,2.6477,0.0,0.0,2.7289,2.7177,2.6428,2.643,2.5729,2.3429,2.2459,0.0,0.0,0.0,0.0,0.0,0.0,0.0,0.0,0.0,0.0,0.0,0.0,0.0,0.0,0.0,0.0,0.0,0.0,0.0,0.0,0.0,0.0,0.0,0.0,0.0,0.0,0.0,0.0,0.0,0.0,0.0,0.0,0.0,0.0,0.0,0.0,0.0,0.0,0.0,0.0,0.0,0.0,0.0,0.0,0.0,0.0,0.0,0.0,0.0,0.0,0.0,0.0,1.4693,1.747,1.9114,2.0525,2.1779,2.1781,2.1781,2.1748,2.0581,1.9296,0.0,0.0,0.0,0.0,0.0,0.0,0.0,0.0,0.0,0.0,0.0,0.0,0.0,0.0,0.0,0.0,0.0,0.0,0.0,0.0,0.0,0.0,0.0,0.0,0.0,0.0,0.0,0.0,1.1468,1.1771,1.2164,0.0,0.0,0.0,0.0,0.0,0.0,0.0,0.0,0.0,0.0,2.572,2.7495,2.7861,2.8106,2.8542,2.84,2.8021,2.74,2.7256,2.6564,2.4647,0.0,0.0,0.0,0.0,0.0,0.0,0.0,0.0,0.0,0.0,0.0,0.0,0.0,0.0,0.0,0.0,0.0,0.0,0.0,0.0,0.0,0.0,0.0,0.0,0.0,0.0,0.0,0.812,0.0,0.0,0.8127,0.0,0.0,0.0,0.0,0.0,0.0,0.0,0.0,0.0,0.0,0.0,0.0,0.0,0.0,0.0,0.0,0.0,0.0,0.0,0.0,0.0,0.0,1.5261,1.748,1.9598,2.1033,2.1772,2.1781,2.1796,2.1796,2.1066,2.0104,1.8846,0.0,0.0,0.0,0.0,0.0,0.0,0.0,0.0,0.0,0.0,0.0,0.0,0.0,0.0,0.0,0.0,0.0,0.0,0.0,0.0,0.0,0.0,0.0,0.0,0.0,0.0,1.1203,1.1738,1.2194,0.0,0.0,0.0,0.0,0.0,0.0,0.0,0.0,0.0,2.456,2.6781,2.8496,2.9553,2.9199,2.9317,3.0672,2.8867,2.7501,2.8122,2.8541,2.7796,0.0,0.0,0.0,0.0,0.0,0.0,0.0,0.0,0.0,0.0,0.0,0.0,0.0,0.0,0.0,0.0,0.0,0.0,0.0,0.0,0.0,0.0,0.0,0.0,0.0,0.0,0.0,1.2335,1.1658,0.0,0.0,0.0,0.0,0.0,0.0,0.0,0.0,0.0,0.0,0.0,1.6409,1.7003,0.0,0.0,0.0,0.0,0.0,0.0,0.0,0.0,0.0,0.0,0.0,0.0,1.5989,1.8131,1.9826,2.105,2.1764,2.1781,2.1891,2.2068,2.1338,1.9942,1.7769,0.0,0.0,0.0,0.0,0.0,0.0,0.0,0.0,0.0,0.0,0.0,0.0,0.0,0.0,0.0,0.0,0.0,0.0,0.0,0.0,0.0,0.0,0.0,0.0,0.0,1.1486,0.0,0.0,0.0,0.0,0.0,0.0,0.0,0.0,0.0,0.0,0.0,2.386,2.6623,2.8156,2.9352,3.0384,3.0871,3.1141,0.0,0.0,0.0,0.0,0.0,0.0,0.0,0.0,0.0,0.0,0.0,0.0,0.0,0.0,3.1095,2.6613,2.5166,2.4685,2.4914,0.0,0.0,0.0,0.0,0.0,0.0,0.0,0.0,0.0,0.0,0.0,0.0,0.0,0.0,1.517,0.0,1.3935,0.0,0.0,0.0,0.0,0.0,0.0,0.0,0.0,1.8229,1.9424,1.9938,2.0524,2.0623,0.0,1.9737,1.7991,0.0,0.0,0.0,0.0,0.0,0.0,0.0,0.0,1.7311,1.9513,2.078,2.1766,2.2457,2.224,2.2205,2.2358,2.1744,2.0423,1.8427,1.8131,1.6963,0.0,0.0,0.0,0.0,0.0,0.0,0.0,0.0,0.0,0.0,0.0,0.0,0.0,0.0,0.0,0.0,0.0,0.0,0.0,0.0,0.0,0.0,0.0,1.2541,0.0,0.0,0.0,0.0,0.0,0.0,0.0,0.0,0.0,2.5238,2.5623,2.6581,2.899,2.9955,3.0742,3.1689,0.0,0.0,0.0,0.0,0.0,0.0,0.0,3.0987,3.1345,3.1106,3.1063,3.1766,3.3537,3.4735,3.4231,0.0,0.0,3.0674,2.9367,2.9123,2.9333,3.0082,3.0716,3.0861,3.1648,3.2425,0.0,0.0,0.0,0.0,0.0,0.0,0.0,0.0,1.7114,1.7417,0.0,1.6595,0.0,0.0,0.0,0.0,0.0,1.8627,0.0,0.0,2.3143,2.4573,2.3994,2.4597,2.4611,2.4049,2.459,2.3799,2.1591,1.7252,0.0,0.0,0.0,0.0,0.0,0.0,1.9196,2.1522,2.2377,2.3111,2.3777,2.3146,2.2773,2.2758,2.2279,2.1598,2.0785,2.0118,1.8751,1.652,1.5306,0.0,0.0,0.0,0.0,0.0,0.0,0.0,0.0,0.0,0.0,0.0,0.0,0.0,0.0,0.0,0.0,0.0,0.0,0.0,0.0,1.3289,0.0,0.0,0.0,0.0,0.0,0.0,0.0,0.0,0.0,0.0,2.6826,2.8365,3.0067,3.1642,0.0,0.0,0.0,0.0,3.2781,3.3477,3.3246,3.2975,3.2916,3.381,3.406,3.2625,0.0,0.0,3.4037,3.6018,3.7333,3.5848,3.7703,3.8795,3.6818,3.5274,3.4476,3.4472,3.4178,3.3814,3.3722,3.4708,3.5296,2.3693,0.0,0.0,0.0,0.0,2.0512,2.1272,2.2692,2.2376,2.2001,2.1567,2.071,0.0,0.0,0.0,0.0,0.0,0.0,2.1705,2.257,2.3673,2.4607,2.5458,2.5335,2.5453,2.5736,2.5625,2.5231,2.4566,2.2745,1.9991,1.6463,0.0,0.0,0.0,0.0,2.1145,2.2381,2.3683,2.4448,2.4655,2.4448,2.4191,2.3866,2.3872,2.3235,2.1885,2.1663,2.0684,1.8816,1.7466,0.0,0.0,0.0,0.0,0.0,0.0,0.0,0.0,0.0,0.0,0.0,0.0,0.0,0.0,0.0,0.0,0.0,0.0,0.0,1.4225,1.4497,1.543,0.0,0.0,0.0,0.0,0.0,0.0,0.0,0.0,0.0,3.0515,3.1089,3.1881,0.0,0.0,3.4349,3.4293,3.4593,3.4898,3.5106,3.5025,0.0,3.4936,3.4902,3.5117,3.5859,3.774,3.9189,3.9338,4.0011,4.0448,4.0029,4.0735,4.1047,4.0145,3.8833,3.8019,3.8099,3.8534,3.8986,3.916,3.9895,4.0458,2.8082,2.5361,2.4325,2.4397,2.5169,2.4741,2.5396,2.6752,2.6193,2.5938,2.5845,2.4925,2.3945,2.2988,2.2529,0.0,0.0,0.0,2.524,2.6157,2.6548,2.7233,2.8053,2.7835,2.7937,2.8346,2.8002,2.7658,2.7329,2.6488,2.4242,2.071,0.0,0.0,2.0007,2.1756,2.3242,2.4364,2.4999,2.5477,2.5771,2.5477,2.5182,2.4927,2.5043,2.4551,2.3308,2.3255,2.2479,2.079,1.9566,1.8007,0.0,0.0,0.0,0.0,0.0,0.0,0.0,0.0,0.0,0.0,0.0,1.1899,1.0296,0.0,0.0,0.0,1.4188,1.594,1.6975,1.7754,0.0,0.0,0.0,0.0,0.0,0.0,0.0,2.725,3.0155,3.2323,3.2997,3.3682,3.4316,3.4881,3.5232,3.5468,3.5543,0.0,3.632,3.6409,3.6986,3.7466,3.7598,3.7621,3.799,3.8977,4.0174,4.1172,4.1679,4.213,4.2466,4.2605,4.3034,4.3318,4.2997,4.2249,4.1542,4.1241,4.1478,4.1816,4.1991,4.2436,4.2794,3.1436,3.1308,2.9905,2.9222,2.9088,2.9088,2.9082,2.907,2.8814,2.911,2.9748,2.8842,2.8436,2.8375,2.7524,0.0,2.739,2.893,2.9661,2.9865,3.0789,3.1195,3.1195,3.1177,3.1195,3.1177,3.1021,3.0564,2.9791,2.8874,2.7692,2.6226,2.4632,2.4002,2.4329,2.4441,2.5321,2.6967,2.6329,2.6365,2.7056,2.6389,2.5955,2.5901,2.583,2.5437,2.473,2.4641,2.3927,2.2464,2.1515,2.004,1.7968,0.0,0.0,0.0,0.0,0.0,0.0,0.0,0.0,0.0,0.0,0.0,0.0,0.0,0.0,1.5477,1.7914,0.0,2.0443,2.2076,0.0,0.0,0.0,2.5266,2.7048,2.9014,3.0007,2.9446,0.0,0.0,3.4802,3.6167,3.7087,3.6807,3.6336,3.6298,3.7126,3.7233,3.7337,3.776,3.9041,4.0106,4.0244,4.0857,4.1395,4.1688,4.1983,4.2151,4.2321,4.305,4.3678,4.3728,4.4582,4.5215,4.5258,4.5046,4.4958,4.3824,4.3314,4.3018,4.3061,4.3119,4.3157,3.3488,3.3451,3.3093,3.2054,3.066,3.0642,3.0666,3.0642,3.0585,3.0668,3.0826,3.0592,3.0481,3.0481,3.0262,3.0177,3.0222,3.0605,3.0806,3.0857,3.1085,3.1195,3.1195,3.1195,3.1195,3.1195,3.115,3.1033,3.0832,3.0617,3.0288,2.9912,2.9499,2.7723,2.4765,2.5773,2.6558,2.6985,2.7417,2.7714,2.7899,2.7732,2.7328,2.671,2.6122,2.5461,2.473,2.4117,2.3612,2.322,2.2419,2.1456,2.0305,1.743,0.0,0.0,0.0,0.0,0.0,0.0,0.0,0.0,0.0,1.626,1.2753,0.0,1.7745,0.0,1.8616,2.1414,2.3066,2.315,0.0,0.0,2.7663,2.8443,3.2232,3.2406,3.2551,3.3445,3.5327,3.7044,3.8264,3.8639,3.9101,3.9757,3.8578,3.801,3.9032,3.9216,3.9543,4.0315,4.0866,4.1217,4.1367,4.1722,4.2403,4.324,4.3455,4.3708,4.4366,4.4701,4.4884,4.4908,4.5093,4.5277,4.5283,4.5283,4.5201,4.4958,4.4805,4.4709,4.4709,4.4666,4.4666,3.5062,3.5281,3.4928,3.4315,3.3601,3.2858,3.2545,3.2532,3.2443,3.2398,3.241,3.2293,3.2271,3.2271,3.2271,3.2265,3.226,3.2352,3.2416,3.2405,3.2482,3.2545,3.2538,3.2526,3.2545,3.2538,3.245,3.2221,3.1866,3.1776,3.1548,3.1195,3.1195,3.0005,2.7736,2.8433,2.8866,2.8866,2.8862,2.8806,2.8738,2.8392,2.7828,2.702,2.6669,2.5899,2.4736,2.4348,2.3769,2.2994,2.2541,2.1945,2.1167,1.8847,1.7139,0.0,0.0,0.0,0.0,0.0,0.0,0.0,0.0,0.0,0.0,0.0,2.0871,1.936,2.2282,2.502,2.6845,2.7736,2.9349,3.2093,3.1754,3.2476,3.5354,3.5125,3.5423,3.7197,3.7919,3.898,4.0751,4.0619,4.0559,4.1191,4.0366,3.9929,4.0465,4.0606,4.0889,4.1658,4.2091,4.2586,4.3094,4.3431,4.3784,4.4369,4.455,4.4737,4.5206,4.5283,4.5283,4.5283,4.5283,4.5283,4.5283,4.5283,4.5283,4.5283,4.5283,4.5283,4.5283,4.5283,4.5283,3.6315,3.6715,3.6025,3.6155,3.6671,3.5224,3.453,3.4358,3.4183,3.4161,3.424,3.4071,3.4007,3.3988,3.3988,3.3988,3.4002,3.4193,3.4247,3.426,3.4328,3.437,3.437,3.424,3.4216,3.4191,3.4005,3.3596,3.2902,3.2716,3.2253,3.1608,3.159,3.159,3.159,3.159,3.1461,3.1202,3.0333,2.9751,2.9444,2.8778,2.7991,2.7102,2.7142,2.6411,2.4873,2.4773,2.4098,2.2643,2.2523,2.2255,2.1586,2.0128,1.9268,0.0,1.7758,0.0,0.0,0.0,0.0,0.0,0.0,0.0,0.0,2.1912,2.337,2.4759,2.7444,2.9615,3.0903,3.319,3.4686,3.4957,3.5592,3.6334,3.7142,3.735,3.8183,4.0179,4.0222,4.0825,4.2565,4.2195,4.1711,4.203,4.2051,4.1988,4.1974,4.1871,4.1943,4.2385,4.3083,4.3894,4.4766,4.5145,4.5196,4.5258,4.522,4.5283,4.5283,4.5283,4.5283,4.5283,4.5283,4.5283,4.5283,4.5283,4.5283,4.5283,4.5283,4.5283,4.5283,4.5283,4.5283,3.7165,3.7256,3.7105,3.7124,3.7232,3.6916,3.6199,3.5244,3.5225,3.5558,3.6152,3.6131,3.6118,3.6118,3.6118,3.6118,3.6118,3.6157,3.617,3.6158,3.554,3.5244,3.5231,3.4531,3.4216,3.4197,3.4161,3.4074,3.3907,3.3889,3.3784,3.3648,3.3642,3.3642,3.3642,0.0,0.0,0.0,3.1024,3.0505,2.9688,2.9641,2.8891,2.7311,2.6807,0.0,2.5152,2.4553,2.4115,2.3785,2.3812,0.0,0.0,0.0,0.0,0.0,0.0,0.0,0.0,0.0,0.0,0.0,2.4421,2.4245,2.3092,2.4459,2.6279,2.8293,3.2017,3.4197,3.3871,3.4253,3.5203,3.6662,3.701,3.7511,3.8507,3.9242,3.9908,4.0328,4.087,4.1927,4.362,4.3193,4.295,4.3783,4.4036,4.414,4.432,4.3561,4.3423,4.431,4.461,4.4893,4.5235,4.5286,4.5302,4.5283,4.5283,4.5307,4.5304,4.5304,4.5307,4.5298,4.5283,4.5293,4.5288,4.5283,4.5293,4.5283,4.5283,4.5283,4.5283,4.5283,4.5283,3.8341,0.0,3.8166,3.8222,0.0,3.8166,3.7624,3.699,3.6481,3.6423,3.6711,3.6711,3.6711,3.6711,3.6711,3.6711,3.6711,3.6711,3.6711,3.6674,3.629,3.6098,3.6098,3.5634,3.5274,3.4978,3.4983,3.4778,3.441,3.4392,3.4322,3.4222,3.4216,3.4216,3.4216,3.4216,3.3654,3.2546,3.2142,3.1675,3.1137,3.0397,2.9418,2.8196,2.7449,0.0,0.0,0.0,0.0,0.0,0.0,0.0,0.0,0.0,0.0,2.3582,2.3632,2.361,2.3552,2.4647,2.6063,2.7652,2.9246,2.9326,2.7387,2.7344,2.867,3.1715,3.5033,3.6707,3.6062,3.633,3.7017,3.8073,3.8567,3.9071,3.9626,4.0374,4.1116,4.1721,4.2125,4.2992,4.4486,4.4303,4.4184,4.4781,4.4893,4.4965,4.5109,4.4665,4.4524,4.5055,4.5192,4.5249,4.5291,4.5283,4.535,4.5362,4.5386,4.5409,4.5476,4.549,4.5509,4.549,4.549,4.5487,4.5424,4.5405,4.5371,4.5314,4.5283,4.5283,4.5283,4.5283,4.5283,3.9532,3.9867,3.9197,3.9306,3.9867,3.9211,3.8916,3.8809,0.0,0.0,0.0,3.7237,3.7249,3.7256,3.7237,3.7237,3.7237,3.7256,3.723,3.7186,3.71,3.7025,3.6975,3.6858,3.6575,3.609,3.6076,3.5743,3.509,3.494,3.4749,3.4549,3.4396,3.4334,3.4315,3.4293,3.4191,3.4011,3.3327,3.284,3.2604,3.1249,3.0038,2.906,2.8412,2.7311,2.5703,2.5792,2.5234,2.3938,2.3866,2.4193,2.491,2.5082,2.5764,2.707,2.8063,2.8594,2.8564,2.9343,3.0232,3.1166,3.3202,3.3605,3.1709,3.0519,3.1352,3.4899,3.7116,3.8138,3.772,3.8258,3.8837,3.9254,3.9942,4.0416,4.0677,4.1402,4.2267,4.313,4.3472,4.3951,4.4871,4.5055,4.5142,4.5192,4.5192,4.5251,4.5304,4.5191,4.5074,4.5234,4.5293,4.5323,4.5351,4.5381,4.5428,4.5508,4.5528,4.5579,4.5667,4.5684,4.5684,4.5659,4.5684,4.5645,4.5551,4.5507,4.5464,4.537,4.5324,4.5317,4.5328,4.5314,4.5309,4.0381,4.0386,4.0275,4.0314,4.0406,4.0275,4.013,3.9886,3.8833,3.8745,3.9369,3.9369,3.9369,3.935,3.9369,3.9369,3.9344,3.9344,3.928,3.9102,3.8567,3.8235,3.8038,3.7546,3.7265,3.7182,3.7182,3.713,3.6941,3.6239,3.5873,3.5748,3.5152,3.4802,3.4787,3.4642,3.4528,3.4501,3.4163,3.3568,3.2717,3.2612,3.1447,2.9235,2.9174,2.844,2.6911,2.6964,2.69,2.6715,2.6813,2.6953,2.7089,2.7694,2.8133,2.825,2.9655,3.044,3.0288,3.1022,3.211,3.3556,3.4648,3.4798,3.3864,3.4395,3.552,3.7285,3.8338,3.887,3.8783,3.8883,3.9379,4.0276,4.0596,4.103,4.1975,4.2885,4.3495,4.3732,4.4396,4.4834,4.5085,4.5181,4.5224,4.5281,4.5305,4.5336,4.5424,4.5346,4.5316,4.5414,4.5356,4.5415,4.5574,4.5661,4.566,4.5675,4.5682,4.5689,4.5734,4.5721,4.5725,4.5698,4.5721,4.572,4.5678,4.5591,4.556,4.555,4.549,4.5395,4.5415,4.5415,4.5376,4.0575,4.056,4.056,4.0565,4.0542,4.0523,4.0465,4.0385,3.9906,3.971,3.9794,3.9803,3.9803,3.9803,3.9803,3.9803,3.9803,3.9803,3.9761,3.9652,3.9386,3.9191,3.9103,3.8847,3.8539,3.8242,3.8228,3.8009,3.7556,3.7151,3.6905,3.6777,3.5998,3.5605,3.5581,3.5078,3.4812,3.4821,3.4474,3.4118,3.3734,3.3403,3.2657,3.1493,3.1107,3.0366,2.9259,2.9276,2.913,2.8723,2.8786,2.906,2.9488,2.9867,3.0208,3.0583,3.1727,3.2369,3.2292,3.3472,3.4676,3.5856,3.6716,3.7055,3.6671,3.64,3.6911,3.8358,3.9107,3.9414,3.9293,3.9661,4.0208,4.0895,4.1736,4.2539,4.3118,4.391,4.4458,4.453,4.4872,4.5164,4.5192,4.5291,4.5366,4.5419,4.546,4.553,4.5607,4.5559,4.5526,4.5595,4.5551,4.5567,4.5696,4.5863,4.5939,4.5874,4.5859,4.5889,4.5955,4.5973,4.5959,4.5974,4.5974,4.5939,4.5864,4.5829,4.577,4.5685,4.5665,4.5634,4.5623,4.5631,4.5583,4.0655,4.062,4.062,4.0624,4.058,4.0554,4.0561,4.058,4.058,4.0362,4.0019,3.9979,3.9969,3.9969,3.9959,3.9978,3.9954,3.9954,3.9929,3.9906,3.9929,3.9934,3.9912,3.9943,3.9719,3.9322,3.9278,3.895,3.8378,3.819,3.7898,3.7526,3.6925,3.6633,3.6614,3.5776,3.5329,3.5312,3.4815,3.4599,3.4675,3.4052,3.3663,3.3473,3.2791,3.2042,3.1355,3.134,3.1079,3.0518,3.0522,3.0829,3.1436,3.1663,3.2042,3.2705,3.3695,3.4339,3.4586,3.5728,3.6827,3.7623,3.8329,3.8765,3.8866,3.804,3.7879,3.9044,3.9603,3.9868,3.9968,4.0408,4.1065,4.1743,4.2885,4.3742,4.4091,4.4665,4.5078,4.5167,4.5218,4.529,4.5332,4.5441,4.5526,4.5555,4.5679,4.5767,4.5757,4.5777,4.5821,4.5812,4.577,4.5764,4.5815,4.602,4.6138,4.6049,4.6025,4.6078,4.6146,4.6187,4.6191,4.6177,4.6183,4.6148,4.6055,4.6003,4.5962,4.5872,4.5846,4.5811,4.5792,4.5795,4.5757,4.0805,4.0704,4.0696,4.0645,4.0602,4.0591,4.0595,4.0591,4.0588,4.0577,4.0519,4.0516,4.0512,4.0516,4.0453,4.0418,4.0418,4.043,4.0339,4.0195,4.0341,4.0343,4.0186,4.0332,4.0434,4.0396,4.0377,4.0277,4.014,3.9534,3.8817,3.8117,3.7963,3.7917,3.7791,3.6895,3.6366,3.6343,3.5473,3.5009,3.4953,3.477,3.4348,3.3616,3.3399,3.2945,3.2293,3.2199,3.2203,3.2161,3.2193,3.2212,3.2364,3.3032,3.3501,3.3638,3.5078,3.6282,3.6941,3.7211,3.7661,3.8462,3.8671,3.9025,3.9678,3.9634,3.9612,3.9853,3.9905,4.0311,4.092,4.1154,4.187,4.317,4.3673,4.4097,4.4785,4.5109,4.5223,4.5352,4.5427,4.5501,4.5596,4.566,4.5685,4.571,4.5856,4.5964,4.5972,4.6049,4.6111,4.6087,4.6005,4.596,4.6078,4.616,4.6199,4.6183,4.619,4.6178,4.6192,4.6199,4.6205,4.6223,4.6224,4.6201,4.617,4.6098,4.6033,4.6054,4.5986,4.5917,4.5891,4.591,4.5861,4.0921,4.0882,4.0882,4.0835,4.0786,4.0727,4.071,4.072,4.072,4.0729,4.0694,4.067,4.0642,4.0586,4.0571,4.0545,4.0548,4.0564,4.0511,4.0434,4.0519,4.0511,4.0442,4.0511,4.0575,4.0586,4.0586,4.0596,4.0533,4.0244,3.9935,3.9553,3.9126,3.8865,3.8785,3.7964,3.7501,3.7504,3.7124,3.6689,3.6101,3.5449,3.4941,3.466,3.4552,3.4406,3.4111,3.3986,3.3979,3.3982,3.3911,3.388,3.388,3.4699,3.5178,3.5235,3.6258,3.7263,3.8116,3.8173,3.8533,3.9361,3.9418,3.9581,3.9892,3.9941,4.0136,4.0742,4.1209,4.1502,4.1399,4.218,4.3125,4.3811,4.4334,4.484,4.5221,4.5371,4.5481,4.5572,4.56,4.563,4.5703,4.5803,4.5894,4.5973,4.6069,4.6122,4.613,4.6179,4.6194,4.6194,4.6117,4.6119,4.6183,4.6196,4.6204,4.6213,4.6199,4.6202,4.6205,4.6207,4.6209,4.6237,4.6258,4.6261,4.6248,4.6238,4.6199,4.6196,4.6195,4.6121,4.6041,4.6091,4.6078,4.1051,4.1017,4.1019,4.0954,4.0904,4.0848,4.0815,4.0795,4.0809,4.0795,4.0797,4.0765,4.07,4.0641,4.0621,4.0591,4.0591,4.0591,4.0591,4.0591,4.0591,4.0591,4.0591,4.0591,4.0617,4.0621,4.0624,4.0631,4.0661,4.0661,4.0661,4.0571,4.0066,3.9789,3.9692,3.8963,3.8563,3.8525,3.8351,3.7886,3.7228,3.6491,3.5853,3.5417,3.5304,3.5308,3.5304,3.5203,3.5155,3.5155,3.5236,3.531,3.5348,3.6074,3.6638,3.6948,3.7461,3.8212,3.9083,3.915,3.9383,3.9955,4.0031,4.0061,4.0096,4.0029,4.0425,4.1418,4.2676,4.3111,4.2387,4.3241,4.4042,4.4354,4.5011,4.541,4.5501,4.558,4.5666,4.5754,4.5783,4.5806,4.5865,4.5977,4.6087,4.6158,4.6192,4.6197,4.6197,4.6197,4.6197,4.6197,4.6201,4.6209,4.6201,4.6204,4.6215,4.6228,4.6233,4.6234,4.6216,4.6237,4.6238,4.6269,4.6289,4.629,4.6276,4.6297,4.6298,4.63,4.6278,4.6268,4.6177,4.6244,4.6243,4.1167,4.1083,4.1018,4.0963,4.0897,4.0904,4.0858,4.0805,4.0812,4.0803,4.0797,4.081,4.079,4.0765,4.0664,4.0595,4.0595,4.0598,4.0598,4.0598,4.0617,4.0591,4.0591,4.0591,4.0631,4.0697,4.0697,4.0733,4.0784,4.0787,4.079,4.0768,4.0691,4.0697,4.0558,3.9826,3.9443,3.9385,3.876,3.8212,3.8157,3.8068,3.7205,3.5811,3.5439,3.5465,3.5396,3.5343,3.5362,3.532,3.5984,3.6331,3.6379,3.6991,3.777,3.8609,3.8799,3.9227,4.0004,4.014,4.0228,4.0322,4.0337,4.0396,4.0419,4.0245,4.0643,4.1724,4.3989,4.494,4.4106,4.4167,4.4685,4.5314,4.5522,4.5614,4.5689,4.572,4.579,4.5925,4.5972,4.6022,4.6127,4.619,4.6187,4.6196,4.6197,4.6197,4.6197,4.6197,4.6197,4.6201,4.6211,4.6203,4.6204,4.6212,4.6242,4.6256,4.6266,4.6307,4.6294,4.6299,4.6299,4.6298,4.6298,4.6298,4.63,4.6301,4.6301,4.6301,4.6301,4.6273,4.6245,4.6275,4.6275,4.1191,4.1168,4.1143,4.1082,4.1022,4.1021,4.0977,4.0858,4.0853,4.0829,4.0803,4.0794,4.0794,4.0794,4.0752,4.072,4.072,4.072,4.072,4.072,4.072,4.0739,4.0739,4.0739,4.0742,4.0775,4.0778,4.0781,4.0813,4.0794,4.0794,4.0794,4.0794,4.0794,4.0758,4.0484,4.0332,4.0294,4.0001,3.9611,3.9091,3.9033,3.8435,3.732,3.7186,3.7144,3.7164,3.7088,3.703,3.7026,3.7206,3.7295,3.7368,3.8053,3.8885,3.9671,3.9814,3.9946,4.0247,4.0344,4.0365,4.0392,4.0426,4.05,4.0514,4.0485,4.0993,4.2672,4.4666,4.5667,4.5461,4.5258,4.5307,4.5596,4.577,4.5862,4.5911,4.5963,4.6041,4.6108,4.6115,4.615,4.6185,4.6197,4.6197,4.6197,4.6197,4.6197,4.6197,4.6197,4.6197,4.6201,4.6213,4.6209,4.6199,4.6248,4.6277,4.6288,4.6296,4.6296,4.63,4.6301,4.63,4.63,4.6301,4.6301,4.6301,4.6301,4.6301,4.6301,4.6301,4.6301,4.6301,4.6301,4.6301,4.1172,4.1191,4.1191,4.1168,4.111,4.1108,4.1028,4.0935,4.09,4.0868,4.084,4.0815,4.0794,4.0794,4.0794,4.0794,4.0794,4.0794,4.0794,4.0794,4.0794,4.0794,4.0794,4.0794,4.0794,4.0794,4.0794,4.0794,4.0794,4.0794,4.0794,4.0794,4.0794,4.0794,4.0794,4.0794,4.0794,4.0794,4.0794,4.0484,3.9984,3.9926,3.9655,3.9143,3.905,3.876,3.8251,3.8115,3.8064,3.8073,3.8195,3.8389,3.8637,3.9147,3.9758,4.0267,4.0376,4.0412,4.0454,4.0526,4.0578,4.0597,4.0639,4.07,4.0774,4.1056,4.1961,4.3363,4.5027,4.6152,4.606,4.5928,4.5861,4.5886,4.5971,4.6049,4.6056,4.6125,4.6189,4.6192,4.6192,4.6196,4.6197,4.6197,4.6197,4.6197,4.6197,4.6197,4.6197,4.6197,4.6201,4.6208,4.6203,4.6219,4.6232,4.6262,4.6287,4.6296,4.6299,4.63,4.6301,4.6301,4.6301,4.6301,4.6301,4.6301,4.6301,4.6301,4.6301,4.6301,4.6301,4.6301,4.6301,4.6301,4.6301,4.1152,4.1191,4.1191,4.1149,4.1111,4.1108,4.1065,4.0981,4.093,4.0917,4.0878,4.0829,4.082,4.0818,4.0827,4.0806,4.0812,4.0818,4.0806,4.0797,4.0794,4.0794,4.0794,4.0794,4.0794,4.0794,4.0794,4.0794,4.0794,4.0794,4.0794,4.0794,4.0794,4.0794,4.0794,4.0794,4.0794,4.0794,4.0794,4.0774,4.0794,4.0697,4.0642,4.0619,4.06,3.9904,3.8431,3.8364,3.8435,3.8446,3.8967,3.9611,4.0045,4.0229,4.0349,4.0487,4.0567,4.0668,4.0771,4.0822,4.0883,4.0932,4.0962,4.099,4.1147,4.1978,4.2857,4.3636,4.5112,4.6192,4.619,4.616,4.6154,4.6192,4.6164,4.6183,4.6189,4.6194,4.6197,4.6197,4.6197,4.6197,4.6197,4.6197,4.6197,4.6197,4.6197,4.6197,4.6199,4.6201,4.6208,4.6201,4.6216,4.625,4.6263,4.6293,4.6297,4.6301,4.6301,4.6301,4.6301,4.6301,4.6301,4.6301,4.6301,4.6301,4.6301,4.6301,4.6301,4.6301,4.6301,4.6301,4.6301,4.6301,4.6301,4.111,4.1132,4.1132,4.1111,4.1111,4.1108,4.1066,4.1013,4.0967,4.0958,4.0954,4.0951,4.0941,4.0922,4.0896,4.0858,4.088,4.0858,4.0859,4.0812,4.08,4.0797,4.0794,4.0794,4.0794,4.0794,4.0794,4.0794,4.0794,4.0794,4.0794,4.0794,4.0794,4.0794,4.0794,4.0794,4.0794,4.0794,4.0794,4.0794,4.0794,4.0797,4.0797,4.0794,4.0794,4.0483,4.0037,3.9983,3.9981,3.9942,4.0201,4.0443,4.0614,4.0696,4.0731,4.0776,4.0793,4.0811,4.0861,4.095,4.098,4.1017,4.1038,4.1076,4.1203,4.2161,4.3038,4.3681,4.5163,4.6197,4.6197,4.6197,4.6197,4.6197,4.6197,4.6197,4.6197,4.6197,4.6197,4.6197,4.6197,4.6197,4.6197,4.6197,4.6197,4.6197,4.6197,4.6197,4.6199,4.6208,4.6196,4.6204,4.6244,4.626,4.6288,4.6295,4.6299,4.6301,4.6301,4.6301,4.6301,4.6301,4.6301,4.6301,4.6301,4.6301,4.6301,4.6301,4.6301,4.6301,4.6301,4.6301,4.6301,4.6301,4.6301,4.1107,4.111,4.111,4.1113,4.1109,4.1108,4.1063,4.1043,4.1003,4.0994,4.0991,4.0983,4.0992,4.0982,4.0963,4.0941,4.0921,4.0939,4.0913,4.0859,4.084,4.0825,4.0803,4.0794,4.0794,4.0794,4.0794,4.0794,4.0794,4.0794,4.0794,4.0794,4.0794,4.0794,4.0794,4.0797,4.0803,4.0805,4.0794,4.0822,4.084,4.0826,4.0823,4.0826,4.0826,4.0843,4.0853,4.0846,4.0845,4.0823,4.0826,4.0823,4.0841,4.0869,4.0888,4.091,4.0924,4.0935,4.0939,4.1013,4.1036,4.1041,4.1078,4.1265,4.1635,4.2531,4.333,4.4169,4.5358,4.6197,4.6197,4.6197,4.6197,4.6197,4.6197,4.6197,4.6197,4.6197,4.6197,4.6197,4.6197,4.6197,4.6197,4.6197,4.6197,4.6197,4.6197,4.6197,4.6201,4.6213,4.6203,4.6215,4.6251,4.6283,4.6291,4.6296,4.63,4.6301,4.6301,4.6301,4.6301,4.6301,4.6301,4.6301,4.6301,4.6301,4.6301,4.6301,4.6301,4.6301,4.6301,4.6301,4.6301,4.6301,4.6301,4.1102,4.1107,4.1107,4.1108,4.1109,4.1109,4.111,4.1092,4.1032,4.1003,4.0997,4.1009,4.1,4.1011,4.0993,4.0986,4.0982,4.0983,4.0944,4.0909,4.0883,4.0869,4.0821,4.0809,4.0792,4.0823,4.0825,4.08,4.0815,4.082,4.0809,4.082,4.0817,4.0812,4.0805,4.0809,4.0806,4.0826,4.0812,4.0836,4.0896,4.09,4.09,4.0898,4.0896,4.09,4.0907,4.0912,4.0912,4.0907,4.09,4.0907,4.0912,4.0895,4.0926,4.093,4.098,4.0996,4.1005,4.1045,4.1085,4.1104,4.1242,4.146,4.2179,4.3096,4.3992,4.4697,4.5652,4.6197,4.6197,4.6197,4.6197,4.6197,4.6197,4.6197,4.6197,4.6197,4.6197,4.6197,4.6197,4.6197,4.6197,4.6197,4.6197,4.6199,4.6199,4.6203,4.6208,4.6201,4.6215,4.6228,4.6261,4.6288,4.6296,4.6297,4.6301,4.6301,4.6301,4.6301,4.6301,4.6301,4.6301,4.6301,4.6301,4.6301,4.6301,4.6301,4.6301,4.6301,4.6301,4.6301,4.6301,4.6301,4.6301,4.1116,4.1101,4.1101,4.1104,4.1107,4.1107,4.1107,4.1108,4.1072,4.1054,4.1054,4.1074,4.1072,4.1073,4.1023,4.0976,4.0994,4.0994,4.0961,4.0925,4.094,4.093,4.0861,4.0814,4.0827,4.0861,4.0867,4.0859,4.0873,4.0863,4.0861,4.0889,4.0871,4.0868,4.0866,4.0863,4.0873,4.0886,4.0869,4.0874,4.0907,4.0912,4.0888,4.0888,4.091,4.0928,4.0978,4.1027,4.0992,4.0917,4.0943,4.0978,4.096,4.1003,4.1036,4.1038,4.1066,4.1075,4.1076,4.1122,4.1128,4.1167,4.1713,4.2081,4.2317,4.3702,4.454,4.5048,4.5671,4.6197,4.6197,4.6197,4.6197,4.6197,4.6197,4.6197,4.6197,4.6197,4.6197,4.6197,4.6197,4.6197,4.6197,4.6199,4.6199,4.6203,4.6209,4.6198,4.6203,4.6237,4.6253,4.626,4.6289,4.6295,4.63,4.63,4.6301,4.6301,4.6301,4.6301,4.6301,4.6301,4.6301,4.6301,4.6301,4.6301,4.6301,4.6301,4.6301,4.6301,4.6301,4.6301,4.6301,4.6301,4.6301,4.1111,4.1114,4.1115,4.1117,4.1101,4.1101,4.1101,4.1101,4.1103,4.1104,4.1104,4.1107,4.1107,4.1108,4.1054,4.1035,4.1035,4.1054,4.1033,4.1011,4.0991,4.0956,4.0895,4.087,4.0863,4.0896,4.0899,4.0899,4.0891,4.0885,4.0899,4.0887,4.0889,4.0896,4.0889,4.09,4.09,4.0932,4.0939,4.0945,4.0982,4.0984,4.0986,4.0986,4.0986,4.1017,4.1041,4.108,4.1068,4.1019,4.1027,4.1038,4.104,4.1076,4.1109,4.1109,4.1109,4.1109,4.1167,4.1382,4.1596,4.1752,4.2375,4.2979,4.3447,4.4405,4.495,4.5515,4.5946,4.6139,4.6197,4.6197,4.6197,4.6197,4.6197,4.6197,4.6197,4.6197,4.6197,4.6197,4.6197,4.6197,4.6197,4.6203,4.6208,4.6213,4.6206,4.6212,4.6216,4.6255,4.6305,4.6289,4.6293,4.6298,4.63,4.6301,4.6301,4.6301,4.6301,4.6301,4.6301,4.6301,4.6301,4.6301,4.6301,4.6301,4.6301,4.6301,4.6301,4.6301,4.6301,4.6301,4.6301,4.6301,4.6301,4.1108,4.1108,4.1108,4.1108,4.1109,4.1109,4.1111,4.111,4.1115,4.1117,4.1099,4.1104,4.1104,4.1106,4.1087,4.1106,4.1106,4.1088,4.1104,4.107,4.1054,4.0992,4.0936,4.0938,4.0922,4.093,4.0921,4.0924,4.0948,4.0921,4.0913,4.0931,4.0921,4.0929,4.094,4.0935,4.0958,4.0996,4.1021,4.1034,4.1071,4.1076,4.1076,4.1076,4.1076,4.1078,4.1085,4.1109,4.1104,4.1107,4.1109,4.1085,4.1107,4.1109,4.1109,4.1109,4.1128,4.1148,4.1343,4.1888,4.2354,4.2529,4.3231,4.4012,4.4579,4.4989,4.5418,4.6003,4.6197,4.6197,4.6197,4.6197,4.6197,4.6197,4.6197,4.6197,4.6197,4.6197,4.6197,4.6197,4.6197,4.6197,4.6203,4.6211,4.6201,4.62,4.6213,4.6221,4.6229,4.6283,4.6289,4.629,4.6295,4.63,4.6301,4.6301,4.6301,4.6301,4.6301,4.6301,4.6301,4.6301,4.6301,4.6301,4.6301,4.6301,4.6301,4.6301,4.6301,4.6301,4.6301,4.6301,4.6301,4.6301,4.6301,4.1108,4.1108,4.1108,4.1108,4.1108,4.1108,4.1108,4.1109,4.1111,4.1111,4.1111,4.1114,4.1114,4.1134,4.1134,4.1114,4.1154,4.1154,4.1113,4.1113,4.1097,4.1083,4.1033,4.1014,4.1015,4.1035,4.1055,4.1054,4.1054,4.1032,4.1049,4.1053,4.1023,4.1046,4.1061,4.103,4.1067,4.1067,4.1081,4.1088,4.1096,4.1099,4.1117,4.1115,4.1115,4.1112,4.1109,4.1109,4.1109,4.1109,4.1109,4.1109,4.1109,4.1109,4.1167,4.1226,4.1187,4.1401,4.1945,4.2315,4.2627,4.333,4.4091,4.4695,4.4872,4.5537,4.5925,4.6197,4.6197,4.6197,4.6197,4.6197,4.6197,4.6197,4.6197,4.6197,4.6197,4.6197,4.6197,4.6197,4.6197,4.6197,4.6197,4.6204,4.6214,4.6204,4.6219,4.6231,4.6261,4.629,4.6293,4.6294,4.6297,4.6301,4.6301,4.6301,4.6301,4.6301,4.6301,4.6301,4.6301,4.6301,4.6301,4.6301,4.6301,4.6301,4.6301,4.6301,4.6301,4.6301,4.6301,4.6301,4.6301,4.6301,4.6301,4.1108,4.1108,4.1108,4.1108,4.1108,4.1108,4.1108,4.1108,4.1108,4.1108,4.1108,4.1108,4.1323,4.1655,4.1323,4.1284,4.1538,4.1265,4.1109,4.1109,4.111,4.1109,4.1111,4.1065,4.1065,4.1112,4.11,4.1117,4.1099,4.1107,4.1091,4.1106,4.1113,4.1092,4.1105,4.1117,4.1105,4.1095,4.111,4.1109,4.111,4.111,4.1098,4.1113,4.1117,4.1098,4.1115,4.1113,4.1102,4.1119,4.1123,4.1109,4.1109,4.1128,4.1343,4.181,4.1732,4.2081,4.2685,4.3291,4.3741,4.4169,4.5009,4.5381,4.5554,4.5983,4.6139,4.6197,4.6197,4.6197,4.6197,4.6197,4.6197,4.6197,4.6197,4.6197,4.6197,4.6197,4.6197,4.6197,4.6197,4.6197,4.6199,4.6209,4.6203,4.6199,4.6258,4.6268,4.627,4.6297,4.6298,4.6299,4.63,4.6301,4.6301,4.6301,4.6301,4.6301,4.6301,4.6301,4.6301,4.6301,4.6301,4.6301,4.6301,4.6301,4.6301,4.6301,4.6301,4.6301,4.6301,4.6301,4.6301,4.6301,4.6301,4.1108,4.1108,4.1108,4.1108,4.1108,4.1108,4.1207,4.1323,4.1304,4.1518,4.1519,4.15,4.2104,4.2337,4.1928,4.2006,4.224,4.2026,4.1812,4.1773,4.1518,4.1616,4.1657,4.156,4.1542,4.1441,4.1209,4.1129,4.1109,4.1109,4.1116,4.1113,4.1104,4.1111,4.1113,4.1113,4.1107,4.1103,4.1102,4.1103,4.1103,4.1104,4.1116,4.1108,4.1114,4.111,4.1103,4.1128,4.1178,4.1275,4.1302,4.1217,4.1128,4.1323,4.175,4.2784,4.2629,4.2958,4.3681,4.4364,4.4814,4.5048,4.5704,4.6115,4.6174,4.6144,4.6191,4.6212,4.6195,4.6195,4.6203,4.6201,4.6198,4.6211,4.6206,4.6199,4.6203,4.6201,4.6203,4.6204,4.6208,4.6209,4.6198,4.6209,4.6201,4.6214,4.627,4.6299,4.63,4.6301,4.6301,4.6301,4.6301,4.6301,4.6301,4.6301,4.6301,4.6301,4.6301,4.6301,4.6301,4.6301,4.6301,4.6301,4.6301,4.6301,4.6301,4.6301,4.6301,4.6301,4.6301,4.6301,4.6301,4.6301,4.6301,4.1108,4.1108,4.1108,4.1108,4.1108,4.1108,4.1557,4.2122,4.2181,4.2611,4.3158,4.3256,4.3217,4.3392,4.3373,4.3373,4.3275,4.3041,4.3041,4.2924,4.2553,4.2436,4.2807,4.2435,4.2533,4.269,4.2045,4.1323,4.1206,4.1108,4.1207,4.1149,4.1114,4.1101,4.1109,4.1112,4.1113,4.1112,4.1111,4.111,4.111,4.1208,4.1324,4.134,4.1422,4.136,4.1258,4.1218,4.1436,4.2079,4.2174,4.1813,4.1638,4.1902,4.2659,4.3323,4.3463,4.3778,4.4569,4.4819,4.5324,4.5798,4.6117,4.6194,4.6198,4.6207,4.6197,4.6207,4.621,4.6212,4.6215,4.6213,4.62,4.621,4.6209,4.6209,4.62,4.62,4.6221,4.6222,4.6222,4.6204,4.6213,4.622,4.6229,4.6238,4.6269,4.6297,4.6301,4.6301,4.6301,4.6301,4.6301,4.6301,4.6301,4.6301,4.6301,4.6301,4.6301,4.6301,4.6301,4.6301,4.6301,4.6301,4.6301,4.6301,4.6301,4.6301,4.6301,4.6301,4.6301,4.6301,4.6301,4.6301,4.6301,4.1772,4.1714,4.1304,4.1362,4.1732,4.1771,4.2259,4.3001,4.3079,4.3295,4.3607,4.3724,4.3978,4.4153,4.3841,4.3705,4.3744,4.3705,4.3705,4.3548,4.3314,4.3236,4.3724,4.3236,4.3334,4.3392,4.2807,4.2162,4.183,4.1791,4.1577,4.1168,4.1108,4.1114,4.1101,4.1103,4.1146,4.115,4.1151,4.1151,4.1209,4.1483,4.1933,4.2324,4.2402,4.2441,4.2457,4.2441,4.2636,4.2987,4.3078,4.2971,4.3041,4.3345,4.4005,4.4628,4.4529,4.4657,4.5384,4.5574,4.582,4.6092,4.6198,4.6214,4.6198,4.6188,4.6165,4.6188,4.6205,4.6204,4.6202,4.6216,4.6211,4.6206,4.6204,4.621,4.621,4.6198,4.6219,4.6244,4.6221,4.6221,4.6203,4.6231,4.6258,4.6284,4.6289,4.6295,4.6301,4.6301,4.6301,4.6301,4.6301,4.6301,4.6301,4.6301,4.6301,4.6301,4.6301,4.6301,4.6301,4.6301,4.6301,4.6301,4.6301,4.6301,4.6301,4.6301,4.6301,4.6301,4.6301,4.6301,4.6301,4.6301,4.6301,4.2669,4.2611,4.1909,4.2026,4.2591,4.2669,4.3157,4.386,4.3958,4.4095,4.4212,4.429,4.468,4.4953,4.466,4.4271,4.4232,4.429,4.4368,4.4329,4.4095,4.4017,4.4212,4.4056,4.4134,4.4485,4.431,4.3666,4.2806,4.265,4.224,4.2026,4.1714,4.1635,4.1755,4.1913,4.1636,4.1616,4.1617,4.1617,4.1811,4.23,4.2951,4.3607,4.3695,4.3604,4.3496,4.3475,4.3667,4.3865,4.4023,4.4199,4.4765,4.5058,4.5487,4.5937,4.5525,4.5671,4.5937,4.6145,4.6103,4.6193,4.6178,4.6182,4.6186,4.6152,4.6151,4.6209,4.623,4.623,4.625,4.6228,4.6227,4.6225,4.6216,4.6201,4.6197,4.621,4.6224,4.6243,4.6238,4.6237,4.6239,4.6243,4.627,4.629,4.6295,4.6296,4.6301,4.6301,4.6301,4.6301,4.6301,4.6301,4.6301,4.6301,4.6301,4.6301,4.6301,4.6301,4.6301,4.6301,4.6301,4.6301,4.6301,4.6301,4.6301,4.6301,4.6301,4.6301,4.6301,4.6301,4.6301,4.6301,4.6301,4.3548,4.3529,4.3431,4.3451,4.3548,4.3548,4.4055,4.4797,4.4855,4.5304,4.5754,4.591,4.591,4.5969,4.5949,4.5891,4.5871,4.5754,4.5676,4.5559,4.5148,4.5187,4.5675,4.5148,4.5266,4.552,4.5754,4.5012,4.3997,4.3626,4.3451,4.3217,4.3099,4.3314,4.3021,4.2982,4.3412,4.3353,4.3314,4.3314,4.3353,4.347,4.3629,4.3806,4.3883,4.3941,4.4029,4.4064,4.4217,4.4802,4.4837,4.5248,4.5903,4.6041,4.6068,4.6151,4.6109,4.6089,4.6171,4.6191,4.6171,4.6133,4.6125,4.611,4.6129,4.6164,4.6208,4.627,4.6279,4.6276,4.6281,4.6285,4.6268,4.625,4.6229,4.622,4.6211,4.6212,4.6229,4.6251,4.6263,4.6269,4.6273,4.6296,4.6299,4.63,4.63,4.6301,4.6301,4.6301,4.6301,4.6301,4.6301,4.6301,4.6301,4.6301,4.6301,4.6301,4.6301,4.6301,4.6301,4.6301,4.6301,4.6301,4.6301,4.6301,4.6301,4.6301,4.6301,4.6301,4.6301,4.6301,4.6301,4.632,4.6476,4.4894,4.4406,4.3899,4.3997,4.4426,4.4425,4.4933,4.5617,4.5753,4.593,4.6242,4.6301,4.6301,4.6301,4.6301,4.6281,4.6301,4.6301,4.6301,4.63,4.5929,4.5929,4.6086,4.593,4.6047,4.6142,4.6262,4.5988,4.5149,4.4581,4.427,4.3783,4.3744,4.3626,4.388,4.3744,4.3685,4.3646,4.3705,4.3938,4.4309,4.4465,4.466,4.5129,4.5129,4.5084,4.5056,4.5132,4.5259,4.5662,4.5675,4.583,4.6129,4.6207,4.6198,4.6189,4.62,4.6168,4.6156,4.6138,4.6119,4.6099,4.6096,4.6103,4.6123,4.6165,4.6221,4.6283,4.6293,4.63,4.6301,4.6291,4.6301,4.6286,4.623,4.6246,4.6232,4.6213,4.6221,4.6266,4.629,4.6293,4.6297,4.6299,4.63,4.6301,4.6301,4.6301,4.6301,4.6301,4.6301,4.6301,4.6301,4.6301,4.6301,4.6301,4.6301,4.6301,4.6301,4.6301,4.6301,4.6301,4.6301,4.632,4.634,4.632,4.632,4.632,4.632,4.632,4.6301,4.6476,4.6672,4.7002,4.7275,4.591,4.5265,4.4602,4.4738,4.5324,4.5324,4.5675,4.6242,4.6262,4.6281,4.6301,4.6301,4.6301,4.6301,4.6301,4.6301,4.6301,4.6301,4.6278,4.6276,4.6273,4.6249,4.6243,4.6204,4.6204,4.6285,4.6259,4.6142,4.6007,4.5619,4.4997,4.4348,4.4602,4.4505,4.4427,4.4524,4.4583,4.4583,4.4544,4.4814,4.5199,4.5302,4.5667,4.6016,4.6248,4.6263,4.622,4.6138,4.6143,4.6133,4.613,4.6135,4.6208,4.6178,4.6173,4.616,4.6137,4.6119,4.6104,4.6099,4.6078,4.6076,4.6064,4.6072,4.6093,4.615,4.621,4.6254,4.6295,4.6299,4.6302,4.6306,4.63,4.6267,4.623,4.6247,4.6255,4.6228,4.6232,4.6266,4.6289,4.6292,4.6295,4.6298,4.63,4.6301,4.6301,4.6301,4.6301,4.6301,4.6301,4.6301,4.6301,4.6301,4.6301,4.6301,4.6301,4.6301,4.6301,4.6301,4.6301,4.6301,4.6301,4.632,4.6436,4.671,4.6924,4.6632,4.6397,4.669,4.6924,4.6963,4.7178,4.7568,4.8133,4.6262,4.6203,4.6105,4.6086,4.6164,4.6203,4.6223,4.6301,4.6301,4.6301,4.6301,4.6301,4.6301,4.6301,4.6301,4.63,4.6299,4.6301,4.6249,4.6216,4.6209,4.6217,4.6227,4.6219,4.6214,4.6214,4.6221,4.6217,4.6191,4.6087,4.5994,4.608,4.5645,4.5925,4.5906,4.5645,4.5686,4.5706,4.5706,4.5757,4.5967,4.6027,4.6142,4.615,4.6213,4.6216,4.6204,4.6201,4.6174,4.6183,4.6181,4.6181,4.6152,4.6134,4.6102,4.6096,4.6073,4.6054,4.6028,4.6065,4.6052,4.6027,4.6015,4.6022,4.6044,4.614,4.6178,4.6206,4.6272,4.6285,4.6291,4.6298,4.6287,4.6269,4.6229,4.6223,4.6238,4.6225,4.6235,4.6277,4.6288,4.6288,4.6294,4.6297,4.63,4.6301,4.6301,4.6301,4.6301,4.6301,4.6301,4.6301,4.6301,4.6301,4.6301,4.6301,4.6301,4.6301,4.6301,4.6301,4.6301,4.6301,4.6301,4.6671,4.6884,4.7216,4.747,4.7276,4.7217,4.7411,4.7587,4.7743,4.8076,4.8563,4.9149,4.6301,4.6301,4.6301,4.6301,4.6301,4.6301,4.6301,4.6301,4.6301,4.6301,4.6301,4.6301,4.6301,4.6301,4.63,4.6274,4.6244,4.6242,4.6205,4.6209,4.6196,4.6209,4.6197,4.6194,4.6199,4.6196,4.6196,4.6197,4.6201,4.619,4.6206,4.6212,4.6237,4.6216,4.6217,4.6242,4.6241,4.624,4.6238,4.6228,4.6227,4.6225,4.6225,4.6206,4.6206,4.618,4.6148,4.6142,4.6106,4.6072,4.6067,4.6089,4.6091,4.6047,4.6039,4.6037,4.601,4.6004,4.6002,4.602,4.602,4.6012,4.5985,4.6012,4.603,4.6082,4.6138,4.6177,4.6228,4.6243,4.6235,4.6249,4.6247,4.6243,4.6218,4.6211,4.621,4.6199,4.6216,4.6246,4.626,4.624,4.6269,4.6296,4.6299,4.6301,4.6301,4.632,4.6418,4.6496,4.6574,4.6633,4.6672,4.6633,4.6633,4.6496,4.632,4.6359,4.6398,4.6457,4.6515,4.632,4.6418,4.6846,4.7431,4.786,4.8056,4.7978,4.8057,4.829,4.8485,4.8661,4.9071,4.9539,5.0008,4.6301,4.6301,4.6301,4.6301,4.6301,4.6301,4.6301,4.6301,4.6301,4.6301,4.6301,4.6301,4.6277,4.6274,4.6271,4.6258,4.622,4.6212,4.6191,4.6174,4.6162,4.6154,4.6146,4.614,4.613,4.6125,4.6142,4.6138,4.6134,4.614,4.614,4.614,4.6144,4.6154,4.6203,4.6197,4.6197,4.6197,4.6197,4.6189,4.6185,4.6194,4.6158,4.617,4.6152,4.6138,4.6089,4.6073,4.6042,4.6022,4.601,4.6007,4.6004,4.6002,4.5982,4.5982,4.5982,4.5982,4.5982,4.5982,4.5982,4.5982,4.5982,4.6022,4.6054,4.6044,4.6082,4.6198,4.6216,4.6211,4.6221,4.623,4.6219,4.6211,4.6223,4.6214,4.6204,4.6207,4.6205,4.621,4.6233,4.6299,4.6519,4.6587,4.663,4.6534,4.632,4.6535,4.6944,4.7022,4.712,4.7159,4.7198,4.7139,4.7081,4.6828,4.6672,4.6944,4.6944,4.6866,4.6827,4.673,4.7003,4.7725,4.8251,4.8583,4.8934,4.9227,4.9227,4.9207,4.9461,4.9793,5.0066,5.0496,5.0692,4.6301,4.6301,4.6301,4.6301,4.6301,4.6301,4.6301,4.63,4.6279,4.6296,4.6294,4.6294,4.6266,4.6212,4.6227,4.6191,4.6185,4.6178,4.6158,4.6106,4.6096,4.6051,4.6035,4.6025,4.6039,4.6012,4.6025,4.6035,4.602,4.6032,4.6025,4.6022,4.6039,4.6082,4.6189,4.6213,4.6215,4.6196,4.6189,4.6146,4.6132,4.6146,4.6122,4.6078,4.6082,4.6073,4.603,4.602,4.6012,4.6004,4.5982,4.5982,4.5982,4.5982,4.5982,4.5982,4.5982,4.5982,4.5982,4.5982,4.5982,4.601,4.5995,4.6018,4.5998,4.5998,4.6052,4.6177,4.6212,4.6226,4.623,4.6241,4.6208,4.6214,4.6204,4.6214,4.6199,4.6198,4.6201,4.6319,4.6351,4.6401,4.6716,4.6916,4.6979,4.6845,4.6457,4.6711,4.7392,4.7626,4.7744,4.7783,4.7842,4.7881,4.7744,4.7179,4.7042,4.7354,4.7568,4.7549,4.7686,4.7842,4.8213,4.874,4.909,4.9421,5.0047,5.0671,5.0417,5.0183,5.0692,5.1023,5.1258,5.1277,5.1258,4.6301,4.6301,4.6301,4.6301,4.6301,4.6301,4.6301,4.6298,4.6247,4.6231,4.6234,4.6233,4.6228,4.6198,4.6193,4.6176,4.6125,4.6117,4.6093,4.6035,4.6032,4.602,4.5982,4.5982,4.5982,4.5982,4.5982,4.5982,4.6004,4.5982,4.5982,4.6002,4.6002,4.6017,4.6044,4.6073,4.6073,4.6073,4.6071,4.6061,4.6052,4.6064,4.6059,4.5982,4.6022,4.602,4.5985,4.5982,4.5982,4.5982,4.5982,4.5982,4.5982,4.5982,4.5982,4.5982,4.5982,4.5982,4.5982,4.5982,4.5982,4.6,4.6039,4.6048,4.6076,4.6032,4.609,4.6167,4.6227,4.625,4.6228,4.6226,4.6203,4.6207,4.6195,4.6207,4.62,4.6209,4.6234,4.645,4.6536,4.7363,4.7856,4.8022,4.8048,4.8209,4.8016,4.7881,4.8369,4.8408,4.8466,4.8486,4.8525,4.8603,4.8505,4.8292,4.8057,4.8271,4.8407,4.8388,4.8584,4.8837,4.9189,4.9579,4.991,5.026,5.071,5.1081,5.114,5.1219,5.1355,5.1394,5.1355,5.1336,5.1355,4.6301,4.6301,4.6301,4.6301,4.6301,4.6301,4.6301,4.6297,4.6238,4.6195,4.62,4.6206,4.619,4.6183,4.6174,4.6134,4.6054,4.6051,4.6044,4.5982,4.6002,4.5982,4.5982,4.5982,4.5982,4.5982,4.5982,4.5982,4.5982,4.5982,4.5982,4.5982,4.5982,4.6004,4.601,4.601,4.601,4.6015,4.6015,4.6012,4.6007,4.6007,4.6007,4.5982,4.6004,4.5982,4.5982,4.5982,4.5982,4.5982,4.5982,4.5982,4.5982,4.5982,4.5982,4.5982,4.5982,4.5982,4.5982,4.6034,4.6027,4.5988,4.6058,4.6095,4.6105,4.6086,4.6121,4.6199,4.6246,4.6259,4.6257,4.6225,4.6234,4.624,4.6212,4.6206,4.6196,4.6207,4.6227,4.6441,4.705,4.7974,4.9019,4.9184,4.9273,4.9493,4.9692,4.9499,4.9286,4.9267,4.9345,4.9481,4.9579,4.9794,4.9852,4.9756,4.952,4.9285,4.9246,4.9247,4.9481,4.9755,5.0087,5.0359,5.0613,5.0866,5.114,5.1355,5.1316,5.1316,5.1375,5.1394,5.1394,5.1394,5.1394,4.6301,4.6301,4.6301,4.6301,4.6301,4.6301,4.63,4.6296,4.6233,4.6199,4.6177,4.6176,4.6146,4.61,4.6096,4.6071,4.6017,4.601,4.6007,4.5982,4.5982,4.5982,4.5982,4.5982,4.5982,4.5982,4.5982,4.5982,4.5982,4.5982,4.5982,4.5982,4.5982,4.5982,4.5982,4.5982,4.5982,4.5982,4.5982,4.5982,4.5982,4.5982,4.5982,4.5982,4.5982,4.5982,4.5982,4.5982,4.5982,4.5982,4.5982,4.5982,4.5982,4.5982,4.5982,4.5982,4.5982,4.5982,4.6015,4.6059,4.6072,4.6039,4.6068,4.6102,4.6129,4.6145,4.6201,4.623,4.6257,4.6289,4.6279,4.6292,4.6285,4.6256,4.6228,4.6219,4.6204,4.6201,4.62,4.6552,4.7258,4.8262,4.9724,5.0202,5.0189,5.0447,5.055,5.0436,5.0243,5.0144,5.03,5.0731,5.0867,5.1102,5.1043,5.0692,5.0535,5.0144,5.0125,5.0164,5.0417,5.0555,5.075,5.0965,5.1219,5.1394,5.1394,5.1394,5.1375,5.1394,5.1394,5.1394,5.1394,5.1394,5.1394,4.6301,4.6301,4.6301,4.6301,4.6301,4.6301,4.6264,4.6227,4.6171,4.6099,4.6065,4.6054,4.6044,4.6022,4.6022,4.6015,4.6007,4.6002,4.6002,4.5982,4.5982,4.5982,4.5982,4.5982,4.5982,4.5982,4.5982,4.5982,4.5982,4.5982,4.5982,4.5982,4.5982,4.5982,4.5982,4.5982,4.5982,4.5982,4.5982,4.5982,4.5982,4.5982,4.5982,4.5982,4.5982,4.5982,4.5982,4.5982,4.5982,4.5982,4.5982,4.5982,4.5982,4.5982,4.5982,4.5982,4.5982,4.6004,4.602,4.6074,4.6107,4.6077,4.6122,4.6142,4.6194,4.6226,4.6266,4.6278,4.627,4.628,4.6376,4.6411,4.6347,4.6281,4.6312,4.6402,4.6352,4.6213,4.6269,4.6908,4.7612,4.8871,5.0331,5.0867,5.0891,5.1228,5.133,5.1157,5.1042,5.0886,5.0886,5.1277,5.1394,5.1394,5.1394,5.1102,5.1102,5.1022,5.0905,5.0847,5.0944,5.1082,5.1316,5.1394,5.1394,5.1394,5.1394,5.1394,5.1394,5.1394,5.1394,5.1394,5.1394,5.1394,5.1394,4.6301,4.63,4.6272,4.6249,4.6246,4.6228,4.6221,4.6196,4.6152,4.6117,4.6032,4.6012,4.5982,4.6004,4.6004,4.6002,4.6002,4.5982,4.5982,4.5982,4.5982,4.5982,4.5982,4.5982,4.5982,4.5982,4.5982,4.5982,4.5982,4.5982,4.5982,4.5982,4.5982,4.5982,4.5982,4.5982,4.5982,4.5982,4.5982,4.5982,4.5982,4.5982,4.5982,4.5982,4.5982,4.5982,4.5982,4.5982,4.5982,4.5982,4.5982,4.5982,4.5982,4.5982,4.6022,4.6022,4.6,4.602,4.6054,4.6089,4.6118,4.6123,4.6155,4.6187,4.621,4.6249,4.6277,4.6283,4.6276,4.6289,4.643,4.653,4.6406,4.6302,4.6454,4.6604,4.6465,4.6268,4.671,4.7327,4.8346,4.9582,5.0507,5.1062,5.1401,5.1387,5.139,5.1334,5.1277,5.1219,5.116,5.1355,5.1394,5.1394,5.1394,5.1394,5.1316,5.1258,5.1238,5.1238,5.1394,5.1394,5.1394,5.1394,5.1394,5.1394,5.1394,5.1394,5.1394,5.1394,5.1394,5.1394,5.1394,5.1394,5.1394,4.6299,4.6277,4.6237,4.6206,4.6177,4.6148,4.6133,4.619,4.6167,4.615,4.6082,4.602,4.5982,4.5982,4.5982,4.5982,4.5982,4.5982,4.5982,4.5982,4.5982,4.5982,4.5982,4.5982,4.5982,4.5982,4.5982,4.5982,4.5982,4.5982,4.5982,4.5982,4.5982,4.5982,4.5982,4.5982,4.5982,4.5982,4.5982,4.5982,4.5982,4.5982,4.5982,4.5982,4.5982,4.5982,4.5982,4.5982,4.5982,4.5982,4.5982,4.5982,4.5982,4.5985,4.6036,4.6057,4.6027,4.6046,4.608,4.6125,4.6129,4.6148,4.6177,4.6211,4.6246,4.6249,4.6267,4.6285,4.6275,4.6274,4.6374,4.6569,4.6584,4.6697,4.6908,4.7155,4.7248,4.7229,4.7604,4.8203,4.8869,5.0046,5.085,5.1385,5.1386,5.1391,5.1393,5.1394,5.1394,5.1394,5.1394,5.1394,5.1394,5.1394,5.1394,5.1394,5.1394,5.1375,5.1394,5.1394,5.1394,5.1394,5.1394,5.1394,5.1394,5.1394,5.1394,5.1394,5.1394,5.1394,5.1394,5.1394,5.1394,5.1394,5.1394,4.6272,4.6236,4.621,4.6195,4.6214,4.6201,4.6135,4.6134,4.6132,4.6087,4.6022,4.6007,4.5982,4.5982,4.5982,4.5982,4.5982,4.5982,4.5982,4.5982,4.5982,4.5982,4.5982,4.5982,4.5982,4.5982,4.5982,4.5982,4.5982,4.5982,4.5982,4.5982,4.5982,4.5982,4.5982,4.5982,4.5982,4.5982,4.5982,4.5982,4.5982,4.5982,4.5982,4.5982,4.5982,4.5982,4.5982,4.5982,4.5982,4.5982,4.5982,4.5982,4.5982,4.5982,4.6036,4.6068,4.6057,4.6052,4.6096,4.6148,4.6177,4.6196,4.6229,4.6245,4.6261,4.625,4.625,4.6277,4.6298,4.6298,4.6375,4.6589,4.6841,4.7111,4.7421,4.7727,4.8032,4.8252,4.8512,4.9002,4.9549,5.0254,5.1077,5.1391,5.1392,5.1393,5.1393,5.1394,5.1394,5.1394,5.1394,5.1394,5.1394,5.1394,5.1394,5.1394,5.1394,5.1394,5.1394,5.1394,5.1394,5.1394,5.1394,5.1394,5.1394,5.1394,5.1394,5.1394,5.1394,5.1394,5.1394,5.1394,5.1394,5.1394,5.1394,4.6275,4.6242,4.6198,4.6196,4.6178,4.6126,4.6103,4.6098,4.6054,4.603,4.5985,4.5982,4.5982,4.5982,4.5982,4.5982,4.5982,4.5982,4.5982,4.5982,4.5982,4.5982,4.5982,4.5982,4.5982,4.5982,4.5982,4.5982,4.5982,4.5982,4.5982,4.5982,4.5982,4.5982,4.5982,4.5982,4.5982,4.5982,4.5982,4.5982,4.5982,4.5982,4.5982,4.5982,4.5982,4.5982,4.5982,4.5982,4.5982,4.5982,4.5982,4.5982,4.5982,4.5982,4.6063,4.6098,4.6103,4.6086,4.6121,4.6172,4.6211,4.6211,4.6267,4.6288,4.6286,4.6265,4.6266,4.6301,4.63,4.63,4.6492,4.6725,4.7095,4.7406,4.7914,4.8341,4.8456,4.8576,4.893,4.938,4.9868,5.0375,5.1061,5.1392,5.1393,5.1393,5.1394,5.1394,5.1394,5.1394,5.1394,5.1394,5.1394,5.1394,5.1394,5.1394,5.1394,5.1394,5.1394,5.1394,5.1394,5.1394,5.1394,5.1394,5.1394,5.1394,5.1394,5.1394,5.1394,5.1394,5.1394,5.1394,5.1393,5.139,5.1361,4.6297,4.6268,4.6219,4.6187,4.6156,4.6073,4.6054,4.6075,4.602,4.6002,4.5982,4.5982,4.5982,4.5982,4.5982,4.5982,4.5982,4.5982,4.5982,4.5982,4.5982,4.5982,4.5982,4.5982,4.5982,4.5982,4.5982,4.5982,4.5982,4.5982,4.5982,4.5982,4.5982,4.5982,4.5982,4.5982,4.5982,4.5982,4.5982,4.5982,4.5982,4.5982,4.5982,4.5982,4.5982,4.5982,4.5982,4.5982,4.5982,4.5982,4.5982,4.5982,4.6,4.6013,4.6093,4.6139,4.6124,4.6151,4.6172,4.6191,4.6211,4.6211,4.6269,4.6302,4.6302,4.6302,4.6302,4.6302,4.6302,4.6358,4.657,4.6783,4.7154,4.7975,4.8543,4.9129,4.9168,4.9188,4.956,4.997,5.0301,5.0749,5.0983,5.1336,5.1394,5.1394,5.1394,5.1394,5.1394,5.1394,5.1394,5.1394,5.1394,5.1394,5.1394,5.1394,5.1394,5.1394,5.1394,5.1394,5.1394,5.1394,5.1394,5.1394,5.1394,5.1394,5.1394,5.1394,5.1394,5.1394,5.1394,5.1393,5.1369,5.1361,5.1297,4.626,4.6214,4.615,4.6069,4.6039,4.6071,4.6049,4.6037,4.601,4.5982,4.5982,4.5982,4.5982,4.5982,4.5982,4.5982,4.5982,4.5982,4.5982,4.5982,4.5982,4.5982,4.5982,4.5982,4.5982,4.5982,4.5982,4.5982,4.5982,4.5982,4.5982,4.5982,4.5982,4.5982,4.5982,4.5982,4.5982,4.5982,4.5982,4.5982,4.5982,4.5982,4.5982,4.5982,4.5982,4.5982,4.5982,4.5982,4.5982,4.5982,4.5988,4.599,4.6013,4.6039,4.6128,4.6167,4.617,4.6179,4.6191,4.6211,4.623,4.623,4.6276,4.6302,4.6302,4.6302,4.6302,4.6302,4.6301,4.6301,4.6455,4.6553,4.6963,4.8563,4.956,5.0243,5.0613,5.0613,5.077,5.0887,5.0984,5.118,5.1219,5.1394,5.1394,5.1394,5.1394,5.1394,5.1394,5.1394,5.1394,5.1394,5.1394,5.1394,5.1394,5.1394,5.1394,5.1394,5.1394,5.1394,5.1394,5.1394,5.1394,5.1394,5.1394,5.1394,5.1394,5.1394,5.1394,5.1394,5.1394,5.1392,5.1367,5.1326,5.1252]}]]